<?xml version="1.0" encoding="UTF-8" standalone="no" ?>
<gpx xmlns="http://www.topografix.com/GPX/1/1" xmlns:xsi="http://www.w3.org/2001/XMLSchema-instance" xsi:schemaLocation="http://www.topografix.com/GPX/1/1 http://www.topografix.com/GPX/1/1/gpx.xsd" version="1.1" creator="VisuGPX - https://www.visugpx.com">
  <metadata>
    <name>VTT Alex</name>
  </metadata>
  <trk>
    <name><![CDATA[Léglise Course]]></name>
    <trkseg>
      <trkpt lat="49.78148" lon="5.59662">
        <ele>410.60000610352</ele>
        <time>2020-06-28T07:05:44.000Z</time>
      </trkpt>
      <trkpt lat="49.78142" lon="5.59657">
        <ele>410.39999389648</ele>
        <time>2020-06-28T07:05:45.000Z</time>
      </trkpt>
      <trkpt lat="49.78124" lon="5.59636">
        <ele>410</ele>
        <time>2020-06-28T07:05:49.000Z</time>
      </trkpt>
      <trkpt lat="49.78113" lon="5.59622">
        <ele>410.60000610352</ele>
        <time>2020-06-28T07:05:52.000Z</time>
      </trkpt>
      <trkpt lat="49.78099" lon="5.59607">
        <ele>411.20001220703</ele>
        <time>2020-06-28T07:05:55.000Z</time>
      </trkpt>
      <trkpt lat="49.78088" lon="5.59591">
        <ele>412</ele>
        <time>2020-06-28T07:05:57.000Z</time>
      </trkpt>
      <trkpt lat="49.78075" lon="5.59569">
        <ele>413</ele>
        <time>2020-06-28T07:06:00.000Z</time>
      </trkpt>
      <trkpt lat="49.78065" lon="5.5956">
        <ele>413.39999389648</ele>
        <time>2020-06-28T07:06:02.000Z</time>
      </trkpt>
      <trkpt lat="49.78043" lon="5.59549">
        <ele>414</ele>
        <time>2020-06-28T07:06:06.000Z</time>
      </trkpt>
      <trkpt lat="49.78032" lon="5.59546">
        <ele>414.39999389648</ele>
        <time>2020-06-28T07:06:08.000Z</time>
      </trkpt>
      <trkpt lat="49.78027" lon="5.59544">
        <ele>414.60000610352</ele>
        <time>2020-06-28T07:06:09.000Z</time>
      </trkpt>
      <trkpt lat="49.78012" lon="5.59541">
        <ele>415.39999389648</ele>
        <time>2020-06-28T07:06:12.000Z</time>
      </trkpt>
      <trkpt lat="49.77995" lon="5.59536">
        <ele>416.20001220703</ele>
        <time>2020-06-28T07:06:16.000Z</time>
      </trkpt>
      <trkpt lat="49.77986" lon="5.59534">
        <ele>416.60000610352</ele>
        <time>2020-06-28T07:06:18.000Z</time>
      </trkpt>
      <trkpt lat="49.77967" lon="5.59531">
        <ele>417.60000610352</ele>
        <time>2020-06-28T07:06:19.000Z</time>
      </trkpt>
      <trkpt lat="49.77948" lon="5.59527">
        <ele>418.60000610352</ele>
        <time>2020-06-28T07:06:25.000Z</time>
      </trkpt>
      <trkpt lat="49.77945" lon="5.59526">
        <ele>418.79998779297</ele>
        <time>2020-06-28T07:06:26.000Z</time>
      </trkpt>
      <trkpt lat="49.77932" lon="5.59524">
        <ele>419.60000610352</ele>
        <time>2020-06-28T07:06:30.000Z</time>
      </trkpt>
      <trkpt lat="49.77914" lon="5.59518">
        <ele>420.79998779297</ele>
        <time>2020-06-28T07:06:36.000Z</time>
      </trkpt>
      <trkpt lat="49.77911" lon="5.59517">
        <ele>421</ele>
        <time>2020-06-28T07:06:37.000Z</time>
      </trkpt>
      <trkpt lat="49.77904" lon="5.59515">
        <ele>421.20001220703</ele>
        <time>2020-06-28T07:06:39.000Z</time>
      </trkpt>
      <trkpt lat="49.77893" lon="5.59514">
        <ele>421.79998779297</ele>
        <time>2020-06-28T07:06:42.000Z</time>
      </trkpt>
      <trkpt lat="49.77875" lon="5.59519">
        <ele>422.60000610352</ele>
        <time>2020-06-28T07:06:46.000Z</time>
      </trkpt>
      <trkpt lat="49.77857" lon="5.59529">
        <ele>424.20001220703</ele>
        <time>2020-06-28T07:06:51.000Z</time>
      </trkpt>
      <trkpt lat="49.77854" lon="5.5953">
        <ele>424.39999389648</ele>
        <time>2020-06-28T07:06:52.000Z</time>
      </trkpt>
      <trkpt lat="49.77845" lon="5.59539">
        <ele>424.60000610352</ele>
        <time>2020-06-28T07:06:56.000Z</time>
      </trkpt>
      <trkpt lat="49.7784" lon="5.59543">
        <ele>424.79998779297</ele>
        <time>2020-06-28T07:06:58.000Z</time>
      </trkpt>
      <trkpt lat="49.77836" lon="5.59548">
        <ele>424.79998779297</ele>
        <time>2020-06-28T07:07:01.000Z</time>
      </trkpt>
      <trkpt lat="49.77831" lon="5.59552">
        <ele>424.79998779297</ele>
        <time>2020-06-28T07:07:04.000Z</time>
      </trkpt>
      <trkpt lat="49.7782" lon="5.59561">
        <ele>425.39999389648</ele>
        <time>2020-06-28T07:07:08.000Z</time>
      </trkpt>
      <trkpt lat="49.77809" lon="5.5957">
        <ele>426</ele>
        <time>2020-06-28T07:07:12.000Z</time>
      </trkpt>
      <trkpt lat="49.77797" lon="5.59579">
        <ele>425.79998779297</ele>
        <time>2020-06-28T07:07:16.000Z</time>
      </trkpt>
      <trkpt lat="49.77788" lon="5.59586">
        <ele>425.60000610352</ele>
        <time>2020-06-28T07:07:19.000Z</time>
      </trkpt>
      <trkpt lat="49.77773" lon="5.59596">
        <ele>425.39999389648</ele>
        <time>2020-06-28T07:07:24.000Z</time>
      </trkpt>
      <trkpt lat="49.77764" lon="5.59601">
        <ele>425.60000610352</ele>
        <time>2020-06-28T07:07:27.000Z</time>
      </trkpt>
      <trkpt lat="49.77745" lon="5.59613">
        <ele>425.39999389648</ele>
        <time>2020-06-28T07:07:33.000Z</time>
      </trkpt>
      <trkpt lat="49.77727" lon="5.59623">
        <ele>425.20001220703</ele>
        <time>2020-06-28T07:07:39.000Z</time>
      </trkpt>
      <trkpt lat="49.77709" lon="5.59626">
        <ele>425.60000610352</ele>
        <time>2020-06-28T07:07:45.000Z</time>
      </trkpt>
      <trkpt lat="49.77689" lon="5.5962">
        <ele>425.39999389648</ele>
        <time>2020-06-28T07:07:51.000Z</time>
      </trkpt>
      <trkpt lat="49.7767" lon="5.59611">
        <ele>425.39999389648</ele>
        <time>2020-06-28T07:07:56.000Z</time>
      </trkpt>
      <trkpt lat="49.7765" lon="5.59602">
        <ele>425.39999389648</ele>
        <time>2020-06-28T07:08:01.000Z</time>
      </trkpt>
      <trkpt lat="49.77646" lon="5.596">
        <ele>425.39999389648</ele>
        <time>2020-06-28T07:08:02.000Z</time>
      </trkpt>
      <trkpt lat="49.77625" lon="5.5959">
        <ele>425.39999389648</ele>
        <time>2020-06-28T07:08:07.000Z</time>
      </trkpt>
      <trkpt lat="49.77612" lon="5.59584">
        <ele>425.39999389648</ele>
        <time>2020-06-28T07:08:10.000Z</time>
      </trkpt>
      <trkpt lat="49.77607" lon="5.59582">
        <ele>425.60000610352</ele>
        <time>2020-06-28T07:08:11.000Z</time>
      </trkpt>
      <trkpt lat="49.77598" lon="5.59578">
        <ele>425.60000610352</ele>
        <time>2020-06-28T07:08:13.000Z</time>
      </trkpt>
      <trkpt lat="49.7758" lon="5.59569">
        <ele>425.79998779297</ele>
        <time>2020-06-28T07:08:17.000Z</time>
      </trkpt>
      <trkpt lat="49.77566" lon="5.59561">
        <ele>426</ele>
        <time>2020-06-28T07:08:20.000Z</time>
      </trkpt>
      <trkpt lat="49.77562" lon="5.59559">
        <ele>426</ele>
        <time>2020-06-28T07:08:21.000Z</time>
      </trkpt>
      <trkpt lat="49.77545" lon="5.59549">
        <ele>426.39999389648</ele>
        <time>2020-06-28T07:08:25.000Z</time>
      </trkpt>
      <trkpt lat="49.77532" lon="5.59541">
        <ele>427.20001220703</ele>
        <time>2020-06-28T07:08:28.000Z</time>
      </trkpt>
      <trkpt lat="49.77513" lon="5.59532">
        <ele>429</ele>
        <time>2020-06-28T07:08:32.000Z</time>
      </trkpt>
      <trkpt lat="49.77493" lon="5.59526">
        <ele>430.39999389648</ele>
        <time>2020-06-28T07:08:36.000Z</time>
      </trkpt>
      <trkpt lat="49.77488" lon="5.59526">
        <ele>430.60000610352</ele>
        <time>2020-06-28T07:08:37.000Z</time>
      </trkpt>
      <trkpt lat="49.77467" lon="5.59524">
        <ele>431.60000610352</ele>
        <time>2020-06-28T07:08:41.000Z</time>
      </trkpt>
      <trkpt lat="49.77462" lon="5.59524">
        <ele>431.79998779297</ele>
        <time>2020-06-28T07:08:42.000Z</time>
      </trkpt>
      <trkpt lat="49.77451" lon="5.59524">
        <ele>432</ele>
        <time>2020-06-28T07:08:44.000Z</time>
      </trkpt>
      <trkpt lat="49.77435" lon="5.59526">
        <ele>432</ele>
        <time>2020-06-28T07:08:47.000Z</time>
      </trkpt>
      <trkpt lat="49.77416" lon="5.59533">
        <ele>432.60000610352</ele>
        <time>2020-06-28T07:08:51.000Z</time>
      </trkpt>
      <trkpt lat="49.77412" lon="5.59535">
        <ele>432.79998779297</ele>
        <time>2020-06-28T07:08:52.000Z</time>
      </trkpt>
      <trkpt lat="49.77398" lon="5.59545">
        <ele>433.39999389648</ele>
        <time>2020-06-28T07:08:55.000Z</time>
      </trkpt>
      <trkpt lat="49.7738" lon="5.59551">
        <ele>434.39999389648</ele>
        <time>2020-06-28T07:08:59.000Z</time>
      </trkpt>
      <trkpt lat="49.77376" lon="5.59552">
        <ele>434.60000610352</ele>
        <time>2020-06-28T07:09:00.000Z</time>
      </trkpt>
      <trkpt lat="49.77359" lon="5.59565">
        <ele>435.39999389648</ele>
        <time>2020-06-28T07:09:05.000Z</time>
      </trkpt>
      <trkpt lat="49.77342" lon="5.59573">
        <ele>436.39999389648</ele>
        <time>2020-06-28T07:09:10.000Z</time>
      </trkpt>
      <trkpt lat="49.77339" lon="5.59574">
        <ele>436.60000610352</ele>
        <time>2020-06-28T07:09:11.000Z</time>
      </trkpt>
      <trkpt lat="49.77322" lon="5.59581">
        <ele>437.79998779297</ele>
        <time>2020-06-28T07:09:16.000Z</time>
      </trkpt>
      <trkpt lat="49.77312" lon="5.59586">
        <ele>438.60000610352</ele>
        <time>2020-06-28T07:09:19.000Z</time>
      </trkpt>
      <trkpt lat="49.77308" lon="5.59588">
        <ele>439</ele>
        <time>2020-06-28T07:09:20.000Z</time>
      </trkpt>
      <trkpt lat="49.77301" lon="5.59591">
        <ele>439.60000610352</ele>
        <time>2020-06-28T07:09:22.000Z</time>
      </trkpt>
      <trkpt lat="49.77289" lon="5.59595">
        <ele>440.79998779297</ele>
        <time>2020-06-28T07:09:26.000Z</time>
      </trkpt>
      <trkpt lat="49.77276" lon="5.59599">
        <ele>441.39999389648</ele>
        <time>2020-06-28T07:09:30.000Z</time>
      </trkpt>
      <trkpt lat="49.77267" lon="5.59601">
        <ele>441.60000610352</ele>
        <time>2020-06-28T07:09:33.000Z</time>
      </trkpt>
      <trkpt lat="49.7726" lon="5.59602">
        <ele>441.79998779297</ele>
        <time>2020-06-28T07:09:35.000Z</time>
      </trkpt>
      <trkpt lat="49.77242" lon="5.59606">
        <ele>443</ele>
        <time>2020-06-28T07:09:41.000Z</time>
      </trkpt>
      <trkpt lat="49.77239" lon="5.59607">
        <ele>443.20001220703</ele>
        <time>2020-06-28T07:09:42.000Z</time>
      </trkpt>
      <trkpt lat="49.7722" lon="5.59616">
        <ele>444.60000610352</ele>
        <time>2020-06-28T07:09:49.000Z</time>
      </trkpt>
      <trkpt lat="49.77217" lon="5.59617">
        <ele>444.79998779297</ele>
        <time>2020-06-28T07:09:50.000Z</time>
      </trkpt>
      <trkpt lat="49.77198" lon="5.59621">
        <ele>445.60000610352</ele>
        <time>2020-06-28T07:09:58.000Z</time>
      </trkpt>
      <trkpt lat="49.77196" lon="5.59621">
        <ele>445.60000610352</ele>
        <time>2020-06-28T07:09:59.000Z</time>
      </trkpt>
      <trkpt lat="49.77178" lon="5.59626">
        <ele>444.79998779297</ele>
        <time>2020-06-28T07:10:06.000Z</time>
      </trkpt>
      <trkpt lat="49.77171" lon="5.59632">
        <ele>444.39999389648</ele>
        <time>2020-06-28T07:10:09.000Z</time>
      </trkpt>
      <trkpt lat="49.77169" lon="5.59633">
        <ele>444.20001220703</ele>
        <time>2020-06-28T07:10:10.000Z</time>
      </trkpt>
      <trkpt lat="49.77168" lon="5.59651">
        <ele>445</ele>
        <time>2020-06-28T07:10:16.000Z</time>
      </trkpt>
      <trkpt lat="49.77168" lon="5.59656">
        <ele>445.20001220703</ele>
        <time>2020-06-28T07:10:17.000Z</time>
      </trkpt>
      <trkpt lat="49.7717" lon="5.59685">
        <ele>446.79998779297</ele>
        <time>2020-06-28T07:10:24.000Z</time>
      </trkpt>
      <trkpt lat="49.77175" lon="5.59711">
        <ele>447.79998779297</ele>
        <time>2020-06-28T07:10:30.000Z</time>
      </trkpt>
      <trkpt lat="49.77182" lon="5.59737">
        <ele>448.60000610352</ele>
        <time>2020-06-28T07:10:35.000Z</time>
      </trkpt>
      <trkpt lat="49.7719" lon="5.59763">
        <ele>449.60000610352</ele>
        <time>2020-06-28T07:10:39.000Z</time>
      </trkpt>
      <trkpt lat="49.77192" lon="5.5977">
        <ele>449.79998779297</ele>
        <time>2020-06-28T07:10:40.000Z</time>
      </trkpt>
      <trkpt lat="49.77194" lon="5.59776">
        <ele>450</ele>
        <time>2020-06-28T07:10:41.000Z</time>
      </trkpt>
      <trkpt lat="49.772" lon="5.59802">
        <ele>450.39999389648</ele>
        <time>2020-06-28T07:10:45.000Z</time>
      </trkpt>
      <trkpt lat="49.77201" lon="5.59808">
        <ele>450</ele>
        <time>2020-06-28T07:10:46.000Z</time>
      </trkpt>
      <trkpt lat="49.77209" lon="5.59834">
        <ele>448.39999389648</ele>
        <time>2020-06-28T07:10:50.000Z</time>
      </trkpt>
      <trkpt lat="49.77219" lon="5.59858">
        <ele>446.79998779297</ele>
        <time>2020-06-28T07:10:54.000Z</time>
      </trkpt>
      <trkpt lat="49.77226" lon="5.59885">
        <ele>444.79998779297</ele>
        <time>2020-06-28T07:10:58.000Z</time>
      </trkpt>
      <trkpt lat="49.77229" lon="5.59897">
        <ele>444</ele>
        <time>2020-06-28T07:11:00.000Z</time>
      </trkpt>
      <trkpt lat="49.7723" lon="5.59903">
        <ele>443.60000610352</ele>
        <time>2020-06-28T07:11:01.000Z</time>
      </trkpt>
      <trkpt lat="49.77236" lon="5.59929">
        <ele>442.20001220703</ele>
        <time>2020-06-28T07:11:05.000Z</time>
      </trkpt>
      <trkpt lat="49.77238" lon="5.59935">
        <ele>441.79998779297</ele>
        <time>2020-06-28T07:11:06.000Z</time>
      </trkpt>
      <trkpt lat="49.77229" lon="5.59951">
        <ele>440.60000610352</ele>
        <time>2020-06-28T07:11:13.000Z</time>
      </trkpt>
      <trkpt lat="49.77225" lon="5.59955">
        <ele>440.39999389648</ele>
        <time>2020-06-28T07:11:14.000Z</time>
      </trkpt>
      <trkpt lat="49.77205" lon="5.59959">
        <ele>439.60000610352</ele>
        <time>2020-06-28T07:11:20.000Z</time>
      </trkpt>
      <trkpt lat="49.77185" lon="5.59955">
        <ele>437.79998779297</ele>
        <time>2020-06-28T07:11:25.000Z</time>
      </trkpt>
      <trkpt lat="49.77171" lon="5.59974">
        <ele>435</ele>
        <time>2020-06-28T07:11:30.000Z</time>
      </trkpt>
      <trkpt lat="49.77165" lon="5.59982">
        <ele>433.79998779297</ele>
        <time>2020-06-28T07:11:32.000Z</time>
      </trkpt>
      <trkpt lat="49.77161" lon="5.59986">
        <ele>433.20001220703</ele>
        <time>2020-06-28T07:11:33.000Z</time>
      </trkpt>
      <trkpt lat="49.77141" lon="5.59999">
        <ele>430.79998779297</ele>
        <time>2020-06-28T07:11:38.000Z</time>
      </trkpt>
      <trkpt lat="49.77123" lon="5.60012">
        <ele>429.60000610352</ele>
        <time>2020-06-28T07:11:42.000Z</time>
      </trkpt>
      <trkpt lat="49.77106" lon="5.6002">
        <ele>428.20001220703</ele>
        <time>2020-06-28T07:11:51.000Z</time>
      </trkpt>
      <trkpt lat="49.77106" lon="5.60017">
        <ele>428.20001220703</ele>
        <time>2020-06-28T07:11:52.000Z</time>
      </trkpt>
      <trkpt lat="49.77106" lon="5.60008">
        <ele>428.20001220703</ele>
        <time>2020-06-28T07:11:55.000Z</time>
      </trkpt>
      <trkpt lat="49.77107" lon="5.60001">
        <ele>428.39999389648</ele>
        <time>2020-06-28T07:11:57.000Z</time>
      </trkpt>
      <trkpt lat="49.77102" lon="5.59973">
        <ele>428.39999389648</ele>
        <time>2020-06-28T07:12:05.000Z</time>
      </trkpt>
      <trkpt lat="49.77088" lon="5.59948">
        <ele>428</ele>
        <time>2020-06-28T07:12:11.000Z</time>
      </trkpt>
      <trkpt lat="49.77082" lon="5.59921">
        <ele>428.60000610352</ele>
        <time>2020-06-28T07:12:17.000Z</time>
      </trkpt>
      <trkpt lat="49.77078" lon="5.59893">
        <ele>429.79998779297</ele>
        <time>2020-06-28T07:12:24.000Z</time>
      </trkpt>
      <trkpt lat="49.77074" lon="5.59863">
        <ele>430.79998779297</ele>
        <time>2020-06-28T07:12:31.000Z</time>
      </trkpt>
      <trkpt lat="49.77074" lon="5.59859">
        <ele>430.79998779297</ele>
        <time>2020-06-28T07:12:32.000Z</time>
      </trkpt>
      <trkpt lat="49.77073" lon="5.59854">
        <ele>431</ele>
        <time>2020-06-28T07:12:33.000Z</time>
      </trkpt>
      <trkpt lat="49.77071" lon="5.59842">
        <ele>431.20001220703</ele>
        <time>2020-06-28T07:12:36.000Z</time>
      </trkpt>
      <trkpt lat="49.7707" lon="5.59834">
        <ele>431.39999389648</ele>
        <time>2020-06-28T07:12:38.000Z</time>
      </trkpt>
      <trkpt lat="49.7707" lon="5.59824">
        <ele>431.79998779297</ele>
        <time>2020-06-28T07:12:41.000Z</time>
      </trkpt>
      <trkpt lat="49.7707" lon="5.59806">
        <ele>433</ele>
        <time>2020-06-28T07:12:47.000Z</time>
      </trkpt>
      <trkpt lat="49.77071" lon="5.59797">
        <ele>433.60000610352</ele>
        <time>2020-06-28T07:12:50.000Z</time>
      </trkpt>
      <trkpt lat="49.77073" lon="5.59787">
        <ele>434.39999389648</ele>
        <time>2020-06-28T07:12:54.000Z</time>
      </trkpt>
      <trkpt lat="49.77081" lon="5.59761">
        <ele>436.60000610352</ele>
        <time>2020-06-28T07:13:07.000Z</time>
      </trkpt>
      <trkpt lat="49.77094" lon="5.59738">
        <ele>439.39999389648</ele>
        <time>2020-06-28T07:13:17.000Z</time>
      </trkpt>
      <trkpt lat="49.77107" lon="5.59716">
        <ele>442.20001220703</ele>
        <time>2020-06-28T07:13:27.000Z</time>
      </trkpt>
      <trkpt lat="49.7712" lon="5.59697">
        <ele>443.39999389648</ele>
        <time>2020-06-28T07:13:34.000Z</time>
      </trkpt>
      <trkpt lat="49.77121" lon="5.59695">
        <ele>443.39999389648</ele>
        <time>2020-06-28T07:13:35.000Z</time>
      </trkpt>
      <trkpt lat="49.77128" lon="5.59686">
        <ele>443.79998779297</ele>
        <time>2020-06-28T07:13:40.000Z</time>
      </trkpt>
      <trkpt lat="49.7713" lon="5.59684">
        <ele>443.79998779297</ele>
        <time>2020-06-28T07:13:41.000Z</time>
      </trkpt>
      <trkpt lat="49.7714" lon="5.59672">
        <ele>444.20001220703</ele>
        <time>2020-06-28T07:13:46.000Z</time>
      </trkpt>
      <trkpt lat="49.77143" lon="5.59668">
        <ele>444.39999389648</ele>
        <time>2020-06-28T07:13:47.000Z</time>
      </trkpt>
      <trkpt lat="49.7715" lon="5.59661">
        <ele>444.60000610352</ele>
        <time>2020-06-28T07:13:49.000Z</time>
      </trkpt>
      <trkpt lat="49.77159" lon="5.59637">
        <ele>444</ele>
        <time>2020-06-28T07:13:55.000Z</time>
      </trkpt>
      <trkpt lat="49.77156" lon="5.59605">
        <ele>443.60000610352</ele>
        <time>2020-06-28T07:14:00.000Z</time>
      </trkpt>
      <trkpt lat="49.77151" lon="5.59572">
        <ele>443.39999389648</ele>
        <time>2020-06-28T07:14:05.000Z</time>
      </trkpt>
      <trkpt lat="49.7715" lon="5.59566">
        <ele>443.20001220703</ele>
        <time>2020-06-28T07:14:06.000Z</time>
      </trkpt>
      <trkpt lat="49.77146" lon="5.59536">
        <ele>443</ele>
        <time>2020-06-28T07:14:11.000Z</time>
      </trkpt>
      <trkpt lat="49.77145" lon="5.5953">
        <ele>443.20001220703</ele>
        <time>2020-06-28T07:14:12.000Z</time>
      </trkpt>
      <trkpt lat="49.77141" lon="5.595">
        <ele>443.39999389648</ele>
        <time>2020-06-28T07:14:17.000Z</time>
      </trkpt>
      <trkpt lat="49.77139" lon="5.59489">
        <ele>443.39999389648</ele>
        <time>2020-06-28T07:14:19.000Z</time>
      </trkpt>
      <trkpt lat="49.77136" lon="5.59471">
        <ele>444</ele>
        <time>2020-06-28T07:14:22.000Z</time>
      </trkpt>
      <trkpt lat="49.77135" lon="5.5946">
        <ele>444.79998779297</ele>
        <time>2020-06-28T07:14:24.000Z</time>
      </trkpt>
      <trkpt lat="49.77132" lon="5.59434">
        <ele>447</ele>
        <time>2020-06-28T07:14:28.000Z</time>
      </trkpt>
      <trkpt lat="49.77131" lon="5.59428">
        <ele>447.60000610352</ele>
        <time>2020-06-28T07:14:29.000Z</time>
      </trkpt>
      <trkpt lat="49.77129" lon="5.59397">
        <ele>450.39999389648</ele>
        <time>2020-06-28T07:14:36.000Z</time>
      </trkpt>
      <trkpt lat="49.77116" lon="5.59373">
        <ele>452.39999389648</ele>
        <time>2020-06-28T07:14:43.000Z</time>
      </trkpt>
      <trkpt lat="49.7711" lon="5.59365">
        <ele>453.60000610352</ele>
        <time>2020-06-28T07:14:45.000Z</time>
      </trkpt>
      <trkpt lat="49.77108" lon="5.5936">
        <ele>454.20001220703</ele>
        <time>2020-06-28T07:14:46.000Z</time>
      </trkpt>
      <trkpt lat="49.77096" lon="5.59332">
        <ele>457.60000610352</ele>
        <time>2020-06-28T07:14:51.000Z</time>
      </trkpt>
      <trkpt lat="49.77094" lon="5.59327">
        <ele>458.39999389648</ele>
        <time>2020-06-28T07:14:52.000Z</time>
      </trkpt>
      <trkpt lat="49.77092" lon="5.59321">
        <ele>459</ele>
        <time>2020-06-28T07:14:53.000Z</time>
      </trkpt>
      <trkpt lat="49.77082" lon="5.59298">
        <ele>461.60000610352</ele>
        <time>2020-06-28T07:14:57.000Z</time>
      </trkpt>
      <trkpt lat="49.7708" lon="5.59292">
        <ele>461.79998779297</ele>
        <time>2020-06-28T07:14:58.000Z</time>
      </trkpt>
      <trkpt lat="49.77069" lon="5.59265">
        <ele>462.39999389648</ele>
        <time>2020-06-28T07:15:03.000Z</time>
      </trkpt>
      <trkpt lat="49.77056" lon="5.59239">
        <ele>463.20001220703</ele>
        <time>2020-06-28T07:15:08.000Z</time>
      </trkpt>
      <trkpt lat="49.77054" lon="5.59234">
        <ele>463.39999389648</ele>
        <time>2020-06-28T07:15:09.000Z</time>
      </trkpt>
      <trkpt lat="49.77052" lon="5.59229">
        <ele>463.60000610352</ele>
        <time>2020-06-28T07:15:10.000Z</time>
      </trkpt>
      <trkpt lat="49.77041" lon="5.59202">
        <ele>463.79998779297</ele>
        <time>2020-06-28T07:15:16.000Z</time>
      </trkpt>
      <trkpt lat="49.77031" lon="5.59175">
        <ele>462.79998779297</ele>
        <time>2020-06-28T07:15:22.000Z</time>
      </trkpt>
      <trkpt lat="49.77029" lon="5.59171">
        <ele>462.79998779297</ele>
        <time>2020-06-28T07:15:23.000Z</time>
      </trkpt>
      <trkpt lat="49.77023" lon="5.59154">
        <ele>462</ele>
        <time>2020-06-28T07:15:27.000Z</time>
      </trkpt>
      <trkpt lat="49.77022" lon="5.59151">
        <ele>461.79998779297</ele>
        <time>2020-06-28T07:15:28.000Z</time>
      </trkpt>
      <trkpt lat="49.77012" lon="5.59127">
        <ele>460.79998779297</ele>
        <time>2020-06-28T07:15:34.000Z</time>
      </trkpt>
      <trkpt lat="49.76999" lon="5.59105">
        <ele>459.79998779297</ele>
        <time>2020-06-28T07:15:41.000Z</time>
      </trkpt>
      <trkpt lat="49.76983" lon="5.5909">
        <ele>458.39999389648</ele>
        <time>2020-06-28T07:15:47.000Z</time>
      </trkpt>
      <trkpt lat="49.76961" lon="5.59081">
        <ele>456.60000610352</ele>
        <time>2020-06-28T07:15:53.000Z</time>
      </trkpt>
      <trkpt lat="49.76957" lon="5.5908">
        <ele>456.20001220703</ele>
        <time>2020-06-28T07:15:54.000Z</time>
      </trkpt>
      <trkpt lat="49.76939" lon="5.59073">
        <ele>455</ele>
        <time>2020-06-28T07:15:58.000Z</time>
      </trkpt>
      <trkpt lat="49.76919" lon="5.59058">
        <ele>453.79998779297</ele>
        <time>2020-06-28T07:16:02.000Z</time>
      </trkpt>
      <trkpt lat="49.76901" lon="5.59047">
        <ele>452.79998779297</ele>
        <time>2020-06-28T07:16:05.000Z</time>
      </trkpt>
      <trkpt lat="49.76894" lon="5.59043">
        <ele>452.39999389648</ele>
        <time>2020-06-28T07:16:06.000Z</time>
      </trkpt>
      <trkpt lat="49.76875" lon="5.59026">
        <ele>451.60000610352</ele>
        <time>2020-06-28T07:16:09.000Z</time>
      </trkpt>
      <trkpt lat="49.76869" lon="5.59021">
        <ele>451.39999389648</ele>
        <time>2020-06-28T07:16:10.000Z</time>
      </trkpt>
      <trkpt lat="49.7685" lon="5.5901">
        <ele>451.79998779297</ele>
        <time>2020-06-28T07:16:13.000Z</time>
      </trkpt>
      <trkpt lat="49.76832" lon="5.59006">
        <ele>452</ele>
        <time>2020-06-28T07:16:18.000Z</time>
      </trkpt>
      <trkpt lat="49.76826" lon="5.59003">
        <ele>452.20001220703</ele>
        <time>2020-06-28T07:16:27.000Z</time>
      </trkpt>
      <trkpt lat="49.76808" lon="5.59015">
        <ele>451.60000610352</ele>
        <time>2020-06-28T07:16:37.000Z</time>
      </trkpt>
      <trkpt lat="49.76795" lon="5.59035">
        <ele>450.60000610352</ele>
        <time>2020-06-28T07:16:46.000Z</time>
      </trkpt>
      <trkpt lat="49.76789" lon="5.59063">
        <ele>450.20001220703</ele>
        <time>2020-06-28T07:16:54.000Z</time>
      </trkpt>
      <trkpt lat="49.76789" lon="5.59094">
        <ele>451</ele>
        <time>2020-06-28T07:17:01.000Z</time>
      </trkpt>
      <trkpt lat="49.76791" lon="5.59122">
        <ele>451.60000610352</ele>
        <time>2020-06-28T07:17:06.000Z</time>
      </trkpt>
      <trkpt lat="49.76791" lon="5.59137">
        <ele>451.79998779297</ele>
        <time>2020-06-28T07:17:08.000Z</time>
      </trkpt>
      <trkpt lat="49.76793" lon="5.59162">
        <ele>452.39999389648</ele>
        <time>2020-06-28T07:17:12.000Z</time>
      </trkpt>
      <trkpt lat="49.76793" lon="5.59171">
        <ele>452.79998779297</ele>
        <time>2020-06-28T07:17:13.000Z</time>
      </trkpt>
      <trkpt lat="49.76794" lon="5.59202">
        <ele>453.79998779297</ele>
        <time>2020-06-28T07:17:17.000Z</time>
      </trkpt>
      <trkpt lat="49.76795" lon="5.59233">
        <ele>454.60000610352</ele>
        <time>2020-06-28T07:17:21.000Z</time>
      </trkpt>
      <trkpt lat="49.76796" lon="5.59257">
        <ele>454.79998779297</ele>
        <time>2020-06-28T07:17:24.000Z</time>
      </trkpt>
      <trkpt lat="49.76795" lon="5.59265">
        <ele>455</ele>
        <time>2020-06-28T07:17:25.000Z</time>
      </trkpt>
      <trkpt lat="49.76792" lon="5.59297">
        <ele>455.60000610352</ele>
        <time>2020-06-28T07:17:30.000Z</time>
      </trkpt>
      <trkpt lat="49.7679" lon="5.59307">
        <ele>455.79998779297</ele>
        <time>2020-06-28T07:17:32.000Z</time>
      </trkpt>
      <trkpt lat="49.76784" lon="5.59334">
        <ele>456</ele>
        <time>2020-06-28T07:17:37.000Z</time>
      </trkpt>
      <trkpt lat="49.76781" lon="5.59356">
        <ele>456.20001220703</ele>
        <time>2020-06-28T07:17:40.000Z</time>
      </trkpt>
      <trkpt lat="49.76781" lon="5.59364">
        <ele>456.20001220703</ele>
        <time>2020-06-28T07:17:41.000Z</time>
      </trkpt>
      <trkpt lat="49.76778" lon="5.59394">
        <ele>457.20001220703</ele>
        <time>2020-06-28T07:17:45.000Z</time>
      </trkpt>
      <trkpt lat="49.76776" lon="5.59429">
        <ele>459</ele>
        <time>2020-06-28T07:17:49.000Z</time>
      </trkpt>
      <trkpt lat="49.76776" lon="5.59438">
        <ele>459.60000610352</ele>
        <time>2020-06-28T07:17:50.000Z</time>
      </trkpt>
      <trkpt lat="49.76776" lon="5.59466">
        <ele>460</ele>
        <time>2020-06-28T07:17:53.000Z</time>
      </trkpt>
      <trkpt lat="49.76773" lon="5.59502">
        <ele>461.39999389648</ele>
        <time>2020-06-28T07:17:57.000Z</time>
      </trkpt>
      <trkpt lat="49.76772" lon="5.59511">
        <ele>461.79998779297</ele>
        <time>2020-06-28T07:17:58.000Z</time>
      </trkpt>
      <trkpt lat="49.76767" lon="5.59538">
        <ele>463</ele>
        <time>2020-06-28T07:18:01.000Z</time>
      </trkpt>
      <trkpt lat="49.76764" lon="5.59565">
        <ele>462.60000610352</ele>
        <time>2020-06-28T07:18:04.000Z</time>
      </trkpt>
      <trkpt lat="49.76762" lon="5.59583">
        <ele>462</ele>
        <time>2020-06-28T07:18:06.000Z</time>
      </trkpt>
      <trkpt lat="49.7676" lon="5.59613">
        <ele>461.39999389648</ele>
        <time>2020-06-28T07:18:09.000Z</time>
      </trkpt>
      <trkpt lat="49.76759" lon="5.59623">
        <ele>461.60000610352</ele>
        <time>2020-06-28T07:18:10.000Z</time>
      </trkpt>
      <trkpt lat="49.76758" lon="5.59631">
        <ele>461.79998779297</ele>
        <time>2020-06-28T07:18:11.000Z</time>
      </trkpt>
      <trkpt lat="49.76757" lon="5.59655">
        <ele>461.39999389648</ele>
        <time>2020-06-28T07:18:14.000Z</time>
      </trkpt>
      <trkpt lat="49.76759" lon="5.59688">
        <ele>460.60000610352</ele>
        <time>2020-06-28T07:18:19.000Z</time>
      </trkpt>
      <trkpt lat="49.76757" lon="5.59714">
        <ele>459.79998779297</ele>
        <time>2020-06-28T07:18:23.000Z</time>
      </trkpt>
      <trkpt lat="49.76757" lon="5.59721">
        <ele>459.60000610352</ele>
        <time>2020-06-28T07:18:24.000Z</time>
      </trkpt>
      <trkpt lat="49.76753" lon="5.59746">
        <ele>459.20001220703</ele>
        <time>2020-06-28T07:18:28.000Z</time>
      </trkpt>
      <trkpt lat="49.76754" lon="5.59776">
        <ele>458.39999389648</ele>
        <time>2020-06-28T07:18:33.000Z</time>
      </trkpt>
      <trkpt lat="49.76753" lon="5.59809">
        <ele>457.39999389648</ele>
        <time>2020-06-28T07:18:39.000Z</time>
      </trkpt>
      <trkpt lat="49.76752" lon="5.59834">
        <ele>455.20001220703</ele>
        <time>2020-06-28T07:18:43.000Z</time>
      </trkpt>
      <trkpt lat="49.76752" lon="5.59841">
        <ele>454.60000610352</ele>
        <time>2020-06-28T07:18:44.000Z</time>
      </trkpt>
      <trkpt lat="49.76749" lon="5.59871">
        <ele>454.39999389648</ele>
        <time>2020-06-28T07:18:49.000Z</time>
      </trkpt>
      <trkpt lat="49.76751" lon="5.59896">
        <ele>452.39999389648</ele>
        <time>2020-06-28T07:18:53.000Z</time>
      </trkpt>
      <trkpt lat="49.76752" lon="5.59904">
        <ele>451</ele>
        <time>2020-06-28T07:18:54.000Z</time>
      </trkpt>
      <trkpt lat="49.76755" lon="5.59935">
        <ele>445.60000610352</ele>
        <time>2020-06-28T07:18:58.000Z</time>
      </trkpt>
      <trkpt lat="49.76749" lon="5.59967">
        <ele>443</ele>
        <time>2020-06-28T07:19:03.000Z</time>
      </trkpt>
      <trkpt lat="49.76734" lon="5.59987">
        <ele>444.20001220703</ele>
        <time>2020-06-28T07:19:08.000Z</time>
      </trkpt>
      <trkpt lat="49.76728" lon="5.59995">
        <ele>444.39999389648</ele>
        <time>2020-06-28T07:19:10.000Z</time>
      </trkpt>
      <trkpt lat="49.76726" lon="5.59999">
        <ele>443.60000610352</ele>
        <time>2020-06-28T07:19:11.000Z</time>
      </trkpt>
      <trkpt lat="49.76709" lon="5.60017">
        <ele>441.20001220703</ele>
        <time>2020-06-28T07:19:18.000Z</time>
      </trkpt>
      <trkpt lat="49.76691" lon="5.60033">
        <ele>439.79998779297</ele>
        <time>2020-06-28T07:19:27.000Z</time>
      </trkpt>
      <trkpt lat="49.76686" lon="5.60034">
        <ele>440.20001220703</ele>
        <time>2020-06-28T07:19:29.000Z</time>
      </trkpt>
      <trkpt lat="49.76682" lon="5.60036">
        <ele>441</ele>
        <time>2020-06-28T07:19:32.000Z</time>
      </trkpt>
      <trkpt lat="49.76663" lon="5.60045">
        <ele>444.20001220703</ele>
        <time>2020-06-28T07:19:41.000Z</time>
      </trkpt>
      <trkpt lat="49.76661" lon="5.60046">
        <ele>444.60000610352</ele>
        <time>2020-06-28T07:19:42.000Z</time>
      </trkpt>
      <trkpt lat="49.76653" lon="5.6005">
        <ele>446</ele>
        <time>2020-06-28T07:19:46.000Z</time>
      </trkpt>
      <trkpt lat="49.76651" lon="5.60051">
        <ele>446.39999389648</ele>
        <time>2020-06-28T07:19:47.000Z</time>
      </trkpt>
      <trkpt lat="49.76642" lon="5.60056">
        <ele>448.20001220703</ele>
        <time>2020-06-28T07:19:51.000Z</time>
      </trkpt>
      <trkpt lat="49.76624" lon="5.60065">
        <ele>451.79998779297</ele>
        <time>2020-06-28T07:19:58.000Z</time>
      </trkpt>
      <trkpt lat="49.76621" lon="5.60066">
        <ele>452.39999389648</ele>
        <time>2020-06-28T07:19:59.000Z</time>
      </trkpt>
      <trkpt lat="49.76616" lon="5.60067">
        <ele>452.79998779297</ele>
        <time>2020-06-28T07:20:01.000Z</time>
      </trkpt>
      <trkpt lat="49.76597" lon="5.60072">
        <ele>454.60000610352</ele>
        <time>2020-06-28T07:20:09.000Z</time>
      </trkpt>
      <trkpt lat="49.76594" lon="5.60072">
        <ele>455</ele>
        <time>2020-06-28T07:20:10.000Z</time>
      </trkpt>
      <trkpt lat="49.76581" lon="5.60074">
        <ele>456.20001220703</ele>
        <time>2020-06-28T07:20:17.000Z</time>
      </trkpt>
      <trkpt lat="49.76579" lon="5.60074">
        <ele>456.39999389648</ele>
        <time>2020-06-28T07:20:18.000Z</time>
      </trkpt>
      <trkpt lat="49.76564" lon="5.60088">
        <ele>457.60000610352</ele>
        <time>2020-06-28T07:20:26.000Z</time>
      </trkpt>
      <trkpt lat="49.76571" lon="5.60112">
        <ele>455.79998779297</ele>
        <time>2020-06-28T07:20:31.000Z</time>
      </trkpt>
      <trkpt lat="49.76586" lon="5.60139">
        <ele>453.20001220703</ele>
        <time>2020-06-28T07:20:35.000Z</time>
      </trkpt>
      <trkpt lat="49.76598" lon="5.60164">
        <ele>451.20001220703</ele>
        <time>2020-06-28T07:20:38.000Z</time>
      </trkpt>
      <trkpt lat="49.76601" lon="5.60173">
        <ele>450.39999389648</ele>
        <time>2020-06-28T07:20:39.000Z</time>
      </trkpt>
      <trkpt lat="49.76604" lon="5.60182">
        <ele>449.79998779297</ele>
        <time>2020-06-28T07:20:40.000Z</time>
      </trkpt>
      <trkpt lat="49.76614" lon="5.60209">
        <ele>448.20001220703</ele>
        <time>2020-06-28T07:20:43.000Z</time>
      </trkpt>
      <trkpt lat="49.76617" lon="5.60218">
        <ele>447.20001220703</ele>
        <time>2020-06-28T07:20:44.000Z</time>
      </trkpt>
      <trkpt lat="49.7662" lon="5.60228">
        <ele>446.79998779297</ele>
        <time>2020-06-28T07:20:45.000Z</time>
      </trkpt>
      <trkpt lat="49.76627" lon="5.60259">
        <ele>445</ele>
        <time>2020-06-28T07:20:48.000Z</time>
      </trkpt>
      <trkpt lat="49.76629" lon="5.60269">
        <ele>444.39999389648</ele>
        <time>2020-06-28T07:20:49.000Z</time>
      </trkpt>
      <trkpt lat="49.76631" lon="5.60279">
        <ele>444</ele>
        <time>2020-06-28T07:20:50.000Z</time>
      </trkpt>
      <trkpt lat="49.76635" lon="5.60308">
        <ele>442.60000610352</ele>
        <time>2020-06-28T07:20:53.000Z</time>
      </trkpt>
      <trkpt lat="49.76636" lon="5.60317">
        <ele>442.20001220703</ele>
        <time>2020-06-28T07:20:54.000Z</time>
      </trkpt>
      <trkpt lat="49.76637" lon="5.60327">
        <ele>441.60000610352</ele>
        <time>2020-06-28T07:20:55.000Z</time>
      </trkpt>
      <trkpt lat="49.76641" lon="5.60355">
        <ele>439.60000610352</ele>
        <time>2020-06-28T07:20:58.000Z</time>
      </trkpt>
      <trkpt lat="49.76642" lon="5.60365">
        <ele>439</ele>
        <time>2020-06-28T07:20:59.000Z</time>
      </trkpt>
      <trkpt lat="49.76645" lon="5.60392">
        <ele>437.39999389648</ele>
        <time>2020-06-28T07:21:02.000Z</time>
      </trkpt>
      <trkpt lat="49.76646" lon="5.60401">
        <ele>437</ele>
        <time>2020-06-28T07:21:03.000Z</time>
      </trkpt>
      <trkpt lat="49.7665" lon="5.60436">
        <ele>433.20001220703</ele>
        <time>2020-06-28T07:21:07.000Z</time>
      </trkpt>
      <trkpt lat="49.76651" lon="5.60444">
        <ele>432.20001220703</ele>
        <time>2020-06-28T07:21:08.000Z</time>
      </trkpt>
      <trkpt lat="49.76655" lon="5.60475">
        <ele>428.60000610352</ele>
        <time>2020-06-28T07:21:12.000Z</time>
      </trkpt>
      <trkpt lat="49.76657" lon="5.60491">
        <ele>428.39999389648</ele>
        <time>2020-06-28T07:21:14.000Z</time>
      </trkpt>
      <trkpt lat="49.76659" lon="5.60522">
        <ele>426.79998779297</ele>
        <time>2020-06-28T07:21:18.000Z</time>
      </trkpt>
      <trkpt lat="49.76657" lon="5.60556">
        <ele>424.20001220703</ele>
        <time>2020-06-28T07:21:23.000Z</time>
      </trkpt>
      <trkpt lat="49.76653" lon="5.6059">
        <ele>423.79998779297</ele>
        <time>2020-06-28T07:21:28.000Z</time>
      </trkpt>
      <trkpt lat="49.76653" lon="5.60597">
        <ele>423.39999389648</ele>
        <time>2020-06-28T07:21:29.000Z</time>
      </trkpt>
      <trkpt lat="49.76652" lon="5.60609">
        <ele>422.60000610352</ele>
        <time>2020-06-28T07:21:31.000Z</time>
      </trkpt>
      <trkpt lat="49.76648" lon="5.60637">
        <ele>420.39999389648</ele>
        <time>2020-06-28T07:21:35.000Z</time>
      </trkpt>
      <trkpt lat="49.76646" lon="5.60646">
        <ele>420</ele>
        <time>2020-06-28T07:21:36.000Z</time>
      </trkpt>
      <trkpt lat="49.76645" lon="5.60656">
        <ele>419.60000610352</ele>
        <time>2020-06-28T07:21:37.000Z</time>
      </trkpt>
      <trkpt lat="49.76642" lon="5.60684">
        <ele>418.20001220703</ele>
        <time>2020-06-28T07:21:40.000Z</time>
      </trkpt>
      <trkpt lat="49.76638" lon="5.60716">
        <ele>416.60000610352</ele>
        <time>2020-06-28T07:21:43.000Z</time>
      </trkpt>
      <trkpt lat="49.76636" lon="5.60727">
        <ele>416</ele>
        <time>2020-06-28T07:21:44.000Z</time>
      </trkpt>
      <trkpt lat="49.76633" lon="5.60757">
        <ele>414.79998779297</ele>
        <time>2020-06-28T07:21:47.000Z</time>
      </trkpt>
      <trkpt lat="49.76632" lon="5.60769">
        <ele>414.60000610352</ele>
        <time>2020-06-28T07:21:48.000Z</time>
      </trkpt>
      <trkpt lat="49.76632" lon="5.60804">
        <ele>413.79998779297</ele>
        <time>2020-06-28T07:21:51.000Z</time>
      </trkpt>
      <trkpt lat="49.76634" lon="5.60839">
        <ele>413.39999389648</ele>
        <time>2020-06-28T07:21:54.000Z</time>
      </trkpt>
      <trkpt lat="49.76635" lon="5.60876">
        <ele>413.20001220703</ele>
        <time>2020-06-28T07:21:57.000Z</time>
      </trkpt>
      <trkpt lat="49.76637" lon="5.60888">
        <ele>412.79998779297</ele>
        <time>2020-06-28T07:21:58.000Z</time>
      </trkpt>
      <trkpt lat="49.76645" lon="5.6092">
        <ele>410.39999389648</ele>
        <time>2020-06-28T07:22:01.000Z</time>
      </trkpt>
      <trkpt lat="49.7666" lon="5.60942">
        <ele>409.39999389648</ele>
        <time>2020-06-28T07:22:04.000Z</time>
      </trkpt>
      <trkpt lat="49.76666" lon="5.60949">
        <ele>409</ele>
        <time>2020-06-28T07:22:05.000Z</time>
      </trkpt>
      <trkpt lat="49.76677" lon="5.60961">
        <ele>408.60000610352</ele>
        <time>2020-06-28T07:22:07.000Z</time>
      </trkpt>
      <trkpt lat="49.76693" lon="5.60979">
        <ele>407.60000610352</ele>
        <time>2020-06-28T07:22:10.000Z</time>
      </trkpt>
      <trkpt lat="49.76698" lon="5.60985">
        <ele>407.20001220703</ele>
        <time>2020-06-28T07:22:11.000Z</time>
      </trkpt>
      <trkpt lat="49.76714" lon="5.61006">
        <ele>405.39999389648</ele>
        <time>2020-06-28T07:22:15.000Z</time>
      </trkpt>
      <trkpt lat="49.76699" lon="5.61015">
        <ele>404.39999389648</ele>
        <time>2020-06-28T07:22:22.000Z</time>
      </trkpt>
      <trkpt lat="49.76686" lon="5.61014">
        <ele>404</ele>
        <time>2020-06-28T07:22:25.000Z</time>
      </trkpt>
      <trkpt lat="49.76681" lon="5.61013">
        <ele>403.79998779297</ele>
        <time>2020-06-28T07:22:26.000Z</time>
      </trkpt>
      <trkpt lat="49.76665" lon="5.61012">
        <ele>403.39999389648</ele>
        <time>2020-06-28T07:22:30.000Z</time>
      </trkpt>
      <trkpt lat="49.76656" lon="5.61012">
        <ele>403.20001220703</ele>
        <time>2020-06-28T07:22:32.000Z</time>
      </trkpt>
      <trkpt lat="49.76648" lon="5.61012">
        <ele>403</ele>
        <time>2020-06-28T07:22:34.000Z</time>
      </trkpt>
      <trkpt lat="49.76627" lon="5.61013">
        <ele>402.39999389648</ele>
        <time>2020-06-28T07:22:39.000Z</time>
      </trkpt>
      <trkpt lat="49.76623" lon="5.61013">
        <ele>402.39999389648</ele>
        <time>2020-06-28T07:22:40.000Z</time>
      </trkpt>
      <trkpt lat="49.76608" lon="5.61013">
        <ele>402</ele>
        <time>2020-06-28T07:22:43.000Z</time>
      </trkpt>
      <trkpt lat="49.76598" lon="5.61014">
        <ele>402</ele>
        <time>2020-06-28T07:22:45.000Z</time>
      </trkpt>
      <trkpt lat="49.76589" lon="5.61014">
        <ele>401.79998779297</ele>
        <time>2020-06-28T07:22:47.000Z</time>
      </trkpt>
      <trkpt lat="49.76579" lon="5.61014">
        <ele>401.60000610352</ele>
        <time>2020-06-28T07:22:49.000Z</time>
      </trkpt>
      <trkpt lat="49.76557" lon="5.61018">
        <ele>401.20001220703</ele>
        <time>2020-06-28T07:22:53.000Z</time>
      </trkpt>
      <trkpt lat="49.76546" lon="5.61021">
        <ele>400.60000610352</ele>
        <time>2020-06-28T07:22:55.000Z</time>
      </trkpt>
      <trkpt lat="49.76526" lon="5.61028">
        <ele>401</ele>
        <time>2020-06-28T07:22:59.000Z</time>
      </trkpt>
      <trkpt lat="49.76511" lon="5.6103">
        <ele>402.20001220703</ele>
        <time>2020-06-28T07:23:02.000Z</time>
      </trkpt>
      <trkpt lat="49.76489" lon="5.6102">
        <ele>405.20001220703</ele>
        <time>2020-06-28T07:23:06.000Z</time>
      </trkpt>
      <trkpt lat="49.76477" lon="5.61014">
        <ele>406.79998779297</ele>
        <time>2020-06-28T07:23:08.000Z</time>
      </trkpt>
      <trkpt lat="49.76466" lon="5.61007">
        <ele>408.39999389648</ele>
        <time>2020-06-28T07:23:10.000Z</time>
      </trkpt>
      <trkpt lat="49.76445" lon="5.60995">
        <ele>410.20001220703</ele>
        <time>2020-06-28T07:23:14.000Z</time>
      </trkpt>
      <trkpt lat="49.76426" lon="5.60989">
        <ele>410.20001220703</ele>
        <time>2020-06-28T07:23:18.000Z</time>
      </trkpt>
      <trkpt lat="49.76416" lon="5.60986">
        <ele>410</ele>
        <time>2020-06-28T07:23:20.000Z</time>
      </trkpt>
      <trkpt lat="49.76405" lon="5.60984">
        <ele>409.79998779297</ele>
        <time>2020-06-28T07:23:22.000Z</time>
      </trkpt>
      <trkpt lat="49.76384" lon="5.60981">
        <ele>409.60000610352</ele>
        <time>2020-06-28T07:23:26.000Z</time>
      </trkpt>
      <trkpt lat="49.76362" lon="5.6098">
        <ele>409.39999389648</ele>
        <time>2020-06-28T07:23:30.000Z</time>
      </trkpt>
      <trkpt lat="49.76339" lon="5.60981">
        <ele>409.20001220703</ele>
        <time>2020-06-28T07:23:34.000Z</time>
      </trkpt>
      <trkpt lat="49.76316" lon="5.60978">
        <ele>409</ele>
        <time>2020-06-28T07:23:38.000Z</time>
      </trkpt>
      <trkpt lat="49.7631" lon="5.60977">
        <ele>409</ele>
        <time>2020-06-28T07:23:39.000Z</time>
      </trkpt>
      <trkpt lat="49.76292" lon="5.60976">
        <ele>409</ele>
        <time>2020-06-28T07:23:42.000Z</time>
      </trkpt>
      <trkpt lat="49.76273" lon="5.60974">
        <ele>409.39999389648</ele>
        <time>2020-06-28T07:23:45.000Z</time>
      </trkpt>
      <trkpt lat="49.76267" lon="5.60974">
        <ele>409.39999389648</ele>
        <time>2020-06-28T07:23:46.000Z</time>
      </trkpt>
      <trkpt lat="49.76249" lon="5.60973">
        <ele>410</ele>
        <time>2020-06-28T07:23:49.000Z</time>
      </trkpt>
      <trkpt lat="49.76231" lon="5.60973">
        <ele>410.39999389648</ele>
        <time>2020-06-28T07:23:52.000Z</time>
      </trkpt>
      <trkpt lat="49.76225" lon="5.60973">
        <ele>410.60000610352</ele>
        <time>2020-06-28T07:23:53.000Z</time>
      </trkpt>
      <trkpt lat="49.76212" lon="5.60973">
        <ele>410.79998779297</ele>
        <time>2020-06-28T07:23:55.000Z</time>
      </trkpt>
      <trkpt lat="49.76189" lon="5.60976">
        <ele>410.60000610352</ele>
        <time>2020-06-28T07:23:59.000Z</time>
      </trkpt>
      <trkpt lat="49.76171" lon="5.60981">
        <ele>410.20001220703</ele>
        <time>2020-06-28T07:24:02.000Z</time>
      </trkpt>
      <trkpt lat="49.76166" lon="5.60982">
        <ele>410</ele>
        <time>2020-06-28T07:24:03.000Z</time>
      </trkpt>
      <trkpt lat="49.76147" lon="5.60985">
        <ele>409.60000610352</ele>
        <time>2020-06-28T07:24:06.000Z</time>
      </trkpt>
      <trkpt lat="49.76141" lon="5.60985">
        <ele>409.39999389648</ele>
        <time>2020-06-28T07:24:07.000Z</time>
      </trkpt>
      <trkpt lat="49.76129" lon="5.60984">
        <ele>409.79998779297</ele>
        <time>2020-06-28T07:24:09.000Z</time>
      </trkpt>
      <trkpt lat="49.76105" lon="5.60985">
        <ele>410</ele>
        <time>2020-06-28T07:24:13.000Z</time>
      </trkpt>
      <trkpt lat="49.76086" lon="5.60987">
        <ele>409.79998779297</ele>
        <time>2020-06-28T07:24:16.000Z</time>
      </trkpt>
      <trkpt lat="49.76074" lon="5.60989">
        <ele>409.60000610352</ele>
        <time>2020-06-28T07:24:18.000Z</time>
      </trkpt>
      <trkpt lat="49.76069" lon="5.6099">
        <ele>409.60000610352</ele>
        <time>2020-06-28T07:24:19.000Z</time>
      </trkpt>
      <trkpt lat="49.7605" lon="5.60992">
        <ele>409.79998779297</ele>
        <time>2020-06-28T07:24:23.000Z</time>
      </trkpt>
      <trkpt lat="49.76031" lon="5.6099">
        <ele>410</ele>
        <time>2020-06-28T07:24:27.000Z</time>
      </trkpt>
      <trkpt lat="49.76016" lon="5.60982">
        <ele>409.39999389648</ele>
        <time>2020-06-28T07:24:30.000Z</time>
      </trkpt>
      <trkpt lat="49.76" lon="5.60966">
        <ele>407.79998779297</ele>
        <time>2020-06-28T07:24:34.000Z</time>
      </trkpt>
      <trkpt lat="49.75985" lon="5.6095">
        <ele>407.39999389648</ele>
        <time>2020-06-28T07:24:37.000Z</time>
      </trkpt>
      <trkpt lat="49.7598" lon="5.60944">
        <ele>407.20001220703</ele>
        <time>2020-06-28T07:24:38.000Z</time>
      </trkpt>
      <trkpt lat="49.7596" lon="5.60931">
        <ele>407</ele>
        <time>2020-06-28T07:24:42.000Z</time>
      </trkpt>
      <trkpt lat="49.75956" lon="5.60931">
        <ele>407.20001220703</ele>
        <time>2020-06-28T07:24:43.000Z</time>
      </trkpt>
      <trkpt lat="49.75952" lon="5.6093">
        <ele>407.20001220703</ele>
        <time>2020-06-28T07:24:44.000Z</time>
      </trkpt>
      <trkpt lat="49.75938" lon="5.60923">
        <ele>407</ele>
        <time>2020-06-28T07:24:48.000Z</time>
      </trkpt>
      <trkpt lat="49.75919" lon="5.60912">
        <ele>406.79998779297</ele>
        <time>2020-06-28T07:24:54.000Z</time>
      </trkpt>
      <trkpt lat="49.75915" lon="5.60909">
        <ele>406.60000610352</ele>
        <time>2020-06-28T07:24:55.000Z</time>
      </trkpt>
      <trkpt lat="49.75911" lon="5.60906">
        <ele>406.60000610352</ele>
        <time>2020-06-28T07:24:56.000Z</time>
      </trkpt>
      <trkpt lat="49.7589" lon="5.60896">
        <ele>406.20001220703</ele>
        <time>2020-06-28T07:25:00.000Z</time>
      </trkpt>
      <trkpt lat="49.75867" lon="5.60895">
        <ele>406.79998779297</ele>
        <time>2020-06-28T07:25:05.000Z</time>
      </trkpt>
      <trkpt lat="49.75851" lon="5.60895">
        <ele>409.79998779297</ele>
        <time>2020-06-28T07:25:08.000Z</time>
      </trkpt>
      <trkpt lat="49.75845" lon="5.60896">
        <ele>410.79998779297</ele>
        <time>2020-06-28T07:25:09.000Z</time>
      </trkpt>
      <trkpt lat="49.75833" lon="5.609">
        <ele>413</ele>
        <time>2020-06-28T07:25:13.000Z</time>
      </trkpt>
      <trkpt lat="49.75831" lon="5.60901">
        <ele>413.39999389648</ele>
        <time>2020-06-28T07:25:14.000Z</time>
      </trkpt>
      <trkpt lat="49.75822" lon="5.60909">
        <ele>415.20001220703</ele>
        <time>2020-06-28T07:25:20.000Z</time>
      </trkpt>
      <trkpt lat="49.75821" lon="5.60911">
        <ele>415.39999389648</ele>
        <time>2020-06-28T07:25:21.000Z</time>
      </trkpt>
      <trkpt lat="49.7581" lon="5.60938">
        <ele>415.39999389648</ele>
        <time>2020-06-28T07:25:27.000Z</time>
      </trkpt>
      <trkpt lat="49.75801" lon="5.60949">
        <ele>415.60000610352</ele>
        <time>2020-06-28T07:25:30.000Z</time>
      </trkpt>
      <trkpt lat="49.75798" lon="5.60953">
        <ele>415.79998779297</ele>
        <time>2020-06-28T07:25:31.000Z</time>
      </trkpt>
      <trkpt lat="49.75789" lon="5.60964">
        <ele>416.20001220703</ele>
        <time>2020-06-28T07:25:34.000Z</time>
      </trkpt>
      <trkpt lat="49.7578" lon="5.60989">
        <ele>416.60000610352</ele>
        <time>2020-06-28T07:25:44.000Z</time>
      </trkpt>
      <trkpt lat="49.75768" lon="5.61018">
        <ele>417.79998779297</ele>
        <time>2020-06-28T07:25:50.000Z</time>
      </trkpt>
      <trkpt lat="49.7576" lon="5.61039">
        <ele>417.20001220703</ele>
        <time>2020-06-28T07:25:53.000Z</time>
      </trkpt>
      <trkpt lat="49.75756" lon="5.61052">
        <ele>416.39999389648</ele>
        <time>2020-06-28T07:25:55.000Z</time>
      </trkpt>
      <trkpt lat="49.75744" lon="5.61081">
        <ele>414.39999389648</ele>
        <time>2020-06-28T07:26:00.000Z</time>
      </trkpt>
      <trkpt lat="49.75742" lon="5.61087">
        <ele>414</ele>
        <time>2020-06-28T07:26:01.000Z</time>
      </trkpt>
      <trkpt lat="49.75731" lon="5.61113">
        <ele>409.60000610352</ele>
        <time>2020-06-28T07:26:06.000Z</time>
      </trkpt>
      <trkpt lat="49.7572" lon="5.61126">
        <ele>407.60000610352</ele>
        <time>2020-06-28T07:26:09.000Z</time>
      </trkpt>
      <trkpt lat="49.75717" lon="5.61131">
        <ele>407</ele>
        <time>2020-06-28T07:26:10.000Z</time>
      </trkpt>
      <trkpt lat="49.757" lon="5.61146">
        <ele>406.39999389648</ele>
        <time>2020-06-28T07:26:15.000Z</time>
      </trkpt>
      <trkpt lat="49.7569" lon="5.61153">
        <ele>406</ele>
        <time>2020-06-28T07:26:19.000Z</time>
      </trkpt>
      <trkpt lat="49.75685" lon="5.61155">
        <ele>405.79998779297</ele>
        <time>2020-06-28T07:26:21.000Z</time>
      </trkpt>
      <trkpt lat="49.75681" lon="5.61157">
        <ele>405.79998779297</ele>
        <time>2020-06-28T07:26:23.000Z</time>
      </trkpt>
      <trkpt lat="49.75676" lon="5.6116">
        <ele>405.39999389648</ele>
        <time>2020-06-28T07:26:26.000Z</time>
      </trkpt>
      <trkpt lat="49.7567" lon="5.61167">
        <ele>405</ele>
        <time>2020-06-28T07:26:35.000Z</time>
      </trkpt>
      <trkpt lat="49.75664" lon="5.61173">
        <ele>404.79998779297</ele>
        <time>2020-06-28T07:26:52.000Z</time>
      </trkpt>
      <trkpt lat="49.75655" lon="5.61173">
        <ele>405.20001220703</ele>
        <time>2020-06-28T07:26:55.000Z</time>
      </trkpt>
      <trkpt lat="49.75637" lon="5.61169">
        <ele>407.20001220703</ele>
        <time>2020-06-28T07:27:03.000Z</time>
      </trkpt>
      <trkpt lat="49.75619" lon="5.61165">
        <ele>408.60000610352</ele>
        <time>2020-06-28T07:27:13.000Z</time>
      </trkpt>
      <trkpt lat="49.75612" lon="5.61159">
        <ele>408</ele>
        <time>2020-06-28T07:27:15.000Z</time>
      </trkpt>
      <trkpt lat="49.75608" lon="5.61156">
        <ele>407.60000610352</ele>
        <time>2020-06-28T07:27:16.000Z</time>
      </trkpt>
      <trkpt lat="49.75588" lon="5.61146">
        <ele>406</ele>
        <time>2020-06-28T07:27:21.000Z</time>
      </trkpt>
      <trkpt lat="49.75581" lon="5.61143">
        <ele>405.60000610352</ele>
        <time>2020-06-28T07:27:23.000Z</time>
      </trkpt>
      <trkpt lat="49.75563" lon="5.61132">
        <ele>404.39999389648</ele>
        <time>2020-06-28T07:27:29.000Z</time>
      </trkpt>
      <trkpt lat="49.7556" lon="5.6113">
        <ele>404.20001220703</ele>
        <time>2020-06-28T07:27:30.000Z</time>
      </trkpt>
      <trkpt lat="49.75557" lon="5.61128">
        <ele>404.20001220703</ele>
        <time>2020-06-28T07:27:31.000Z</time>
      </trkpt>
      <trkpt lat="49.75551" lon="5.61124">
        <ele>404</ele>
        <time>2020-06-28T07:27:33.000Z</time>
      </trkpt>
      <trkpt lat="49.75534" lon="5.61113">
        <ele>403.60000610352</ele>
        <time>2020-06-28T07:27:39.000Z</time>
      </trkpt>
      <trkpt lat="49.75531" lon="5.61111">
        <ele>403.39999389648</ele>
        <time>2020-06-28T07:27:40.000Z</time>
      </trkpt>
      <trkpt lat="49.75525" lon="5.61107">
        <ele>403.20001220703</ele>
        <time>2020-06-28T07:27:42.000Z</time>
      </trkpt>
      <trkpt lat="49.75508" lon="5.61097">
        <ele>402.60000610352</ele>
        <time>2020-06-28T07:27:48.000Z</time>
      </trkpt>
      <trkpt lat="49.75505" lon="5.61095">
        <ele>402.39999389648</ele>
        <time>2020-06-28T07:27:49.000Z</time>
      </trkpt>
      <trkpt lat="49.75485" lon="5.61089">
        <ele>401.60000610352</ele>
        <time>2020-06-28T07:27:54.000Z</time>
      </trkpt>
      <trkpt lat="49.75467" lon="5.61082">
        <ele>400.79998779297</ele>
        <time>2020-06-28T07:27:58.000Z</time>
      </trkpt>
      <trkpt lat="49.75463" lon="5.6108">
        <ele>400.79998779297</ele>
        <time>2020-06-28T07:27:59.000Z</time>
      </trkpt>
      <trkpt lat="49.75453" lon="5.61071">
        <ele>400.60000610352</ele>
        <time>2020-06-28T07:28:02.000Z</time>
      </trkpt>
      <trkpt lat="49.75444" lon="5.61048">
        <ele>402.79998779297</ele>
        <time>2020-06-28T07:28:07.000Z</time>
      </trkpt>
      <trkpt lat="49.75443" lon="5.61039">
        <ele>404.20001220703</ele>
        <time>2020-06-28T07:28:09.000Z</time>
      </trkpt>
      <trkpt lat="49.75442" lon="5.61035">
        <ele>404.79998779297</ele>
        <time>2020-06-28T07:28:10.000Z</time>
      </trkpt>
      <trkpt lat="49.7544" lon="5.61004">
        <ele>408.20001220703</ele>
        <time>2020-06-28T07:28:17.000Z</time>
      </trkpt>
      <trkpt lat="49.7544" lon="5.60999">
        <ele>408.79998779297</ele>
        <time>2020-06-28T07:28:18.000Z</time>
      </trkpt>
      <trkpt lat="49.75439" lon="5.60994">
        <ele>409.20001220703</ele>
        <time>2020-06-28T07:28:19.000Z</time>
      </trkpt>
      <trkpt lat="49.75444" lon="5.60966">
        <ele>411</ele>
        <time>2020-06-28T07:28:26.000Z</time>
      </trkpt>
      <trkpt lat="49.75449" lon="5.60937">
        <ele>413.20001220703</ele>
        <time>2020-06-28T07:28:34.000Z</time>
      </trkpt>
      <trkpt lat="49.75451" lon="5.60927">
        <ele>414</ele>
        <time>2020-06-28T07:28:37.000Z</time>
      </trkpt>
      <trkpt lat="49.75451" lon="5.60924">
        <ele>414.39999389648</ele>
        <time>2020-06-28T07:28:38.000Z</time>
      </trkpt>
      <trkpt lat="49.75452" lon="5.60896">
        <ele>417.20001220703</ele>
        <time>2020-06-28T07:28:46.000Z</time>
      </trkpt>
      <trkpt lat="49.75453" lon="5.60893">
        <ele>417.39999389648</ele>
        <time>2020-06-28T07:28:47.000Z</time>
      </trkpt>
      <trkpt lat="49.75456" lon="5.60863">
        <ele>420</ele>
        <time>2020-06-28T07:28:59.000Z</time>
      </trkpt>
      <trkpt lat="49.75462" lon="5.60845">
        <ele>422.39999389648</ele>
        <time>2020-06-28T07:29:07.000Z</time>
      </trkpt>
      <trkpt lat="49.75463" lon="5.60842">
        <ele>422.79998779297</ele>
        <time>2020-06-28T07:29:08.000Z</time>
      </trkpt>
      <trkpt lat="49.75464" lon="5.60826">
        <ele>424.20001220703</ele>
        <time>2020-06-28T07:29:13.000Z</time>
      </trkpt>
      <trkpt lat="49.75463" lon="5.60823">
        <ele>424.60000610352</ele>
        <time>2020-06-28T07:29:14.000Z</time>
      </trkpt>
      <trkpt lat="49.75461" lon="5.60791">
        <ele>426.79998779297</ele>
        <time>2020-06-28T07:29:21.000Z</time>
      </trkpt>
      <trkpt lat="49.75453" lon="5.60762">
        <ele>428.39999389648</ele>
        <time>2020-06-28T07:29:29.000Z</time>
      </trkpt>
      <trkpt lat="49.75451" lon="5.60734">
        <ele>431.20001220703</ele>
        <time>2020-06-28T07:29:38.000Z</time>
      </trkpt>
      <trkpt lat="49.75447" lon="5.60719">
        <ele>433.20001220703</ele>
        <time>2020-06-28T07:29:43.000Z</time>
      </trkpt>
      <trkpt lat="49.75438" lon="5.60695">
        <ele>436.20001220703</ele>
        <time>2020-06-28T07:29:51.000Z</time>
      </trkpt>
      <trkpt lat="49.75437" lon="5.60692">
        <ele>436.60000610352</ele>
        <time>2020-06-28T07:29:52.000Z</time>
      </trkpt>
      <trkpt lat="49.75437" lon="5.60688">
        <ele>436.79998779297</ele>
        <time>2020-06-28T07:29:53.000Z</time>
      </trkpt>
      <trkpt lat="49.75436" lon="5.6066">
        <ele>439</ele>
        <time>2020-06-28T07:30:02.000Z</time>
      </trkpt>
      <trkpt lat="49.75435" lon="5.60636">
        <ele>441</ele>
        <time>2020-06-28T07:30:10.000Z</time>
      </trkpt>
      <trkpt lat="49.75435" lon="5.60633">
        <ele>441</ele>
        <time>2020-06-28T07:30:11.000Z</time>
      </trkpt>
      <trkpt lat="49.75427" lon="5.60606">
        <ele>443</ele>
        <time>2020-06-28T07:30:20.000Z</time>
      </trkpt>
      <trkpt lat="49.75422" lon="5.60577">
        <ele>445.20001220703</ele>
        <time>2020-06-28T07:30:30.000Z</time>
      </trkpt>
      <trkpt lat="49.75422" lon="5.60549">
        <ele>447</ele>
        <time>2020-06-28T07:30:37.000Z</time>
      </trkpt>
      <trkpt lat="49.75423" lon="5.60544">
        <ele>447</ele>
        <time>2020-06-28T07:30:38.000Z</time>
      </trkpt>
      <trkpt lat="49.75429" lon="5.60515">
        <ele>447.39999389648</ele>
        <time>2020-06-28T07:30:44.000Z</time>
      </trkpt>
      <trkpt lat="49.75432" lon="5.60488">
        <ele>448</ele>
        <time>2020-06-28T07:30:50.000Z</time>
      </trkpt>
      <trkpt lat="49.75432" lon="5.60473">
        <ele>448.60000610352</ele>
        <time>2020-06-28T07:30:53.000Z</time>
      </trkpt>
      <trkpt lat="49.75431" lon="5.60468">
        <ele>448.79998779297</ele>
        <time>2020-06-28T07:30:54.000Z</time>
      </trkpt>
      <trkpt lat="49.75426" lon="5.60438">
        <ele>451.20001220703</ele>
        <time>2020-06-28T07:31:01.000Z</time>
      </trkpt>
      <trkpt lat="49.75421" lon="5.60409">
        <ele>453.20001220703</ele>
        <time>2020-06-28T07:31:08.000Z</time>
      </trkpt>
      <trkpt lat="49.75406" lon="5.60387">
        <ele>456.20001220703</ele>
        <time>2020-06-28T07:31:14.000Z</time>
      </trkpt>
      <trkpt lat="49.75397" lon="5.60361">
        <ele>457.79998779297</ele>
        <time>2020-06-28T07:31:20.000Z</time>
      </trkpt>
      <trkpt lat="49.75394" lon="5.60331">
        <ele>458.60000610352</ele>
        <time>2020-06-28T07:31:27.000Z</time>
      </trkpt>
      <trkpt lat="49.75394" lon="5.60327">
        <ele>458.60000610352</ele>
        <time>2020-06-28T07:31:28.000Z</time>
      </trkpt>
      <trkpt lat="49.75393" lon="5.60323">
        <ele>458.79998779297</ele>
        <time>2020-06-28T07:31:29.000Z</time>
      </trkpt>
      <trkpt lat="49.75393" lon="5.6031">
        <ele>459.79998779297</ele>
        <time>2020-06-28T07:31:33.000Z</time>
      </trkpt>
      <trkpt lat="49.75395" lon="5.60284">
        <ele>460</ele>
        <time>2020-06-28T07:31:41.000Z</time>
      </trkpt>
      <trkpt lat="49.754" lon="5.6028">
        <ele>459.60000610352</ele>
        <time>2020-06-28T07:31:45.000Z</time>
      </trkpt>
      <trkpt lat="49.75401" lon="5.6028">
        <ele>459.60000610352</ele>
        <time>2020-06-28T07:31:46.000Z</time>
      </trkpt>
      <trkpt lat="49.75415" lon="5.60273">
        <ele>458.60000610352</ele>
        <time>2020-06-28T07:31:55.000Z</time>
      </trkpt>
      <trkpt lat="49.75416" lon="5.60273">
        <ele>458.39999389648</ele>
        <time>2020-06-28T07:31:56.000Z</time>
      </trkpt>
      <trkpt lat="49.75424" lon="5.60269">
        <ele>458</ele>
        <time>2020-06-28T07:32:10.000Z</time>
      </trkpt>
      <trkpt lat="49.75428" lon="5.60259">
        <ele>458.39999389648</ele>
        <time>2020-06-28T07:32:38.000Z</time>
      </trkpt>
      <trkpt lat="49.75443" lon="5.60238">
        <ele>459.20001220703</ele>
        <time>2020-06-28T07:32:45.000Z</time>
      </trkpt>
      <trkpt lat="49.75455" lon="5.60212">
        <ele>460.39999389648</ele>
        <time>2020-06-28T07:32:52.000Z</time>
      </trkpt>
      <trkpt lat="49.75461" lon="5.60202">
        <ele>460.79998779297</ele>
        <time>2020-06-28T07:32:55.000Z</time>
      </trkpt>
      <trkpt lat="49.75462" lon="5.60198">
        <ele>461</ele>
        <time>2020-06-28T07:32:56.000Z</time>
      </trkpt>
      <trkpt lat="49.75465" lon="5.60169">
        <ele>462.39999389648</ele>
        <time>2020-06-28T07:33:04.000Z</time>
      </trkpt>
      <trkpt lat="49.7547" lon="5.6014">
        <ele>463.79998779297</ele>
        <time>2020-06-28T07:33:11.000Z</time>
      </trkpt>
      <trkpt lat="49.75462" lon="5.60115">
        <ele>464</ele>
        <time>2020-06-28T07:33:19.000Z</time>
      </trkpt>
      <trkpt lat="49.75461" lon="5.60112">
        <ele>464</ele>
        <time>2020-06-28T07:33:20.000Z</time>
      </trkpt>
      <trkpt lat="49.75452" lon="5.60098">
        <ele>463.79998779297</ele>
        <time>2020-06-28T07:33:24.000Z</time>
      </trkpt>
      <trkpt lat="49.75438" lon="5.60078">
        <ele>463.20001220703</ele>
        <time>2020-06-28T07:33:30.000Z</time>
      </trkpt>
      <trkpt lat="49.75436" lon="5.60074">
        <ele>463.20001220703</ele>
        <time>2020-06-28T07:33:31.000Z</time>
      </trkpt>
      <trkpt lat="49.7543" lon="5.60062">
        <ele>462.79998779297</ele>
        <time>2020-06-28T07:33:34.000Z</time>
      </trkpt>
      <trkpt lat="49.75417" lon="5.60041">
        <ele>461.79998779297</ele>
        <time>2020-06-28T07:33:39.000Z</time>
      </trkpt>
      <trkpt lat="49.75405" lon="5.60019">
        <ele>460.39999389648</ele>
        <time>2020-06-28T07:33:46.000Z</time>
      </trkpt>
      <trkpt lat="49.75403" lon="5.60015">
        <ele>460.20001220703</ele>
        <time>2020-06-28T07:33:47.000Z</time>
      </trkpt>
      <trkpt lat="49.75401" lon="5.6001">
        <ele>460</ele>
        <time>2020-06-28T07:33:48.000Z</time>
      </trkpt>
      <trkpt lat="49.75393" lon="5.59994">
        <ele>459</ele>
        <time>2020-06-28T07:33:51.000Z</time>
      </trkpt>
      <trkpt lat="49.75388" lon="5.59984">
        <ele>458.39999389648</ele>
        <time>2020-06-28T07:33:53.000Z</time>
      </trkpt>
      <trkpt lat="49.75381" lon="5.59969">
        <ele>457.39999389648</ele>
        <time>2020-06-28T07:33:56.000Z</time>
      </trkpt>
      <trkpt lat="49.75368" lon="5.59944">
        <ele>456.39999389648</ele>
        <time>2020-06-28T07:34:01.000Z</time>
      </trkpt>
      <trkpt lat="49.75355" lon="5.59928">
        <ele>456</ele>
        <time>2020-06-28T07:34:04.000Z</time>
      </trkpt>
      <trkpt lat="49.75351" lon="5.59923">
        <ele>456</ele>
        <time>2020-06-28T07:34:05.000Z</time>
      </trkpt>
      <trkpt lat="49.75336" lon="5.59904">
        <ele>455.39999389648</ele>
        <time>2020-06-28T07:34:09.000Z</time>
      </trkpt>
      <trkpt lat="49.75327" lon="5.59895">
        <ele>455.20001220703</ele>
        <time>2020-06-28T07:34:11.000Z</time>
      </trkpt>
      <trkpt lat="49.75323" lon="5.5989">
        <ele>455.20001220703</ele>
        <time>2020-06-28T07:34:12.000Z</time>
      </trkpt>
      <trkpt lat="49.75307" lon="5.59871">
        <ele>455.20001220703</ele>
        <time>2020-06-28T07:34:16.000Z</time>
      </trkpt>
      <trkpt lat="49.75304" lon="5.59866">
        <ele>455.20001220703</ele>
        <time>2020-06-28T07:34:17.000Z</time>
      </trkpt>
      <trkpt lat="49.753" lon="5.59862">
        <ele>455.20001220703</ele>
        <time>2020-06-28T07:34:18.000Z</time>
      </trkpt>
      <trkpt lat="49.75285" lon="5.59846">
        <ele>455.39999389648</ele>
        <time>2020-06-28T07:34:22.000Z</time>
      </trkpt>
      <trkpt lat="49.75278" lon="5.59839">
        <ele>455.60000610352</ele>
        <time>2020-06-28T07:34:24.000Z</time>
      </trkpt>
      <trkpt lat="49.75274" lon="5.59836">
        <ele>455.60000610352</ele>
        <time>2020-06-28T07:34:25.000Z</time>
      </trkpt>
      <trkpt lat="49.75258" lon="5.5982">
        <ele>455.79998779297</ele>
        <time>2020-06-28T07:34:29.000Z</time>
      </trkpt>
      <trkpt lat="49.75243" lon="5.598">
        <ele>456</ele>
        <time>2020-06-28T07:34:33.000Z</time>
      </trkpt>
      <trkpt lat="49.75239" lon="5.59796">
        <ele>456</ele>
        <time>2020-06-28T07:34:34.000Z</time>
      </trkpt>
      <trkpt lat="49.75235" lon="5.59791">
        <ele>455.79998779297</ele>
        <time>2020-06-28T07:34:35.000Z</time>
      </trkpt>
      <trkpt lat="49.75216" lon="5.59776">
        <ele>455.60000610352</ele>
        <time>2020-06-28T07:34:39.000Z</time>
      </trkpt>
      <trkpt lat="49.75207" lon="5.59769">
        <ele>455.60000610352</ele>
        <time>2020-06-28T07:34:41.000Z</time>
      </trkpt>
      <trkpt lat="49.75192" lon="5.5975">
        <ele>454.60000610352</ele>
        <time>2020-06-28T07:34:45.000Z</time>
      </trkpt>
      <trkpt lat="49.75187" lon="5.59745">
        <ele>454</ele>
        <time>2020-06-28T07:34:46.000Z</time>
      </trkpt>
      <trkpt lat="49.75182" lon="5.5974">
        <ele>453.60000610352</ele>
        <time>2020-06-28T07:34:47.000Z</time>
      </trkpt>
      <trkpt lat="49.75163" lon="5.59724">
        <ele>452</ele>
        <time>2020-06-28T07:34:51.000Z</time>
      </trkpt>
      <trkpt lat="49.75144" lon="5.59708">
        <ele>450.39999389648</ele>
        <time>2020-06-28T07:34:55.000Z</time>
      </trkpt>
      <trkpt lat="49.75127" lon="5.59693">
        <ele>448.79998779297</ele>
        <time>2020-06-28T07:34:59.000Z</time>
      </trkpt>
      <trkpt lat="49.75123" lon="5.59689">
        <ele>448.39999389648</ele>
        <time>2020-06-28T07:35:00.000Z</time>
      </trkpt>
      <trkpt lat="49.75119" lon="5.59685">
        <ele>448.20001220703</ele>
        <time>2020-06-28T07:35:01.000Z</time>
      </trkpt>
      <trkpt lat="49.75106" lon="5.59672">
        <ele>447.79998779297</ele>
        <time>2020-06-28T07:35:04.000Z</time>
      </trkpt>
      <trkpt lat="49.75101" lon="5.59668">
        <ele>447.79998779297</ele>
        <time>2020-06-28T07:35:05.000Z</time>
      </trkpt>
      <trkpt lat="49.75082" lon="5.59654">
        <ele>447.39999389648</ele>
        <time>2020-06-28T07:35:09.000Z</time>
      </trkpt>
      <trkpt lat="49.75063" lon="5.59637">
        <ele>447</ele>
        <time>2020-06-28T07:35:13.000Z</time>
      </trkpt>
      <trkpt lat="49.75059" lon="5.59634">
        <ele>447</ele>
        <time>2020-06-28T07:35:14.000Z</time>
      </trkpt>
      <trkpt lat="49.75041" lon="5.59615">
        <ele>447</ele>
        <time>2020-06-28T07:35:18.000Z</time>
      </trkpt>
      <trkpt lat="49.75024" lon="5.59596">
        <ele>446.60000610352</ele>
        <time>2020-06-28T07:35:22.000Z</time>
      </trkpt>
      <trkpt lat="49.7502" lon="5.59591">
        <ele>446.60000610352</ele>
        <time>2020-06-28T07:35:23.000Z</time>
      </trkpt>
      <trkpt lat="49.75007" lon="5.59578">
        <ele>446.20001220703</ele>
        <time>2020-06-28T07:35:26.000Z</time>
      </trkpt>
      <trkpt lat="49.74989" lon="5.59559">
        <ele>445.79998779297</ele>
        <time>2020-06-28T07:35:30.000Z</time>
      </trkpt>
      <trkpt lat="49.74985" lon="5.59554">
        <ele>445.79998779297</ele>
        <time>2020-06-28T07:35:31.000Z</time>
      </trkpt>
      <trkpt lat="49.7498" lon="5.5955">
        <ele>445.60000610352</ele>
        <time>2020-06-28T07:35:32.000Z</time>
      </trkpt>
      <trkpt lat="49.74965" lon="5.5953">
        <ele>445.60000610352</ele>
        <time>2020-06-28T07:35:36.000Z</time>
      </trkpt>
      <trkpt lat="49.74949" lon="5.59511">
        <ele>445.39999389648</ele>
        <time>2020-06-28T07:35:40.000Z</time>
      </trkpt>
      <trkpt lat="49.74946" lon="5.59506">
        <ele>445.39999389648</ele>
        <time>2020-06-28T07:35:41.000Z</time>
      </trkpt>
      <trkpt lat="49.74942" lon="5.59501">
        <ele>445.39999389648</ele>
        <time>2020-06-28T07:35:42.000Z</time>
      </trkpt>
      <trkpt lat="49.74921" lon="5.59479">
        <ele>445.39999389648</ele>
        <time>2020-06-28T07:35:46.000Z</time>
      </trkpt>
      <trkpt lat="49.74903" lon="5.59464">
        <ele>445.20001220703</ele>
        <time>2020-06-28T07:35:49.000Z</time>
      </trkpt>
      <trkpt lat="49.74886" lon="5.59446">
        <ele>444.60000610352</ele>
        <time>2020-06-28T07:35:52.000Z</time>
      </trkpt>
      <trkpt lat="49.74874" lon="5.59434">
        <ele>444.20001220703</ele>
        <time>2020-06-28T07:35:54.000Z</time>
      </trkpt>
      <trkpt lat="49.74864" lon="5.59421">
        <ele>443.79998779297</ele>
        <time>2020-06-28T07:35:56.000Z</time>
      </trkpt>
      <trkpt lat="49.74844" lon="5.59401">
        <ele>442.79998779297</ele>
        <time>2020-06-28T07:36:00.000Z</time>
      </trkpt>
      <trkpt lat="49.74829" lon="5.59385">
        <ele>442</ele>
        <time>2020-06-28T07:36:03.000Z</time>
      </trkpt>
      <trkpt lat="49.74824" lon="5.5938">
        <ele>441.60000610352</ele>
        <time>2020-06-28T07:36:04.000Z</time>
      </trkpt>
      <trkpt lat="49.74819" lon="5.59375">
        <ele>441.39999389648</ele>
        <time>2020-06-28T07:36:05.000Z</time>
      </trkpt>
      <trkpt lat="49.74804" lon="5.5936">
        <ele>440.39999389648</ele>
        <time>2020-06-28T07:36:08.000Z</time>
      </trkpt>
      <trkpt lat="49.74788" lon="5.59346">
        <ele>439.60000610352</ele>
        <time>2020-06-28T07:36:11.000Z</time>
      </trkpt>
      <trkpt lat="49.74771" lon="5.59332">
        <ele>438.39999389648</ele>
        <time>2020-06-28T07:36:14.000Z</time>
      </trkpt>
      <trkpt lat="49.7475" lon="5.5932">
        <ele>436.79998779297</ele>
        <time>2020-06-28T07:36:18.000Z</time>
      </trkpt>
      <trkpt lat="49.74745" lon="5.59318">
        <ele>436.60000610352</ele>
        <time>2020-06-28T07:36:19.000Z</time>
      </trkpt>
      <trkpt lat="49.74736" lon="5.59313">
        <ele>436</ele>
        <time>2020-06-28T07:36:21.000Z</time>
      </trkpt>
      <trkpt lat="49.74724" lon="5.59308">
        <ele>435.20001220703</ele>
        <time>2020-06-28T07:36:24.000Z</time>
      </trkpt>
      <trkpt lat="49.74703" lon="5.59302">
        <ele>434</ele>
        <time>2020-06-28T07:36:28.000Z</time>
      </trkpt>
      <trkpt lat="49.74684" lon="5.59293">
        <ele>434.79998779297</ele>
        <time>2020-06-28T07:36:33.000Z</time>
      </trkpt>
      <trkpt lat="49.74685" lon="5.59265">
        <ele>435.60000610352</ele>
        <time>2020-06-28T07:36:40.000Z</time>
      </trkpt>
      <trkpt lat="49.74693" lon="5.5924">
        <ele>435.79998779297</ele>
        <time>2020-06-28T07:36:45.000Z</time>
      </trkpt>
      <trkpt lat="49.74694" lon="5.59211">
        <ele>436.60000610352</ele>
        <time>2020-06-28T07:36:50.000Z</time>
      </trkpt>
      <trkpt lat="49.74694" lon="5.5918">
        <ele>438.20001220703</ele>
        <time>2020-06-28T07:36:54.000Z</time>
      </trkpt>
      <trkpt lat="49.74704" lon="5.59151">
        <ele>440</ele>
        <time>2020-06-28T07:36:58.000Z</time>
      </trkpt>
      <trkpt lat="49.74716" lon="5.59122">
        <ele>440.39999389648</ele>
        <time>2020-06-28T07:37:02.000Z</time>
      </trkpt>
      <trkpt lat="49.74723" lon="5.59088">
        <ele>440</ele>
        <time>2020-06-28T07:37:06.000Z</time>
      </trkpt>
      <trkpt lat="49.74725" lon="5.59071">
        <ele>440</ele>
        <time>2020-06-28T07:37:08.000Z</time>
      </trkpt>
      <trkpt lat="49.74725" lon="5.59062">
        <ele>440.20001220703</ele>
        <time>2020-06-28T07:37:09.000Z</time>
      </trkpt>
      <trkpt lat="49.74724" lon="5.59032">
        <ele>439.60000610352</ele>
        <time>2020-06-28T07:37:12.000Z</time>
      </trkpt>
      <trkpt lat="49.74714" lon="5.59">
        <ele>438.79998779297</ele>
        <time>2020-06-28T07:37:16.000Z</time>
      </trkpt>
      <trkpt lat="49.74703" lon="5.58969">
        <ele>438</ele>
        <time>2020-06-28T07:37:20.000Z</time>
      </trkpt>
      <trkpt lat="49.74699" lon="5.58962">
        <ele>438</ele>
        <time>2020-06-28T07:37:21.000Z</time>
      </trkpt>
      <trkpt lat="49.74696" lon="5.58955">
        <ele>437.79998779297</ele>
        <time>2020-06-28T07:37:22.000Z</time>
      </trkpt>
      <trkpt lat="49.74684" lon="5.58932">
        <ele>437.39999389648</ele>
        <time>2020-06-28T07:37:25.000Z</time>
      </trkpt>
      <trkpt lat="49.7467" lon="5.58906">
        <ele>437</ele>
        <time>2020-06-28T07:37:29.000Z</time>
      </trkpt>
      <trkpt lat="49.74654" lon="5.5889">
        <ele>437</ele>
        <time>2020-06-28T07:37:32.000Z</time>
      </trkpt>
      <trkpt lat="49.74649" lon="5.58884">
        <ele>437</ele>
        <time>2020-06-28T07:37:33.000Z</time>
      </trkpt>
      <trkpt lat="49.74639" lon="5.58869">
        <ele>436.39999389648</ele>
        <time>2020-06-28T07:37:35.000Z</time>
      </trkpt>
      <trkpt lat="49.74623" lon="5.58845">
        <ele>435.60000610352</ele>
        <time>2020-06-28T07:37:39.000Z</time>
      </trkpt>
      <trkpt lat="49.74617" lon="5.58833">
        <ele>435</ele>
        <time>2020-06-28T07:37:41.000Z</time>
      </trkpt>
      <trkpt lat="49.7461" lon="5.58806">
        <ele>433.39999389648</ele>
        <time>2020-06-28T07:37:45.000Z</time>
      </trkpt>
      <trkpt lat="49.74609" lon="5.58777">
        <ele>432.39999389648</ele>
        <time>2020-06-28T07:37:52.000Z</time>
      </trkpt>
      <trkpt lat="49.74603" lon="5.58764">
        <ele>432</ele>
        <time>2020-06-28T07:37:55.000Z</time>
      </trkpt>
      <trkpt lat="49.74584" lon="5.5875">
        <ele>431.79998779297</ele>
        <time>2020-06-28T07:38:00.000Z</time>
      </trkpt>
      <trkpt lat="49.74575" lon="5.58727">
        <ele>431.20001220703</ele>
        <time>2020-06-28T07:38:05.000Z</time>
      </trkpt>
      <trkpt lat="49.74561" lon="5.58702">
        <ele>431</ele>
        <time>2020-06-28T07:38:10.000Z</time>
      </trkpt>
      <trkpt lat="49.74555" lon="5.58675">
        <ele>431</ele>
        <time>2020-06-28T07:38:14.000Z</time>
      </trkpt>
      <trkpt lat="49.74549" lon="5.58647">
        <ele>431</ele>
        <time>2020-06-28T07:38:18.000Z</time>
      </trkpt>
      <trkpt lat="49.74547" lon="5.58618">
        <ele>430.39999389648</ele>
        <time>2020-06-28T07:38:22.000Z</time>
      </trkpt>
      <trkpt lat="49.74547" lon="5.58587">
        <ele>430</ele>
        <time>2020-06-28T07:38:26.000Z</time>
      </trkpt>
      <trkpt lat="49.74542" lon="5.58557">
        <ele>429.79998779297</ele>
        <time>2020-06-28T07:38:30.000Z</time>
      </trkpt>
      <trkpt lat="49.74532" lon="5.58531">
        <ele>428.60000610352</ele>
        <time>2020-06-28T07:38:34.000Z</time>
      </trkpt>
      <trkpt lat="49.74523" lon="5.58505">
        <ele>427</ele>
        <time>2020-06-28T07:38:38.000Z</time>
      </trkpt>
      <trkpt lat="49.74519" lon="5.58483">
        <ele>425.39999389648</ele>
        <time>2020-06-28T07:38:41.000Z</time>
      </trkpt>
      <trkpt lat="49.74518" lon="5.58476">
        <ele>425</ele>
        <time>2020-06-28T07:38:42.000Z</time>
      </trkpt>
      <trkpt lat="49.7451" lon="5.5845">
        <ele>424.60000610352</ele>
        <time>2020-06-28T07:38:47.000Z</time>
      </trkpt>
      <trkpt lat="49.74491" lon="5.58431">
        <ele>425.20001220703</ele>
        <time>2020-06-28T07:38:52.000Z</time>
      </trkpt>
      <trkpt lat="49.74476" lon="5.58414">
        <ele>425.39999389648</ele>
        <time>2020-06-28T07:38:56.000Z</time>
      </trkpt>
      <trkpt lat="49.74463" lon="5.58388">
        <ele>425.79998779297</ele>
        <time>2020-06-28T07:39:00.000Z</time>
      </trkpt>
      <trkpt lat="49.7446" lon="5.58383">
        <ele>425.79998779297</ele>
        <time>2020-06-28T07:39:01.000Z</time>
      </trkpt>
      <trkpt lat="49.74443" lon="5.58363">
        <ele>425.79998779297</ele>
        <time>2020-06-28T07:39:06.000Z</time>
      </trkpt>
      <trkpt lat="49.74423" lon="5.5835">
        <ele>425.60000610352</ele>
        <time>2020-06-28T07:39:11.000Z</time>
      </trkpt>
      <trkpt lat="49.74403" lon="5.58334">
        <ele>425.39999389648</ele>
        <time>2020-06-28T07:39:15.000Z</time>
      </trkpt>
      <trkpt lat="49.74383" lon="5.58323">
        <ele>425.39999389648</ele>
        <time>2020-06-28T07:39:19.000Z</time>
      </trkpt>
      <trkpt lat="49.74374" lon="5.58319">
        <ele>425.39999389648</ele>
        <time>2020-06-28T07:39:21.000Z</time>
      </trkpt>
      <trkpt lat="49.74355" lon="5.58312">
        <ele>424.79998779297</ele>
        <time>2020-06-28T07:39:26.000Z</time>
      </trkpt>
      <trkpt lat="49.74334" lon="5.58318">
        <ele>424.60000610352</ele>
        <time>2020-06-28T07:39:31.000Z</time>
      </trkpt>
      <trkpt lat="49.74317" lon="5.58335">
        <ele>424.60000610352</ele>
        <time>2020-06-28T07:39:35.000Z</time>
      </trkpt>
      <trkpt lat="49.74311" lon="5.58345">
        <ele>424.60000610352</ele>
        <time>2020-06-28T07:39:37.000Z</time>
      </trkpt>
      <trkpt lat="49.74302" lon="5.58357">
        <ele>424.60000610352</ele>
        <time>2020-06-28T07:39:40.000Z</time>
      </trkpt>
      <trkpt lat="49.74296" lon="5.58367">
        <ele>424.79998779297</ele>
        <time>2020-06-28T07:39:43.000Z</time>
      </trkpt>
      <trkpt lat="49.74289" lon="5.58377">
        <ele>424.79998779297</ele>
        <time>2020-06-28T07:39:46.000Z</time>
      </trkpt>
      <trkpt lat="49.74275" lon="5.58396">
        <ele>424</ele>
        <time>2020-06-28T07:39:51.000Z</time>
      </trkpt>
      <trkpt lat="49.74267" lon="5.58406">
        <ele>423.20001220703</ele>
        <time>2020-06-28T07:39:54.000Z</time>
      </trkpt>
      <trkpt lat="49.74264" lon="5.5841">
        <ele>423</ele>
        <time>2020-06-28T07:39:55.000Z</time>
      </trkpt>
      <trkpt lat="49.74259" lon="5.58418">
        <ele>422.60000610352</ele>
        <time>2020-06-28T07:39:57.000Z</time>
      </trkpt>
      <trkpt lat="49.74246" lon="5.58439">
        <ele>421</ele>
        <time>2020-06-28T07:40:01.000Z</time>
      </trkpt>
      <trkpt lat="49.74233" lon="5.58458">
        <ele>419.39999389648</ele>
        <time>2020-06-28T07:40:06.000Z</time>
      </trkpt>
      <trkpt lat="49.74232" lon="5.58462">
        <ele>419.20001220703</ele>
        <time>2020-06-28T07:40:07.000Z</time>
      </trkpt>
      <trkpt lat="49.74219" lon="5.58487">
        <ele>417.79998779297</ele>
        <time>2020-06-28T07:40:12.000Z</time>
      </trkpt>
      <trkpt lat="49.74206" lon="5.5851">
        <ele>417.60000610352</ele>
        <time>2020-06-28T07:40:15.000Z</time>
      </trkpt>
      <trkpt lat="49.74192" lon="5.58529">
        <ele>417.79998779297</ele>
        <time>2020-06-28T07:40:17.000Z</time>
      </trkpt>
      <trkpt lat="49.74179" lon="5.58554">
        <ele>418.79998779297</ele>
        <time>2020-06-28T07:40:20.000Z</time>
      </trkpt>
      <trkpt lat="49.74165" lon="5.58576">
        <ele>420.39999389648</ele>
        <time>2020-06-28T07:40:23.000Z</time>
      </trkpt>
      <trkpt lat="49.74149" lon="5.586">
        <ele>421.60000610352</ele>
        <time>2020-06-28T07:40:26.000Z</time>
      </trkpt>
      <trkpt lat="49.74145" lon="5.58608">
        <ele>421.60000610352</ele>
        <time>2020-06-28T07:40:27.000Z</time>
      </trkpt>
      <trkpt lat="49.7413" lon="5.58631">
        <ele>422</ele>
        <time>2020-06-28T07:40:30.000Z</time>
      </trkpt>
      <trkpt lat="49.74126" lon="5.58638">
        <ele>422</ele>
        <time>2020-06-28T07:40:31.000Z</time>
      </trkpt>
      <trkpt lat="49.74114" lon="5.58658">
        <ele>422.39999389648</ele>
        <time>2020-06-28T07:40:34.000Z</time>
      </trkpt>
      <trkpt lat="49.74106" lon="5.58669">
        <ele>422.60000610352</ele>
        <time>2020-06-28T07:40:36.000Z</time>
      </trkpt>
      <trkpt lat="49.74092" lon="5.58693">
        <ele>423</ele>
        <time>2020-06-28T07:40:40.000Z</time>
      </trkpt>
      <trkpt lat="49.74087" lon="5.58704">
        <ele>422.60000610352</ele>
        <time>2020-06-28T07:40:42.000Z</time>
      </trkpt>
      <trkpt lat="49.74084" lon="5.58709">
        <ele>422.39999389648</ele>
        <time>2020-06-28T07:40:43.000Z</time>
      </trkpt>
      <trkpt lat="49.74072" lon="5.58729">
        <ele>422</ele>
        <time>2020-06-28T07:40:47.000Z</time>
      </trkpt>
      <trkpt lat="49.74057" lon="5.58753">
        <ele>421.39999389648</ele>
        <time>2020-06-28T07:40:53.000Z</time>
      </trkpt>
      <trkpt lat="49.74052" lon="5.58761">
        <ele>421</ele>
        <time>2020-06-28T07:40:55.000Z</time>
      </trkpt>
      <trkpt lat="49.74037" lon="5.58775">
        <ele>420</ele>
        <time>2020-06-28T07:40:59.000Z</time>
      </trkpt>
      <trkpt lat="49.7402" lon="5.58792">
        <ele>418.79998779297</ele>
        <time>2020-06-28T07:41:03.000Z</time>
      </trkpt>
      <trkpt lat="49.74016" lon="5.58797">
        <ele>418.60000610352</ele>
        <time>2020-06-28T07:41:04.000Z</time>
      </trkpt>
      <trkpt lat="49.74003" lon="5.58808">
        <ele>417.79998779297</ele>
        <time>2020-06-28T07:41:07.000Z</time>
      </trkpt>
      <trkpt lat="49.73988" lon="5.5882">
        <ele>416.79998779297</ele>
        <time>2020-06-28T07:41:10.000Z</time>
      </trkpt>
      <trkpt lat="49.73983" lon="5.58824">
        <ele>416.39999389648</ele>
        <time>2020-06-28T07:41:11.000Z</time>
      </trkpt>
      <trkpt lat="49.73964" lon="5.58839">
        <ele>415.79998779297</ele>
        <time>2020-06-28T07:41:15.000Z</time>
      </trkpt>
      <trkpt lat="49.73944" lon="5.58859">
        <ele>415.20001220703</ele>
        <time>2020-06-28T07:41:19.000Z</time>
      </trkpt>
      <trkpt lat="49.73939" lon="5.58864">
        <ele>415</ele>
        <time>2020-06-28T07:41:20.000Z</time>
      </trkpt>
      <trkpt lat="49.7393" lon="5.58874">
        <ele>414.60000610352</ele>
        <time>2020-06-28T07:41:22.000Z</time>
      </trkpt>
      <trkpt lat="49.73912" lon="5.58892">
        <ele>413.20001220703</ele>
        <time>2020-06-28T07:41:26.000Z</time>
      </trkpt>
      <trkpt lat="49.73898" lon="5.58907">
        <ele>412</ele>
        <time>2020-06-28T07:41:29.000Z</time>
      </trkpt>
      <trkpt lat="49.73893" lon="5.58911">
        <ele>411.79998779297</ele>
        <time>2020-06-28T07:41:30.000Z</time>
      </trkpt>
      <trkpt lat="49.73873" lon="5.58929">
        <ele>411</ele>
        <time>2020-06-28T07:41:34.000Z</time>
      </trkpt>
      <trkpt lat="49.73853" lon="5.58949">
        <ele>410.79998779297</ele>
        <time>2020-06-28T07:41:38.000Z</time>
      </trkpt>
      <trkpt lat="49.73848" lon="5.58954">
        <ele>410.79998779297</ele>
        <time>2020-06-28T07:41:39.000Z</time>
      </trkpt>
      <trkpt lat="49.73838" lon="5.58967">
        <ele>411</ele>
        <time>2020-06-28T07:41:41.000Z</time>
      </trkpt>
      <trkpt lat="49.73822" lon="5.58989">
        <ele>411.20001220703</ele>
        <time>2020-06-28T07:41:44.000Z</time>
      </trkpt>
      <trkpt lat="49.73806" lon="5.59011">
        <ele>411.60000610352</ele>
        <time>2020-06-28T07:41:47.000Z</time>
      </trkpt>
      <trkpt lat="49.73801" lon="5.59018">
        <ele>411.60000610352</ele>
        <time>2020-06-28T07:41:48.000Z</time>
      </trkpt>
      <trkpt lat="49.73796" lon="5.59024">
        <ele>411.60000610352</ele>
        <time>2020-06-28T07:41:49.000Z</time>
      </trkpt>
      <trkpt lat="49.73783" lon="5.59041">
        <ele>412</ele>
        <time>2020-06-28T07:41:53.000Z</time>
      </trkpt>
      <trkpt lat="49.73778" lon="5.59045">
        <ele>412</ele>
        <time>2020-06-28T07:41:54.000Z</time>
      </trkpt>
      <trkpt lat="49.73762" lon="5.59054">
        <ele>412.20001220703</ele>
        <time>2020-06-28T07:41:59.000Z</time>
      </trkpt>
      <trkpt lat="49.73744" lon="5.59072">
        <ele>413.39999389648</ele>
        <time>2020-06-28T07:42:04.000Z</time>
      </trkpt>
      <trkpt lat="49.73741" lon="5.59076">
        <ele>413.79998779297</ele>
        <time>2020-06-28T07:42:05.000Z</time>
      </trkpt>
      <trkpt lat="49.73732" lon="5.59085">
        <ele>414.39999389648</ele>
        <time>2020-06-28T07:42:07.000Z</time>
      </trkpt>
      <trkpt lat="49.73722" lon="5.59113">
        <ele>415.79998779297</ele>
        <time>2020-06-28T07:42:11.000Z</time>
      </trkpt>
      <trkpt lat="49.73709" lon="5.5914">
        <ele>417.20001220703</ele>
        <time>2020-06-28T07:42:15.000Z</time>
      </trkpt>
      <trkpt lat="49.73703" lon="5.59155">
        <ele>416.79998779297</ele>
        <time>2020-06-28T07:42:17.000Z</time>
      </trkpt>
      <trkpt lat="49.73701" lon="5.59163">
        <ele>416.39999389648</ele>
        <time>2020-06-28T07:42:18.000Z</time>
      </trkpt>
      <trkpt lat="49.7369" lon="5.59192">
        <ele>415.39999389648</ele>
        <time>2020-06-28T07:42:22.000Z</time>
      </trkpt>
      <trkpt lat="49.73687" lon="5.59198">
        <ele>415.20001220703</ele>
        <time>2020-06-28T07:42:23.000Z</time>
      </trkpt>
      <trkpt lat="49.73682" lon="5.59224">
        <ele>415.39999389648</ele>
        <time>2020-06-28T07:42:28.000Z</time>
      </trkpt>
      <trkpt lat="49.73701" lon="5.59235">
        <ele>415.60000610352</ele>
        <time>2020-06-28T07:42:34.000Z</time>
      </trkpt>
      <trkpt lat="49.73715" lon="5.59242">
        <ele>416</ele>
        <time>2020-06-28T07:42:38.000Z</time>
      </trkpt>
      <trkpt lat="49.73718" lon="5.59244">
        <ele>416.20001220703</ele>
        <time>2020-06-28T07:42:39.000Z</time>
      </trkpt>
      <trkpt lat="49.73728" lon="5.59248">
        <ele>416.60000610352</ele>
        <time>2020-06-28T07:42:42.000Z</time>
      </trkpt>
      <trkpt lat="49.73741" lon="5.59254">
        <ele>417.39999389648</ele>
        <time>2020-06-28T07:42:46.000Z</time>
      </trkpt>
      <trkpt lat="49.73751" lon="5.59271">
        <ele>417.60000610352</ele>
        <time>2020-06-28T07:42:53.000Z</time>
      </trkpt>
      <trkpt lat="49.73747" lon="5.59278">
        <ele>417.20001220703</ele>
        <time>2020-06-28T07:42:55.000Z</time>
      </trkpt>
      <trkpt lat="49.73745" lon="5.59282">
        <ele>417</ele>
        <time>2020-06-28T07:42:56.000Z</time>
      </trkpt>
      <trkpt lat="49.73738" lon="5.59313">
        <ele>416</ele>
        <time>2020-06-28T07:43:02.000Z</time>
      </trkpt>
      <trkpt lat="49.73727" lon="5.59342">
        <ele>414.60000610352</ele>
        <time>2020-06-28T07:43:07.000Z</time>
      </trkpt>
      <trkpt lat="49.73719" lon="5.59371">
        <ele>412.79998779297</ele>
        <time>2020-06-28T07:43:13.000Z</time>
      </trkpt>
      <trkpt lat="49.7371" lon="5.594">
        <ele>410.79998779297</ele>
        <time>2020-06-28T07:43:19.000Z</time>
      </trkpt>
      <trkpt lat="49.73704" lon="5.59413">
        <ele>409.39999389648</ele>
        <time>2020-06-28T07:43:22.000Z</time>
      </trkpt>
      <trkpt lat="49.73702" lon="5.5942">
        <ele>408.79998779297</ele>
        <time>2020-06-28T07:43:24.000Z</time>
      </trkpt>
      <trkpt lat="49.73699" lon="5.59429">
        <ele>408</ele>
        <time>2020-06-28T07:43:26.000Z</time>
      </trkpt>
      <trkpt lat="49.73695" lon="5.59445">
        <ele>406.79998779297</ele>
        <time>2020-06-28T07:43:29.000Z</time>
      </trkpt>
      <trkpt lat="49.7369" lon="5.59473">
        <ele>404.39999389648</ele>
        <time>2020-06-28T07:43:34.000Z</time>
      </trkpt>
      <trkpt lat="49.73689" lon="5.59479">
        <ele>404.20001220703</ele>
        <time>2020-06-28T07:43:35.000Z</time>
      </trkpt>
      <trkpt lat="49.73687" lon="5.59484">
        <ele>404.20001220703</ele>
        <time>2020-06-28T07:43:36.000Z</time>
      </trkpt>
      <trkpt lat="49.7368" lon="5.59513">
        <ele>403.60000610352</ele>
        <time>2020-06-28T07:43:42.000Z</time>
      </trkpt>
      <trkpt lat="49.73679" lon="5.5952">
        <ele>403.60000610352</ele>
        <time>2020-06-28T07:43:43.000Z</time>
      </trkpt>
      <trkpt lat="49.73678" lon="5.59528">
        <ele>403.39999389648</ele>
        <time>2020-06-28T07:43:44.000Z</time>
      </trkpt>
      <trkpt lat="49.73675" lon="5.5956">
        <ele>402.60000610352</ele>
        <time>2020-06-28T07:43:48.000Z</time>
      </trkpt>
      <trkpt lat="49.73672" lon="5.59595">
        <ele>402.39999389648</ele>
        <time>2020-06-28T07:43:52.000Z</time>
      </trkpt>
      <trkpt lat="49.73668" lon="5.59626">
        <ele>401.20001220703</ele>
        <time>2020-06-28T07:43:55.000Z</time>
      </trkpt>
      <trkpt lat="49.73659" lon="5.59662">
        <ele>399.60000610352</ele>
        <time>2020-06-28T07:43:58.000Z</time>
      </trkpt>
      <trkpt lat="49.73655" lon="5.59685">
        <ele>398.79998779297</ele>
        <time>2020-06-28T07:44:00.000Z</time>
      </trkpt>
      <trkpt lat="49.73647" lon="5.59712">
        <ele>396.79998779297</ele>
        <time>2020-06-28T07:44:02.000Z</time>
      </trkpt>
      <trkpt lat="49.7364" lon="5.59736">
        <ele>395.39999389648</ele>
        <time>2020-06-28T07:44:04.000Z</time>
      </trkpt>
      <trkpt lat="49.73637" lon="5.59746">
        <ele>395.20001220703</ele>
        <time>2020-06-28T07:44:05.000Z</time>
      </trkpt>
      <trkpt lat="49.73632" lon="5.59777">
        <ele>395.20001220703</ele>
        <time>2020-06-28T07:44:09.000Z</time>
      </trkpt>
      <trkpt lat="49.73635" lon="5.59806">
        <ele>396.60000610352</ele>
        <time>2020-06-28T07:44:13.000Z</time>
      </trkpt>
      <trkpt lat="49.73636" lon="5.59828">
        <ele>397.60000610352</ele>
        <time>2020-06-28T07:44:16.000Z</time>
      </trkpt>
      <trkpt lat="49.73639" lon="5.59857">
        <ele>399.79998779297</ele>
        <time>2020-06-28T07:44:20.000Z</time>
      </trkpt>
      <trkpt lat="49.73641" lon="5.59889">
        <ele>401.60000610352</ele>
        <time>2020-06-28T07:44:25.000Z</time>
      </trkpt>
      <trkpt lat="49.73643" lon="5.59917">
        <ele>401.20001220703</ele>
        <time>2020-06-28T07:44:30.000Z</time>
      </trkpt>
      <trkpt lat="49.73643" lon="5.59922">
        <ele>401.20001220703</ele>
        <time>2020-06-28T07:44:32.000Z</time>
      </trkpt>
      <trkpt lat="49.73643" lon="5.59923">
        <ele>401.39999389648</ele>
        <time>2020-06-28T07:44:33.000Z</time>
      </trkpt>
      <trkpt lat="49.73651" lon="5.59941">
        <ele>402.20001220703</ele>
        <time>2020-06-28T07:44:50.000Z</time>
      </trkpt>
      <trkpt lat="49.73649" lon="5.59953">
        <ele>402.20001220703</ele>
        <time>2020-06-28T07:44:54.000Z</time>
      </trkpt>
      <trkpt lat="49.73651" lon="5.59982">
        <ele>401.60000610352</ele>
        <time>2020-06-28T07:45:02.000Z</time>
      </trkpt>
      <trkpt lat="49.73653" lon="5.59995">
        <ele>400.79998779297</ele>
        <time>2020-06-28T07:45:05.000Z</time>
      </trkpt>
      <trkpt lat="49.73653" lon="5.6">
        <ele>400.39999389648</ele>
        <time>2020-06-28T07:45:06.000Z</time>
      </trkpt>
      <trkpt lat="49.73652" lon="5.60021">
        <ele>399.39999389648</ele>
        <time>2020-06-28T07:45:10.000Z</time>
      </trkpt>
      <trkpt lat="49.73652" lon="5.60049">
        <ele>398</ele>
        <time>2020-06-28T07:45:14.000Z</time>
      </trkpt>
      <trkpt lat="49.73647" lon="5.60073">
        <ele>397</ele>
        <time>2020-06-28T07:45:18.000Z</time>
      </trkpt>
      <trkpt lat="49.73647" lon="5.60078">
        <ele>397</ele>
        <time>2020-06-28T07:45:19.000Z</time>
      </trkpt>
      <trkpt lat="49.73637" lon="5.60101">
        <ele>396.60000610352</ele>
        <time>2020-06-28T07:45:24.000Z</time>
      </trkpt>
      <trkpt lat="49.73624" lon="5.60121">
        <ele>396.20001220703</ele>
        <time>2020-06-28T07:45:29.000Z</time>
      </trkpt>
      <trkpt lat="49.73612" lon="5.60141">
        <ele>393.79998779297</ele>
        <time>2020-06-28T07:45:33.000Z</time>
      </trkpt>
      <trkpt lat="49.73609" lon="5.60145">
        <ele>392.79998779297</ele>
        <time>2020-06-28T07:45:34.000Z</time>
      </trkpt>
      <trkpt lat="49.73596" lon="5.60165">
        <ele>388.60000610352</ele>
        <time>2020-06-28T07:45:38.000Z</time>
      </trkpt>
      <trkpt lat="49.73586" lon="5.60182">
        <ele>385.39999389648</ele>
        <time>2020-06-28T07:45:42.000Z</time>
      </trkpt>
      <trkpt lat="49.73574" lon="5.60204">
        <ele>382.60000610352</ele>
        <time>2020-06-28T07:45:47.000Z</time>
      </trkpt>
      <trkpt lat="49.73564" lon="5.60215">
        <ele>380.79998779297</ele>
        <time>2020-06-28T07:45:49.000Z</time>
      </trkpt>
      <trkpt lat="49.7356" lon="5.6022">
        <ele>380</ele>
        <time>2020-06-28T07:45:50.000Z</time>
      </trkpt>
      <trkpt lat="49.73547" lon="5.60238">
        <ele>377.79998779297</ele>
        <time>2020-06-28T07:45:59.000Z</time>
      </trkpt>
      <trkpt lat="49.73546" lon="5.60239">
        <ele>377.79998779297</ele>
        <time>2020-06-28T07:46:04.000Z</time>
      </trkpt>
      <trkpt lat="49.73544" lon="5.60241">
        <ele>377.39999389648</ele>
        <time>2020-06-28T07:46:10.000Z</time>
      </trkpt>
      <trkpt lat="49.73541" lon="5.60245">
        <ele>377</ele>
        <time>2020-06-28T07:46:16.000Z</time>
      </trkpt>
      <trkpt lat="49.7354" lon="5.60246">
        <ele>377</ele>
        <time>2020-06-28T07:46:20.000Z</time>
      </trkpt>
      <trkpt lat="49.73537" lon="5.60254">
        <ele>376.60000610352</ele>
        <time>2020-06-28T07:46:23.000Z</time>
      </trkpt>
      <trkpt lat="49.73545" lon="5.6028">
        <ele>377</ele>
        <time>2020-06-28T07:46:29.000Z</time>
      </trkpt>
      <trkpt lat="49.73559" lon="5.60305">
        <ele>378.39999389648</ele>
        <time>2020-06-28T07:46:34.000Z</time>
      </trkpt>
      <trkpt lat="49.73568" lon="5.60319">
        <ele>379.39999389648</ele>
        <time>2020-06-28T07:46:40.000Z</time>
      </trkpt>
      <trkpt lat="49.73569" lon="5.60322">
        <ele>379.39999389648</ele>
        <time>2020-06-28T07:46:41.000Z</time>
      </trkpt>
      <trkpt lat="49.73582" lon="5.60349">
        <ele>381</ele>
        <time>2020-06-28T07:46:47.000Z</time>
      </trkpt>
      <trkpt lat="49.73586" lon="5.60358">
        <ele>382</ele>
        <time>2020-06-28T07:46:49.000Z</time>
      </trkpt>
      <trkpt lat="49.73588" lon="5.60363">
        <ele>382.39999389648</ele>
        <time>2020-06-28T07:46:50.000Z</time>
      </trkpt>
      <trkpt lat="49.73593" lon="5.60373">
        <ele>383.20001220703</ele>
        <time>2020-06-28T07:46:52.000Z</time>
      </trkpt>
      <trkpt lat="49.73598" lon="5.60382">
        <ele>384.20001220703</ele>
        <time>2020-06-28T07:46:54.000Z</time>
      </trkpt>
      <trkpt lat="49.7361" lon="5.60396">
        <ele>384.60000610352</ele>
        <time>2020-06-28T07:46:58.000Z</time>
      </trkpt>
      <trkpt lat="49.73622" lon="5.60407">
        <ele>384.79998779297</ele>
        <time>2020-06-28T07:47:02.000Z</time>
      </trkpt>
      <trkpt lat="49.73638" lon="5.60426">
        <ele>385.60000610352</ele>
        <time>2020-06-28T07:47:08.000Z</time>
      </trkpt>
      <trkpt lat="49.73649" lon="5.6045">
        <ele>386</ele>
        <time>2020-06-28T07:47:13.000Z</time>
      </trkpt>
      <trkpt lat="49.73654" lon="5.6048">
        <ele>386.20001220703</ele>
        <time>2020-06-28T07:47:19.000Z</time>
      </trkpt>
      <trkpt lat="49.73655" lon="5.60486">
        <ele>386.20001220703</ele>
        <time>2020-06-28T07:47:20.000Z</time>
      </trkpt>
      <trkpt lat="49.73655" lon="5.60502">
        <ele>386.39999389648</ele>
        <time>2020-06-28T07:47:22.000Z</time>
      </trkpt>
      <trkpt lat="49.73659" lon="5.60525">
        <ele>387.39999389648</ele>
        <time>2020-06-28T07:47:25.000Z</time>
      </trkpt>
      <trkpt lat="49.73663" lon="5.60543">
        <ele>388.20001220703</ele>
        <time>2020-06-28T07:47:27.000Z</time>
      </trkpt>
      <trkpt lat="49.73669" lon="5.6057">
        <ele>388.60000610352</ele>
        <time>2020-06-28T07:47:30.000Z</time>
      </trkpt>
      <trkpt lat="49.73675" lon="5.60598">
        <ele>388.39999389648</ele>
        <time>2020-06-28T07:47:34.000Z</time>
      </trkpt>
      <trkpt lat="49.73681" lon="5.60631">
        <ele>388.60000610352</ele>
        <time>2020-06-28T07:47:39.000Z</time>
      </trkpt>
      <trkpt lat="49.73682" lon="5.60639">
        <ele>388.60000610352</ele>
        <time>2020-06-28T07:47:40.000Z</time>
      </trkpt>
      <trkpt lat="49.73692" lon="5.60668">
        <ele>388.39999389648</ele>
        <time>2020-06-28T07:47:44.000Z</time>
      </trkpt>
      <trkpt lat="49.73704" lon="5.60693">
        <ele>388.39999389648</ele>
        <time>2020-06-28T07:47:49.000Z</time>
      </trkpt>
      <trkpt lat="49.73706" lon="5.60698">
        <ele>388.20001220703</ele>
        <time>2020-06-28T07:47:50.000Z</time>
      </trkpt>
      <trkpt lat="49.73708" lon="5.60701">
        <ele>388.20001220703</ele>
        <time>2020-06-28T07:47:51.000Z</time>
      </trkpt>
      <trkpt lat="49.73721" lon="5.60701">
        <ele>388</ele>
        <time>2020-06-28T07:48:02.000Z</time>
      </trkpt>
      <trkpt lat="49.73728" lon="5.60685">
        <ele>388.20001220703</ele>
        <time>2020-06-28T07:48:17.000Z</time>
      </trkpt>
      <trkpt lat="49.73728" lon="5.60683">
        <ele>388.20001220703</ele>
        <time>2020-06-28T07:48:18.000Z</time>
      </trkpt>
      <trkpt lat="49.73732" lon="5.60678">
        <ele>388.20001220703</ele>
        <time>2020-06-28T07:48:23.000Z</time>
      </trkpt>
      <trkpt lat="49.73733" lon="5.60676">
        <ele>388.20001220703</ele>
        <time>2020-06-28T07:48:24.000Z</time>
      </trkpt>
      <trkpt lat="49.73735" lon="5.60663">
        <ele>388.60000610352</ele>
        <time>2020-06-28T07:48:32.000Z</time>
      </trkpt>
      <trkpt lat="49.73735" lon="5.60657">
        <ele>389</ele>
        <time>2020-06-28T07:48:35.000Z</time>
      </trkpt>
      <trkpt lat="49.73746" lon="5.60633">
        <ele>391.60000610352</ele>
        <time>2020-06-28T07:48:47.000Z</time>
      </trkpt>
      <trkpt lat="49.73755" lon="5.60618">
        <ele>392.20001220703</ele>
        <time>2020-06-28T07:48:55.000Z</time>
      </trkpt>
      <trkpt lat="49.73757" lon="5.60615">
        <ele>392.39999389648</ele>
        <time>2020-06-28T07:48:57.000Z</time>
      </trkpt>
      <trkpt lat="49.73771" lon="5.60598">
        <ele>395.20001220703</ele>
        <time>2020-06-28T07:49:08.000Z</time>
      </trkpt>
      <trkpt lat="49.73775" lon="5.60593">
        <ele>396.20001220703</ele>
        <time>2020-06-28T07:49:10.000Z</time>
      </trkpt>
      <trkpt lat="49.73777" lon="5.60591">
        <ele>396.79998779297</ele>
        <time>2020-06-28T07:49:11.000Z</time>
      </trkpt>
      <trkpt lat="49.73787" lon="5.60579">
        <ele>399.39999389648</ele>
        <time>2020-06-28T07:49:17.000Z</time>
      </trkpt>
      <trkpt lat="49.73789" lon="5.60577">
        <ele>399.60000610352</ele>
        <time>2020-06-28T07:49:18.000Z</time>
      </trkpt>
      <trkpt lat="49.73799" lon="5.60566">
        <ele>400.60000610352</ele>
        <time>2020-06-28T07:49:23.000Z</time>
      </trkpt>
      <trkpt lat="49.73813" lon="5.60549">
        <ele>401</ele>
        <time>2020-06-28T07:49:31.000Z</time>
      </trkpt>
      <trkpt lat="49.73815" lon="5.60547">
        <ele>401</ele>
        <time>2020-06-28T07:49:32.000Z</time>
      </trkpt>
      <trkpt lat="49.7383" lon="5.60529">
        <ele>401.20001220703</ele>
        <time>2020-06-28T07:49:39.000Z</time>
      </trkpt>
      <trkpt lat="49.73835" lon="5.60524">
        <ele>401.39999389648</ele>
        <time>2020-06-28T07:49:41.000Z</time>
      </trkpt>
      <trkpt lat="49.73851" lon="5.60509">
        <ele>402</ele>
        <time>2020-06-28T07:49:48.000Z</time>
      </trkpt>
      <trkpt lat="49.73859" lon="5.60501">
        <ele>402.60000610352</ele>
        <time>2020-06-28T07:49:51.000Z</time>
      </trkpt>
      <trkpt lat="49.7387" lon="5.60491">
        <ele>403.20001220703</ele>
        <time>2020-06-28T07:49:55.000Z</time>
      </trkpt>
      <trkpt lat="49.73873" lon="5.60488">
        <ele>403.39999389648</ele>
        <time>2020-06-28T07:49:56.000Z</time>
      </trkpt>
      <trkpt lat="49.73883" lon="5.60479">
        <ele>404.20001220703</ele>
        <time>2020-06-28T07:50:00.000Z</time>
      </trkpt>
      <trkpt lat="49.73886" lon="5.60476">
        <ele>404.20001220703</ele>
        <time>2020-06-28T07:50:01.000Z</time>
      </trkpt>
      <trkpt lat="49.73893" lon="5.60469">
        <ele>404</ele>
        <time>2020-06-28T07:50:04.000Z</time>
      </trkpt>
      <trkpt lat="49.7391" lon="5.60453">
        <ele>403.79998779297</ele>
        <time>2020-06-28T07:50:11.000Z</time>
      </trkpt>
      <trkpt lat="49.73927" lon="5.60431">
        <ele>403.39999389648</ele>
        <time>2020-06-28T07:50:17.000Z</time>
      </trkpt>
      <trkpt lat="49.73932" lon="5.60424">
        <ele>403.39999389648</ele>
        <time>2020-06-28T07:50:19.000Z</time>
      </trkpt>
      <trkpt lat="49.73946" lon="5.60402">
        <ele>403</ele>
        <time>2020-06-28T07:50:25.000Z</time>
      </trkpt>
      <trkpt lat="49.73949" lon="5.60399">
        <ele>403</ele>
        <time>2020-06-28T07:50:26.000Z</time>
      </trkpt>
      <trkpt lat="49.73957" lon="5.60387">
        <ele>403.20001220703</ele>
        <time>2020-06-28T07:50:29.000Z</time>
      </trkpt>
      <trkpt lat="49.73965" lon="5.60376">
        <ele>403.20001220703</ele>
        <time>2020-06-28T07:50:32.000Z</time>
      </trkpt>
      <trkpt lat="49.73979" lon="5.60354">
        <ele>403</ele>
        <time>2020-06-28T07:50:38.000Z</time>
      </trkpt>
      <trkpt lat="49.73987" lon="5.60343">
        <ele>402.79998779297</ele>
        <time>2020-06-28T07:50:40.000Z</time>
      </trkpt>
      <trkpt lat="49.7399" lon="5.6034">
        <ele>402.79998779297</ele>
        <time>2020-06-28T07:50:41.000Z</time>
      </trkpt>
      <trkpt lat="49.74004" lon="5.60316">
        <ele>404.60000610352</ele>
        <time>2020-06-28T07:50:46.000Z</time>
      </trkpt>
      <trkpt lat="49.74018" lon="5.60325">
        <ele>406.39999389648</ele>
        <time>2020-06-28T07:50:53.000Z</time>
      </trkpt>
      <trkpt lat="49.74014" lon="5.60355">
        <ele>406</ele>
        <time>2020-06-28T07:51:01.000Z</time>
      </trkpt>
      <trkpt lat="49.74016" lon="5.60362">
        <ele>406.20001220703</ele>
        <time>2020-06-28T07:51:03.000Z</time>
      </trkpt>
      <trkpt lat="49.74018" lon="5.60369">
        <ele>406.60000610352</ele>
        <time>2020-06-28T07:51:05.000Z</time>
      </trkpt>
      <trkpt lat="49.74028" lon="5.60395">
        <ele>408</ele>
        <time>2020-06-28T07:51:11.000Z</time>
      </trkpt>
      <trkpt lat="49.74039" lon="5.60422">
        <ele>408</ele>
        <time>2020-06-28T07:51:17.000Z</time>
      </trkpt>
      <trkpt lat="49.74044" lon="5.60435">
        <ele>408.39999389648</ele>
        <time>2020-06-28T07:51:20.000Z</time>
      </trkpt>
      <trkpt lat="49.74046" lon="5.6044">
        <ele>408.60000610352</ele>
        <time>2020-06-28T07:51:21.000Z</time>
      </trkpt>
      <trkpt lat="49.74055" lon="5.60458">
        <ele>409.39999389648</ele>
        <time>2020-06-28T07:51:25.000Z</time>
      </trkpt>
      <trkpt lat="49.74066" lon="5.60484">
        <ele>409.39999389648</ele>
        <time>2020-06-28T07:51:31.000Z</time>
      </trkpt>
      <trkpt lat="49.74072" lon="5.60511">
        <ele>408.39999389648</ele>
        <time>2020-06-28T07:51:37.000Z</time>
      </trkpt>
      <trkpt lat="49.74089" lon="5.6052">
        <ele>409.79998779297</ele>
        <time>2020-06-28T07:51:43.000Z</time>
      </trkpt>
      <trkpt lat="49.74108" lon="5.6051">
        <ele>414.20001220703</ele>
        <time>2020-06-28T07:51:48.000Z</time>
      </trkpt>
      <trkpt lat="49.74127" lon="5.60501">
        <ele>418.39999389648</ele>
        <time>2020-06-28T07:51:54.000Z</time>
      </trkpt>
      <trkpt lat="49.74133" lon="5.60497">
        <ele>419.60000610352</ele>
        <time>2020-06-28T07:51:56.000Z</time>
      </trkpt>
      <trkpt lat="49.74144" lon="5.60491">
        <ele>422</ele>
        <time>2020-06-28T07:52:00.000Z</time>
      </trkpt>
      <trkpt lat="49.74153" lon="5.60487">
        <ele>423.60000610352</ele>
        <time>2020-06-28T07:52:03.000Z</time>
      </trkpt>
      <trkpt lat="49.74161" lon="5.60483">
        <ele>425.20001220703</ele>
        <time>2020-06-28T07:52:06.000Z</time>
      </trkpt>
      <trkpt lat="49.74167" lon="5.6048">
        <ele>426.39999389648</ele>
        <time>2020-06-28T07:52:08.000Z</time>
      </trkpt>
      <trkpt lat="49.74186" lon="5.60472">
        <ele>430</ele>
        <time>2020-06-28T07:52:14.000Z</time>
      </trkpt>
      <trkpt lat="49.74197" lon="5.60466">
        <ele>432.20001220703</ele>
        <time>2020-06-28T07:52:18.000Z</time>
      </trkpt>
      <trkpt lat="49.74201" lon="5.60465">
        <ele>432.79998779297</ele>
        <time>2020-06-28T07:52:19.000Z</time>
      </trkpt>
      <trkpt lat="49.74219" lon="5.60459">
        <ele>433.20001220703</ele>
        <time>2020-06-28T07:52:24.000Z</time>
      </trkpt>
      <trkpt lat="49.74229" lon="5.60458">
        <ele>433.20001220703</ele>
        <time>2020-06-28T07:52:27.000Z</time>
      </trkpt>
      <trkpt lat="49.74232" lon="5.60459">
        <ele>433.20001220703</ele>
        <time>2020-06-28T07:52:28.000Z</time>
      </trkpt>
      <trkpt lat="49.74249" lon="5.6046">
        <ele>432.79998779297</ele>
        <time>2020-06-28T07:52:33.000Z</time>
      </trkpt>
      <trkpt lat="49.74253" lon="5.6046">
        <ele>432.79998779297</ele>
        <time>2020-06-28T07:52:34.000Z</time>
      </trkpt>
      <trkpt lat="49.74271" lon="5.60459">
        <ele>432.60000610352</ele>
        <time>2020-06-28T07:52:38.000Z</time>
      </trkpt>
      <trkpt lat="49.74292" lon="5.60458">
        <ele>432.20001220703</ele>
        <time>2020-06-28T07:52:43.000Z</time>
      </trkpt>
      <trkpt lat="49.74296" lon="5.60458">
        <ele>431.79998779297</ele>
        <time>2020-06-28T07:52:44.000Z</time>
      </trkpt>
      <trkpt lat="49.74303" lon="5.6046">
        <ele>430.79998779297</ele>
        <time>2020-06-28T07:52:46.000Z</time>
      </trkpt>
      <trkpt lat="49.74321" lon="5.60474">
        <ele>427.60000610352</ele>
        <time>2020-06-28T07:52:52.000Z</time>
      </trkpt>
      <trkpt lat="49.74337" lon="5.60487">
        <ele>424.79998779297</ele>
        <time>2020-06-28T07:52:59.000Z</time>
      </trkpt>
      <trkpt lat="49.74344" lon="5.60493">
        <ele>423.60000610352</ele>
        <time>2020-06-28T07:53:03.000Z</time>
      </trkpt>
      <trkpt lat="49.74346" lon="5.60494">
        <ele>423.39999389648</ele>
        <time>2020-06-28T07:53:04.000Z</time>
      </trkpt>
      <trkpt lat="49.74354" lon="5.60501">
        <ele>422</ele>
        <time>2020-06-28T07:53:08.000Z</time>
      </trkpt>
      <trkpt lat="49.74358" lon="5.60504">
        <ele>421.39999389648</ele>
        <time>2020-06-28T07:53:10.000Z</time>
      </trkpt>
      <trkpt lat="49.74363" lon="5.60507">
        <ele>420.60000610352</ele>
        <time>2020-06-28T07:53:12.000Z</time>
      </trkpt>
      <trkpt lat="49.74368" lon="5.60511">
        <ele>419.79998779297</ele>
        <time>2020-06-28T07:53:14.000Z</time>
      </trkpt>
      <trkpt lat="49.74377" lon="5.60519">
        <ele>419.20001220703</ele>
        <time>2020-06-28T07:53:18.000Z</time>
      </trkpt>
      <trkpt lat="49.7438" lon="5.60523">
        <ele>419</ele>
        <time>2020-06-28T07:53:20.000Z</time>
      </trkpt>
      <trkpt lat="49.74395" lon="5.60536">
        <ele>418.60000610352</ele>
        <time>2020-06-28T07:53:27.000Z</time>
      </trkpt>
      <trkpt lat="49.74398" lon="5.60538">
        <ele>418.39999389648</ele>
        <time>2020-06-28T07:53:28.000Z</time>
      </trkpt>
      <trkpt lat="49.74416" lon="5.60544">
        <ele>418.60000610352</ele>
        <time>2020-06-28T07:53:35.000Z</time>
      </trkpt>
      <trkpt lat="49.74423" lon="5.60524">
        <ele>420</ele>
        <time>2020-06-28T07:53:40.000Z</time>
      </trkpt>
      <trkpt lat="49.74424" lon="5.6052">
        <ele>420.20001220703</ele>
        <time>2020-06-28T07:53:41.000Z</time>
      </trkpt>
      <trkpt lat="49.74431" lon="5.6049">
        <ele>421.60000610352</ele>
        <time>2020-06-28T07:53:47.000Z</time>
      </trkpt>
      <trkpt lat="49.74432" lon="5.60486">
        <ele>421.79998779297</ele>
        <time>2020-06-28T07:53:48.000Z</time>
      </trkpt>
      <trkpt lat="49.74435" lon="5.60478">
        <ele>422.20001220703</ele>
        <time>2020-06-28T07:53:50.000Z</time>
      </trkpt>
      <trkpt lat="49.74443" lon="5.60451">
        <ele>424.60000610352</ele>
        <time>2020-06-28T07:53:57.000Z</time>
      </trkpt>
      <trkpt lat="49.74448" lon="5.60424">
        <ele>426.39999389648</ele>
        <time>2020-06-28T07:54:07.000Z</time>
      </trkpt>
      <trkpt lat="49.74445" lon="5.60417">
        <ele>427</ele>
        <time>2020-06-28T07:54:09.000Z</time>
      </trkpt>
      <trkpt lat="49.74442" lon="5.60414">
        <ele>427.39999389648</ele>
        <time>2020-06-28T07:54:10.000Z</time>
      </trkpt>
      <trkpt lat="49.74428" lon="5.60406">
        <ele>428.39999389648</ele>
        <time>2020-06-28T07:54:15.000Z</time>
      </trkpt>
      <trkpt lat="49.74411" lon="5.60388">
        <ele>430.39999389648</ele>
        <time>2020-06-28T07:54:21.000Z</time>
      </trkpt>
      <trkpt lat="49.74401" lon="5.60362">
        <ele>431.79998779297</ele>
        <time>2020-06-28T07:54:26.000Z</time>
      </trkpt>
      <trkpt lat="49.74382" lon="5.60348">
        <ele>433</ele>
        <time>2020-06-28T07:54:31.000Z</time>
      </trkpt>
      <trkpt lat="49.74365" lon="5.60335">
        <ele>434</ele>
        <time>2020-06-28T07:54:35.000Z</time>
      </trkpt>
      <trkpt lat="49.74345" lon="5.60323">
        <ele>434.79998779297</ele>
        <time>2020-06-28T07:54:40.000Z</time>
      </trkpt>
      <trkpt lat="49.74331" lon="5.60312">
        <ele>435.60000610352</ele>
        <time>2020-06-28T07:54:44.000Z</time>
      </trkpt>
      <trkpt lat="49.74313" lon="5.60299">
        <ele>436</ele>
        <time>2020-06-28T07:54:49.000Z</time>
      </trkpt>
      <trkpt lat="49.743" lon="5.60275">
        <ele>433.60000610352</ele>
        <time>2020-06-28T07:54:55.000Z</time>
      </trkpt>
      <trkpt lat="49.74298" lon="5.60269">
        <ele>432.79998779297</ele>
        <time>2020-06-28T07:54:56.000Z</time>
      </trkpt>
      <trkpt lat="49.74289" lon="5.60243">
        <ele>430</ele>
        <time>2020-06-28T07:55:01.000Z</time>
      </trkpt>
      <trkpt lat="49.74274" lon="5.60217">
        <ele>427</ele>
        <time>2020-06-28T07:55:06.000Z</time>
      </trkpt>
      <trkpt lat="49.74258" lon="5.602">
        <ele>425.79998779297</ele>
        <time>2020-06-28T07:55:09.000Z</time>
      </trkpt>
      <trkpt lat="49.74252" lon="5.60194">
        <ele>425.60000610352</ele>
        <time>2020-06-28T07:55:10.000Z</time>
      </trkpt>
      <trkpt lat="49.74239" lon="5.60182">
        <ele>424.79998779297</ele>
        <time>2020-06-28T07:55:12.000Z</time>
      </trkpt>
      <trkpt lat="49.74222" lon="5.60173">
        <ele>424.20001220703</ele>
        <time>2020-06-28T07:55:16.000Z</time>
      </trkpt>
      <trkpt lat="49.7422" lon="5.60172">
        <ele>424.20001220703</ele>
        <time>2020-06-28T07:55:17.000Z</time>
      </trkpt>
      <trkpt lat="49.74202" lon="5.60164">
        <ele>423.79998779297</ele>
        <time>2020-06-28T07:55:22.000Z</time>
      </trkpt>
      <trkpt lat="49.74197" lon="5.60162">
        <ele>424.20001220703</ele>
        <time>2020-06-28T07:55:23.000Z</time>
      </trkpt>
      <trkpt lat="49.74194" lon="5.60161">
        <ele>424.39999389648</ele>
        <time>2020-06-28T07:55:24.000Z</time>
      </trkpt>
      <trkpt lat="49.74188" lon="5.6016">
        <ele>424.60000610352</ele>
        <time>2020-06-28T07:55:26.000Z</time>
      </trkpt>
      <trkpt lat="49.74185" lon="5.60144">
        <ele>423.79998779297</ele>
        <time>2020-06-28T07:55:33.000Z</time>
      </trkpt>
      <trkpt lat="49.74185" lon="5.60141">
        <ele>423.79998779297</ele>
        <time>2020-06-28T07:55:34.000Z</time>
      </trkpt>
      <trkpt lat="49.74194" lon="5.60116">
        <ele>422.60000610352</ele>
        <time>2020-06-28T07:55:40.000Z</time>
      </trkpt>
      <trkpt lat="49.74196" lon="5.6011">
        <ele>422.20001220703</ele>
        <time>2020-06-28T07:55:41.000Z</time>
      </trkpt>
      <trkpt lat="49.74205" lon="5.60096">
        <ele>421</ele>
        <time>2020-06-28T07:55:44.000Z</time>
      </trkpt>
      <trkpt lat="49.74219" lon="5.60075">
        <ele>421</ele>
        <time>2020-06-28T07:55:49.000Z</time>
      </trkpt>
      <trkpt lat="49.74221" lon="5.60072">
        <ele>421</ele>
        <time>2020-06-28T07:55:50.000Z</time>
      </trkpt>
      <trkpt lat="49.74225" lon="5.60069">
        <ele>421</ele>
        <time>2020-06-28T07:55:51.000Z</time>
      </trkpt>
      <trkpt lat="49.74235" lon="5.60054">
        <ele>420.79998779297</ele>
        <time>2020-06-28T07:55:54.000Z</time>
      </trkpt>
      <trkpt lat="49.74251" lon="5.6004">
        <ele>421</ele>
        <time>2020-06-28T07:55:59.000Z</time>
      </trkpt>
      <trkpt lat="49.74265" lon="5.60021">
        <ele>421.20001220703</ele>
        <time>2020-06-28T07:56:05.000Z</time>
      </trkpt>
      <trkpt lat="49.74268" lon="5.60016">
        <ele>421.60000610352</ele>
        <time>2020-06-28T07:56:07.000Z</time>
      </trkpt>
      <trkpt lat="49.7427" lon="5.60013">
        <ele>421.60000610352</ele>
        <time>2020-06-28T07:56:08.000Z</time>
      </trkpt>
      <trkpt lat="49.74282" lon="5.5999">
        <ele>422.39999389648</ele>
        <time>2020-06-28T07:56:14.000Z</time>
      </trkpt>
      <trkpt lat="49.74289" lon="5.59961">
        <ele>423.20001220703</ele>
        <time>2020-06-28T07:56:23.000Z</time>
      </trkpt>
      <trkpt lat="49.74291" lon="5.59953">
        <ele>423.39999389648</ele>
        <time>2020-06-28T07:56:25.000Z</time>
      </trkpt>
      <trkpt lat="49.74292" lon="5.59945">
        <ele>423.60000610352</ele>
        <time>2020-06-28T07:56:27.000Z</time>
      </trkpt>
      <trkpt lat="49.74297" lon="5.59928">
        <ele>424</ele>
        <time>2020-06-28T07:56:31.000Z</time>
      </trkpt>
      <trkpt lat="49.743" lon="5.59919">
        <ele>424.39999389648</ele>
        <time>2020-06-28T07:56:33.000Z</time>
      </trkpt>
      <trkpt lat="49.74302" lon="5.59911">
        <ele>424.60000610352</ele>
        <time>2020-06-28T07:56:35.000Z</time>
      </trkpt>
      <trkpt lat="49.74307" lon="5.59897">
        <ele>424.79998779297</ele>
        <time>2020-06-28T07:56:39.000Z</time>
      </trkpt>
      <trkpt lat="49.74312" lon="5.59885">
        <ele>424.60000610352</ele>
        <time>2020-06-28T07:56:42.000Z</time>
      </trkpt>
      <trkpt lat="49.74315" lon="5.59877">
        <ele>424.39999389648</ele>
        <time>2020-06-28T07:56:44.000Z</time>
      </trkpt>
      <trkpt lat="49.74324" lon="5.59848">
        <ele>424</ele>
        <time>2020-06-28T07:56:51.000Z</time>
      </trkpt>
      <trkpt lat="49.74329" lon="5.59839">
        <ele>423.79998779297</ele>
        <time>2020-06-28T07:56:53.000Z</time>
      </trkpt>
      <trkpt lat="49.74342" lon="5.59812">
        <ele>423.60000610352</ele>
        <time>2020-06-28T07:56:56.000Z</time>
      </trkpt>
      <trkpt lat="49.74355" lon="5.5979">
        <ele>423</ele>
        <time>2020-06-28T07:56:59.000Z</time>
      </trkpt>
      <trkpt lat="49.74367" lon="5.59769">
        <ele>422.60000610352</ele>
        <time>2020-06-28T07:57:02.000Z</time>
      </trkpt>
      <trkpt lat="49.74375" lon="5.59754">
        <ele>422.60000610352</ele>
        <time>2020-06-28T07:57:05.000Z</time>
      </trkpt>
      <trkpt lat="49.74378" lon="5.5975">
        <ele>422.60000610352</ele>
        <time>2020-06-28T07:57:06.000Z</time>
      </trkpt>
      <trkpt lat="49.74394" lon="5.5973">
        <ele>422.79998779297</ele>
        <time>2020-06-28T07:57:11.000Z</time>
      </trkpt>
      <trkpt lat="49.74397" lon="5.59725">
        <ele>422.60000610352</ele>
        <time>2020-06-28T07:57:12.000Z</time>
      </trkpt>
      <trkpt lat="49.74408" lon="5.59701">
        <ele>421.79998779297</ele>
        <time>2020-06-28T07:57:17.000Z</time>
      </trkpt>
      <trkpt lat="49.74416" lon="5.59676">
        <ele>420.60000610352</ele>
        <time>2020-06-28T07:57:22.000Z</time>
      </trkpt>
      <trkpt lat="49.7443" lon="5.59656">
        <ele>419.60000610352</ele>
        <time>2020-06-28T07:57:31.000Z</time>
      </trkpt>
      <trkpt lat="49.74444" lon="5.59644">
        <ele>419.20001220703</ele>
        <time>2020-06-28T07:57:37.000Z</time>
      </trkpt>
      <trkpt lat="49.74447" lon="5.59643">
        <ele>419.20001220703</ele>
        <time>2020-06-28T07:57:38.000Z</time>
      </trkpt>
      <trkpt lat="49.74462" lon="5.59623">
        <ele>419.60000610352</ele>
        <time>2020-06-28T07:57:46.000Z</time>
      </trkpt>
      <trkpt lat="49.74463" lon="5.59621">
        <ele>419.60000610352</ele>
        <time>2020-06-28T07:57:47.000Z</time>
      </trkpt>
      <trkpt lat="49.74467" lon="5.59617">
        <ele>419.79998779297</ele>
        <time>2020-06-28T07:57:49.000Z</time>
      </trkpt>
      <trkpt lat="49.74479" lon="5.59601">
        <ele>420.60000610352</ele>
        <time>2020-06-28T07:57:56.000Z</time>
      </trkpt>
      <trkpt lat="49.7448" lon="5.59599">
        <ele>420.60000610352</ele>
        <time>2020-06-28T07:57:57.000Z</time>
      </trkpt>
      <trkpt lat="49.74485" lon="5.59591">
        <ele>421</ele>
        <time>2020-06-28T07:58:00.000Z</time>
      </trkpt>
      <trkpt lat="49.74488" lon="5.59587">
        <ele>421.20001220703</ele>
        <time>2020-06-28T07:58:02.000Z</time>
      </trkpt>
      <trkpt lat="49.745" lon="5.59565">
        <ele>422.39999389648</ele>
        <time>2020-06-28T07:58:09.000Z</time>
      </trkpt>
      <trkpt lat="49.74513" lon="5.59545">
        <ele>423.60000610352</ele>
        <time>2020-06-28T07:58:16.000Z</time>
      </trkpt>
      <trkpt lat="49.74525" lon="5.59524">
        <ele>424.60000610352</ele>
        <time>2020-06-28T07:58:23.000Z</time>
      </trkpt>
      <trkpt lat="49.74539" lon="5.59505">
        <ele>425.20001220703</ele>
        <time>2020-06-28T07:58:29.000Z</time>
      </trkpt>
      <trkpt lat="49.74544" lon="5.59497">
        <ele>425.39999389648</ele>
        <time>2020-06-28T07:58:32.000Z</time>
      </trkpt>
      <trkpt lat="49.74545" lon="5.59494">
        <ele>425.60000610352</ele>
        <time>2020-06-28T07:58:33.000Z</time>
      </trkpt>
      <trkpt lat="49.74558" lon="5.59469">
        <ele>427</ele>
        <time>2020-06-28T07:58:40.000Z</time>
      </trkpt>
      <trkpt lat="49.74561" lon="5.59465">
        <ele>427.39999389648</ele>
        <time>2020-06-28T07:58:41.000Z</time>
      </trkpt>
      <trkpt lat="49.74577" lon="5.59445">
        <ele>429.60000610352</ele>
        <time>2020-06-28T07:58:49.000Z</time>
      </trkpt>
      <trkpt lat="49.74591" lon="5.59425">
        <ele>431.39999389648</ele>
        <time>2020-06-28T07:58:57.000Z</time>
      </trkpt>
      <trkpt lat="49.74593" lon="5.59423">
        <ele>431.60000610352</ele>
        <time>2020-06-28T07:58:58.000Z</time>
      </trkpt>
      <trkpt lat="49.74596" lon="5.59421">
        <ele>431.79998779297</ele>
        <time>2020-06-28T07:58:59.000Z</time>
      </trkpt>
      <trkpt lat="49.74612" lon="5.59408">
        <ele>433</ele>
        <time>2020-06-28T07:59:06.000Z</time>
      </trkpt>
      <trkpt lat="49.74627" lon="5.59386">
        <ele>434.20001220703</ele>
        <time>2020-06-28T07:59:15.000Z</time>
      </trkpt>
      <trkpt lat="49.74633" lon="5.59377">
        <ele>434.39999389648</ele>
        <time>2020-06-28T07:59:18.000Z</time>
      </trkpt>
      <trkpt lat="49.74635" lon="5.59373">
        <ele>434.60000610352</ele>
        <time>2020-06-28T07:59:19.000Z</time>
      </trkpt>
      <trkpt lat="49.74646" lon="5.5935">
        <ele>435.39999389648</ele>
        <time>2020-06-28T07:59:25.000Z</time>
      </trkpt>
      <trkpt lat="49.74648" lon="5.59346">
        <ele>435.60000610352</ele>
        <time>2020-06-28T07:59:26.000Z</time>
      </trkpt>
      <trkpt lat="49.74657" lon="5.59319">
        <ele>435.60000610352</ele>
        <time>2020-06-28T07:59:35.000Z</time>
      </trkpt>
      <trkpt lat="49.74666" lon="5.59298">
        <ele>435</ele>
        <time>2020-06-28T07:59:49.000Z</time>
      </trkpt>
      <trkpt lat="49.74673" lon="5.59296">
        <ele>435</ele>
        <time>2020-06-28T07:59:53.000Z</time>
      </trkpt>
      <trkpt lat="49.74675" lon="5.59297">
        <ele>434.79998779297</ele>
        <time>2020-06-28T07:59:54.000Z</time>
      </trkpt>
      <trkpt lat="49.7468" lon="5.59298">
        <ele>434.60000610352</ele>
        <time>2020-06-28T07:59:58.000Z</time>
      </trkpt>
      <trkpt lat="49.74699" lon="5.59303">
        <ele>434.20001220703</ele>
        <time>2020-06-28T08:00:10.000Z</time>
      </trkpt>
      <trkpt lat="49.74717" lon="5.59309">
        <ele>435</ele>
        <time>2020-06-28T08:00:17.000Z</time>
      </trkpt>
      <trkpt lat="49.74736" lon="5.59314">
        <ele>436</ele>
        <time>2020-06-28T08:00:25.000Z</time>
      </trkpt>
      <trkpt lat="49.74742" lon="5.59317">
        <ele>436.39999389648</ele>
        <time>2020-06-28T08:00:27.000Z</time>
      </trkpt>
      <trkpt lat="49.74747" lon="5.59319">
        <ele>436.60000610352</ele>
        <time>2020-06-28T08:00:28.000Z</time>
      </trkpt>
      <trkpt lat="49.74761" lon="5.59324">
        <ele>437.60000610352</ele>
        <time>2020-06-28T08:00:32.000Z</time>
      </trkpt>
      <trkpt lat="49.74768" lon="5.5933">
        <ele>438</ele>
        <time>2020-06-28T08:00:35.000Z</time>
      </trkpt>
      <trkpt lat="49.74786" lon="5.59341">
        <ele>439.39999389648</ele>
        <time>2020-06-28T08:00:41.000Z</time>
      </trkpt>
      <trkpt lat="49.74801" lon="5.59353">
        <ele>440.20001220703</ele>
        <time>2020-06-28T08:00:46.000Z</time>
      </trkpt>
      <trkpt lat="49.74804" lon="5.59355">
        <ele>440.39999389648</ele>
        <time>2020-06-28T08:00:47.000Z</time>
      </trkpt>
      <trkpt lat="49.74809" lon="5.5936">
        <ele>440.60000610352</ele>
        <time>2020-06-28T08:00:49.000Z</time>
      </trkpt>
      <trkpt lat="49.74818" lon="5.5937">
        <ele>441.20001220703</ele>
        <time>2020-06-28T08:00:53.000Z</time>
      </trkpt>
      <trkpt lat="49.7482" lon="5.59372">
        <ele>441.39999389648</ele>
        <time>2020-06-28T08:00:54.000Z</time>
      </trkpt>
      <trkpt lat="49.74834" lon="5.5939">
        <ele>442.20001220703</ele>
        <time>2020-06-28T08:01:00.000Z</time>
      </trkpt>
      <trkpt lat="49.74849" lon="5.59406">
        <ele>443</ele>
        <time>2020-06-28T08:01:06.000Z</time>
      </trkpt>
      <trkpt lat="49.74862" lon="5.59418">
        <ele>443.60000610352</ele>
        <time>2020-06-28T08:01:10.000Z</time>
      </trkpt>
      <trkpt lat="49.74865" lon="5.5942">
        <ele>443.79998779297</ele>
        <time>2020-06-28T08:01:11.000Z</time>
      </trkpt>
      <trkpt lat="49.74877" lon="5.59432">
        <ele>444.20001220703</ele>
        <time>2020-06-28T08:01:15.000Z</time>
      </trkpt>
      <trkpt lat="49.74892" lon="5.59449">
        <ele>444.79998779297</ele>
        <time>2020-06-28T08:01:22.000Z</time>
      </trkpt>
      <trkpt lat="49.74899" lon="5.59461">
        <ele>445.20001220703</ele>
        <time>2020-06-28T08:01:27.000Z</time>
      </trkpt>
      <trkpt lat="49.74901" lon="5.59464">
        <ele>445.20001220703</ele>
        <time>2020-06-28T08:01:28.000Z</time>
      </trkpt>
      <trkpt lat="49.74918" lon="5.5948">
        <ele>445.39999389648</ele>
        <time>2020-06-28T08:01:33.000Z</time>
      </trkpt>
      <trkpt lat="49.74934" lon="5.59497">
        <ele>445.39999389648</ele>
        <time>2020-06-28T08:01:39.000Z</time>
      </trkpt>
      <trkpt lat="49.74937" lon="5.59499">
        <ele>445.39999389648</ele>
        <time>2020-06-28T08:01:40.000Z</time>
      </trkpt>
      <trkpt lat="49.74939" lon="5.59501">
        <ele>445.39999389648</ele>
        <time>2020-06-28T08:01:41.000Z</time>
      </trkpt>
      <trkpt lat="49.74953" lon="5.59519">
        <ele>445.39999389648</ele>
        <time>2020-06-28T08:01:48.000Z</time>
      </trkpt>
      <trkpt lat="49.7497" lon="5.59534">
        <ele>445.60000610352</ele>
        <time>2020-06-28T08:01:53.000Z</time>
      </trkpt>
      <trkpt lat="49.74986" lon="5.5955">
        <ele>445.79998779297</ele>
        <time>2020-06-28T08:01:59.000Z</time>
      </trkpt>
      <trkpt lat="49.74991" lon="5.59555">
        <ele>445.79998779297</ele>
        <time>2020-06-28T08:02:01.000Z</time>
      </trkpt>
      <trkpt lat="49.74994" lon="5.59558">
        <ele>446</ele>
        <time>2020-06-28T08:02:02.000Z</time>
      </trkpt>
      <trkpt lat="49.75011" lon="5.59575">
        <ele>446.39999389648</ele>
        <time>2020-06-28T08:02:08.000Z</time>
      </trkpt>
      <trkpt lat="49.75014" lon="5.59578">
        <ele>446.39999389648</ele>
        <time>2020-06-28T08:02:09.000Z</time>
      </trkpt>
      <trkpt lat="49.75022" lon="5.59586">
        <ele>446.60000610352</ele>
        <time>2020-06-28T08:02:12.000Z</time>
      </trkpt>
      <trkpt lat="49.7504" lon="5.59603">
        <ele>447</ele>
        <time>2020-06-28T08:02:18.000Z</time>
      </trkpt>
      <trkpt lat="49.75051" lon="5.59615">
        <ele>447</ele>
        <time>2020-06-28T08:02:23.000Z</time>
      </trkpt>
      <trkpt lat="49.75053" lon="5.59617">
        <ele>447</ele>
        <time>2020-06-28T08:02:24.000Z</time>
      </trkpt>
      <trkpt lat="49.75059" lon="5.59622">
        <ele>447</ele>
        <time>2020-06-28T08:02:26.000Z</time>
      </trkpt>
      <trkpt lat="49.75066" lon="5.59627">
        <ele>447</ele>
        <time>2020-06-28T08:02:28.000Z</time>
      </trkpt>
      <trkpt lat="49.75084" lon="5.59639">
        <ele>447</ele>
        <time>2020-06-28T08:02:33.000Z</time>
      </trkpt>
      <trkpt lat="49.75087" lon="5.59641">
        <ele>447.20001220703</ele>
        <time>2020-06-28T08:02:34.000Z</time>
      </trkpt>
      <trkpt lat="49.7509" lon="5.59643">
        <ele>447.20001220703</ele>
        <time>2020-06-28T08:02:35.000Z</time>
      </trkpt>
      <trkpt lat="49.75106" lon="5.59657">
        <ele>447.60000610352</ele>
        <time>2020-06-28T08:02:41.000Z</time>
      </trkpt>
      <trkpt lat="49.75124" lon="5.5967">
        <ele>448</ele>
        <time>2020-06-28T08:02:47.000Z</time>
      </trkpt>
      <trkpt lat="49.75139" lon="5.59684">
        <ele>449.39999389648</ele>
        <time>2020-06-28T08:02:52.000Z</time>
      </trkpt>
      <trkpt lat="49.75142" lon="5.59686">
        <ele>449.79998779297</ele>
        <time>2020-06-28T08:02:53.000Z</time>
      </trkpt>
      <trkpt lat="49.75159" lon="5.59699">
        <ele>451.20001220703</ele>
        <time>2020-06-28T08:02:58.000Z</time>
      </trkpt>
      <trkpt lat="49.75177" lon="5.59716">
        <ele>453</ele>
        <time>2020-06-28T08:03:04.000Z</time>
      </trkpt>
      <trkpt lat="49.75185" lon="5.59725">
        <ele>453.79998779297</ele>
        <time>2020-06-28T08:03:07.000Z</time>
      </trkpt>
      <trkpt lat="49.75188" lon="5.59728">
        <ele>454</ele>
        <time>2020-06-28T08:03:08.000Z</time>
      </trkpt>
      <trkpt lat="49.75201" lon="5.59739">
        <ele>455</ele>
        <time>2020-06-28T08:03:13.000Z</time>
      </trkpt>
      <trkpt lat="49.75205" lon="5.59741">
        <ele>455.20001220703</ele>
        <time>2020-06-28T08:03:14.000Z</time>
      </trkpt>
      <trkpt lat="49.75215" lon="5.59752">
        <ele>455.39999389648</ele>
        <time>2020-06-28T08:03:18.000Z</time>
      </trkpt>
      <trkpt lat="49.75222" lon="5.59758">
        <ele>455.39999389648</ele>
        <time>2020-06-28T08:03:20.000Z</time>
      </trkpt>
      <trkpt lat="49.75226" lon="5.59765">
        <ele>455.60000610352</ele>
        <time>2020-06-28T08:03:22.000Z</time>
      </trkpt>
      <trkpt lat="49.75241" lon="5.59784">
        <ele>455.79998779297</ele>
        <time>2020-06-28T08:03:29.000Z</time>
      </trkpt>
      <trkpt lat="49.75255" lon="5.59801">
        <ele>456</ele>
        <time>2020-06-28T08:03:36.000Z</time>
      </trkpt>
      <trkpt lat="49.75257" lon="5.59804">
        <ele>456</ele>
        <time>2020-06-28T08:03:37.000Z</time>
      </trkpt>
      <trkpt lat="49.75275" lon="5.59823">
        <ele>455.79998779297</ele>
        <time>2020-06-28T08:03:43.000Z</time>
      </trkpt>
      <trkpt lat="49.7529" lon="5.59839">
        <ele>455.60000610352</ele>
        <time>2020-06-28T08:03:49.000Z</time>
      </trkpt>
      <trkpt lat="49.75303" lon="5.59855">
        <ele>455.39999389648</ele>
        <time>2020-06-28T08:03:54.000Z</time>
      </trkpt>
      <trkpt lat="49.75306" lon="5.59859">
        <ele>455.39999389648</ele>
        <time>2020-06-28T08:03:55.000Z</time>
      </trkpt>
      <trkpt lat="49.75322" lon="5.5988">
        <ele>455</ele>
        <time>2020-06-28T08:04:01.000Z</time>
      </trkpt>
      <trkpt lat="49.75324" lon="5.59883">
        <ele>455</ele>
        <time>2020-06-28T08:04:02.000Z</time>
      </trkpt>
      <trkpt lat="49.75328" lon="5.5989">
        <ele>455.20001220703</ele>
        <time>2020-06-28T08:04:04.000Z</time>
      </trkpt>
      <trkpt lat="49.75339" lon="5.59904">
        <ele>455.39999389648</ele>
        <time>2020-06-28T08:04:09.000Z</time>
      </trkpt>
      <trkpt lat="49.75342" lon="5.59907">
        <ele>455.60000610352</ele>
        <time>2020-06-28T08:04:10.000Z</time>
      </trkpt>
      <trkpt lat="49.75355" lon="5.59921">
        <ele>455.79998779297</ele>
        <time>2020-06-28T08:04:14.000Z</time>
      </trkpt>
      <trkpt lat="49.75364" lon="5.59931">
        <ele>456.20001220703</ele>
        <time>2020-06-28T08:04:17.000Z</time>
      </trkpt>
      <trkpt lat="49.75374" lon="5.59946">
        <ele>456.60000610352</ele>
        <time>2020-06-28T08:04:21.000Z</time>
      </trkpt>
      <trkpt lat="49.75386" lon="5.59967">
        <ele>457.60000610352</ele>
        <time>2020-06-28T08:04:26.000Z</time>
      </trkpt>
      <trkpt lat="49.75388" lon="5.59972">
        <ele>457.79998779297</ele>
        <time>2020-06-28T08:04:27.000Z</time>
      </trkpt>
      <trkpt lat="49.75391" lon="5.59982">
        <ele>458.39999389648</ele>
        <time>2020-06-28T08:04:29.000Z</time>
      </trkpt>
      <trkpt lat="49.75404" lon="5.60005">
        <ele>460</ele>
        <time>2020-06-28T08:04:36.000Z</time>
      </trkpt>
      <trkpt lat="49.75418" lon="5.60026">
        <ele>461.39999389648</ele>
        <time>2020-06-28T08:04:41.000Z</time>
      </trkpt>
      <trkpt lat="49.7542" lon="5.60029">
        <ele>461.60000610352</ele>
        <time>2020-06-28T08:04:42.000Z</time>
      </trkpt>
      <trkpt lat="49.75425" lon="5.60035">
        <ele>462</ele>
        <time>2020-06-28T08:04:44.000Z</time>
      </trkpt>
      <trkpt lat="49.75436" lon="5.60052">
        <ele>463.20001220703</ele>
        <time>2020-06-28T08:04:48.000Z</time>
      </trkpt>
      <trkpt lat="49.75451" lon="5.60071">
        <ele>463.79998779297</ele>
        <time>2020-06-28T08:04:53.000Z</time>
      </trkpt>
      <trkpt lat="49.75454" lon="5.60075">
        <ele>464</ele>
        <time>2020-06-28T08:04:54.000Z</time>
      </trkpt>
      <trkpt lat="49.75458" lon="5.6008">
        <ele>464</ele>
        <time>2020-06-28T08:04:55.000Z</time>
      </trkpt>
      <trkpt lat="49.75471" lon="5.60104">
        <ele>464</ele>
        <time>2020-06-28T08:05:00.000Z</time>
      </trkpt>
      <trkpt lat="49.75486" lon="5.60121">
        <ele>464</ele>
        <time>2020-06-28T08:05:04.000Z</time>
      </trkpt>
      <trkpt lat="49.7549" lon="5.60124">
        <ele>464</ele>
        <time>2020-06-28T08:05:05.000Z</time>
      </trkpt>
      <trkpt lat="49.75494" lon="5.60128">
        <ele>464</ele>
        <time>2020-06-28T08:05:06.000Z</time>
      </trkpt>
      <trkpt lat="49.75514" lon="5.60139">
        <ele>463.79998779297</ele>
        <time>2020-06-28T08:05:10.000Z</time>
      </trkpt>
      <trkpt lat="49.75533" lon="5.60143">
        <ele>463.79998779297</ele>
        <time>2020-06-28T08:05:13.000Z</time>
      </trkpt>
      <trkpt lat="49.75552" lon="5.60138">
        <ele>463.79998779297</ele>
        <time>2020-06-28T08:05:17.000Z</time>
      </trkpt>
      <trkpt lat="49.75564" lon="5.60131">
        <ele>463.79998779297</ele>
        <time>2020-06-28T08:05:20.000Z</time>
      </trkpt>
      <trkpt lat="49.75572" lon="5.60129">
        <ele>463.79998779297</ele>
        <time>2020-06-28T08:05:22.000Z</time>
      </trkpt>
      <trkpt lat="49.75592" lon="5.60124">
        <ele>463.79998779297</ele>
        <time>2020-06-28T08:05:28.000Z</time>
      </trkpt>
      <trkpt lat="49.75595" lon="5.60123">
        <ele>463.79998779297</ele>
        <time>2020-06-28T08:05:29.000Z</time>
      </trkpt>
      <trkpt lat="49.75606" lon="5.60121">
        <ele>463.60000610352</ele>
        <time>2020-06-28T08:05:32.000Z</time>
      </trkpt>
      <trkpt lat="49.75626" lon="5.60113">
        <ele>464.39999389648</ele>
        <time>2020-06-28T08:05:39.000Z</time>
      </trkpt>
      <trkpt lat="49.75629" lon="5.60112">
        <ele>464.60000610352</ele>
        <time>2020-06-28T08:05:40.000Z</time>
      </trkpt>
      <trkpt lat="49.75647" lon="5.60102">
        <ele>466.20001220703</ele>
        <time>2020-06-28T08:05:46.000Z</time>
      </trkpt>
      <trkpt lat="49.75658" lon="5.60096">
        <ele>467.20001220703</ele>
        <time>2020-06-28T08:05:50.000Z</time>
      </trkpt>
      <trkpt lat="49.75661" lon="5.60093">
        <ele>467.39999389648</ele>
        <time>2020-06-28T08:05:51.000Z</time>
      </trkpt>
      <trkpt lat="49.75681" lon="5.60082">
        <ele>468.39999389648</ele>
        <time>2020-06-28T08:05:57.000Z</time>
      </trkpt>
      <trkpt lat="49.757" lon="5.60069">
        <ele>469.39999389648</ele>
        <time>2020-06-28T08:06:03.000Z</time>
      </trkpt>
      <trkpt lat="49.75715" lon="5.60054">
        <ele>470</ele>
        <time>2020-06-28T08:06:09.000Z</time>
      </trkpt>
      <trkpt lat="49.75718" lon="5.60051">
        <ele>470</ele>
        <time>2020-06-28T08:06:10.000Z</time>
      </trkpt>
      <trkpt lat="49.75734" lon="5.60031">
        <ele>471.79998779297</ele>
        <time>2020-06-28T08:06:15.000Z</time>
      </trkpt>
      <trkpt lat="49.75747" lon="5.60025">
        <ele>472.20001220703</ele>
        <time>2020-06-28T08:06:18.000Z</time>
      </trkpt>
      <trkpt lat="49.75751" lon="5.60022">
        <ele>472.39999389648</ele>
        <time>2020-06-28T08:06:19.000Z</time>
      </trkpt>
      <trkpt lat="49.75768" lon="5.60004">
        <ele>472</ele>
        <time>2020-06-28T08:06:23.000Z</time>
      </trkpt>
      <trkpt lat="49.75773" lon="5.59997">
        <ele>471.60000610352</ele>
        <time>2020-06-28T08:06:24.000Z</time>
      </trkpt>
      <trkpt lat="49.75784" lon="5.59981">
        <ele>471.20001220703</ele>
        <time>2020-06-28T08:06:26.000Z</time>
      </trkpt>
      <trkpt lat="49.75803" lon="5.59954">
        <ele>469.79998779297</ele>
        <time>2020-06-28T08:06:29.000Z</time>
      </trkpt>
      <trkpt lat="49.75809" lon="5.59947">
        <ele>469.20001220703</ele>
        <time>2020-06-28T08:06:30.000Z</time>
      </trkpt>
      <trkpt lat="49.7583" lon="5.59939">
        <ele>467.20001220703</ele>
        <time>2020-06-28T08:06:34.000Z</time>
      </trkpt>
      <trkpt lat="49.7585" lon="5.59936">
        <ele>466</ele>
        <time>2020-06-28T08:06:37.000Z</time>
      </trkpt>
      <trkpt lat="49.75856" lon="5.59935">
        <ele>466</ele>
        <time>2020-06-28T08:06:38.000Z</time>
      </trkpt>
      <trkpt lat="49.7586" lon="5.59935">
        <ele>465.79998779297</ele>
        <time>2020-06-28T08:06:39.000Z</time>
      </trkpt>
      <trkpt lat="49.75874" lon="5.59932">
        <ele>465.39999389648</ele>
        <time>2020-06-28T08:06:42.000Z</time>
      </trkpt>
      <trkpt lat="49.75891" lon="5.59919">
        <ele>465.79998779297</ele>
        <time>2020-06-28T08:06:46.000Z</time>
      </trkpt>
      <trkpt lat="49.75906" lon="5.59902">
        <ele>466.60000610352</ele>
        <time>2020-06-28T08:06:50.000Z</time>
      </trkpt>
      <trkpt lat="49.75924" lon="5.59888">
        <ele>466.79998779297</ele>
        <time>2020-06-28T08:06:57.000Z</time>
      </trkpt>
      <trkpt lat="49.7594" lon="5.59874">
        <ele>467.20001220703</ele>
        <time>2020-06-28T08:07:04.000Z</time>
      </trkpt>
      <trkpt lat="49.75959" lon="5.59872">
        <ele>467.20001220703</ele>
        <time>2020-06-28T08:07:11.000Z</time>
      </trkpt>
      <trkpt lat="49.75977" lon="5.5986">
        <ele>468.20001220703</ele>
        <time>2020-06-28T08:07:18.000Z</time>
      </trkpt>
      <trkpt lat="49.75995" lon="5.59848">
        <ele>469</ele>
        <time>2020-06-28T08:07:24.000Z</time>
      </trkpt>
      <trkpt lat="49.76013" lon="5.5984">
        <ele>469.20001220703</ele>
        <time>2020-06-28T08:07:30.000Z</time>
      </trkpt>
      <trkpt lat="49.76033" lon="5.59833">
        <ele>469.20001220703</ele>
        <time>2020-06-28T08:07:43.000Z</time>
      </trkpt>
      <trkpt lat="49.76053" lon="5.59832">
        <ele>468.20001220703</ele>
        <time>2020-06-28T08:07:49.000Z</time>
      </trkpt>
      <trkpt lat="49.76072" lon="5.5983">
        <ele>467.60000610352</ele>
        <time>2020-06-28T08:07:55.000Z</time>
      </trkpt>
      <trkpt lat="49.76088" lon="5.59849">
        <ele>465.20001220703</ele>
        <time>2020-06-28T08:08:01.000Z</time>
      </trkpt>
      <trkpt lat="49.76098" lon="5.59863">
        <ele>463.79998779297</ele>
        <time>2020-06-28T08:08:06.000Z</time>
      </trkpt>
      <trkpt lat="49.76099" lon="5.59864">
        <ele>463.60000610352</ele>
        <time>2020-06-28T08:08:07.000Z</time>
      </trkpt>
      <trkpt lat="49.76113" lon="5.59883">
        <ele>461.60000610352</ele>
        <time>2020-06-28T08:08:15.000Z</time>
      </trkpt>
      <trkpt lat="49.76127" lon="5.599">
        <ele>461.39999389648</ele>
        <time>2020-06-28T08:08:21.000Z</time>
      </trkpt>
      <trkpt lat="49.76144" lon="5.5991">
        <ele>462.60000610352</ele>
        <time>2020-06-28T08:08:26.000Z</time>
      </trkpt>
      <trkpt lat="49.76163" lon="5.59923">
        <ele>464</ele>
        <time>2020-06-28T08:08:32.000Z</time>
      </trkpt>
      <trkpt lat="49.76177" lon="5.59937">
        <ele>465</ele>
        <time>2020-06-28T08:08:39.000Z</time>
      </trkpt>
      <trkpt lat="49.76196" lon="5.59947">
        <ele>466.39999389648</ele>
        <time>2020-06-28T08:08:46.000Z</time>
      </trkpt>
      <trkpt lat="49.76213" lon="5.59961">
        <ele>467.39999389648</ele>
        <time>2020-06-28T08:08:54.000Z</time>
      </trkpt>
      <trkpt lat="49.76231" lon="5.59976">
        <ele>468</ele>
        <time>2020-06-28T08:09:00.000Z</time>
      </trkpt>
      <trkpt lat="49.76248" lon="5.59991">
        <ele>468.60000610352</ele>
        <time>2020-06-28T08:09:07.000Z</time>
      </trkpt>
      <trkpt lat="49.76267" lon="5.60001">
        <ele>469.20001220703</ele>
        <time>2020-06-28T08:09:12.000Z</time>
      </trkpt>
      <trkpt lat="49.76279" lon="5.60013">
        <ele>469.60000610352</ele>
        <time>2020-06-28T08:09:17.000Z</time>
      </trkpt>
      <trkpt lat="49.76283" lon="5.60016">
        <ele>469.60000610352</ele>
        <time>2020-06-28T08:09:19.000Z</time>
      </trkpt>
      <trkpt lat="49.76298" lon="5.60007">
        <ele>470.39999389648</ele>
        <time>2020-06-28T08:09:27.000Z</time>
      </trkpt>
      <trkpt lat="49.76309" lon="5.59983">
        <ele>471.39999389648</ele>
        <time>2020-06-28T08:09:34.000Z</time>
      </trkpt>
      <trkpt lat="49.76312" lon="5.59968">
        <ele>472.20001220703</ele>
        <time>2020-06-28T08:09:37.000Z</time>
      </trkpt>
      <trkpt lat="49.76313" lon="5.59963">
        <ele>472.60000610352</ele>
        <time>2020-06-28T08:09:38.000Z</time>
      </trkpt>
      <trkpt lat="49.76315" lon="5.59954">
        <ele>473.20001220703</ele>
        <time>2020-06-28T08:09:40.000Z</time>
      </trkpt>
      <trkpt lat="49.76322" lon="5.59925">
        <ele>475.20001220703</ele>
        <time>2020-06-28T08:09:47.000Z</time>
      </trkpt>
      <trkpt lat="49.76326" lon="5.59911">
        <ele>476</ele>
        <time>2020-06-28T08:09:50.000Z</time>
      </trkpt>
      <trkpt lat="49.76327" lon="5.59907">
        <ele>476.20001220703</ele>
        <time>2020-06-28T08:09:51.000Z</time>
      </trkpt>
      <trkpt lat="49.76332" lon="5.5988">
        <ele>477</ele>
        <time>2020-06-28T08:09:56.000Z</time>
      </trkpt>
      <trkpt lat="49.76338" lon="5.59849">
        <ele>476.79998779297</ele>
        <time>2020-06-28T08:10:03.000Z</time>
      </trkpt>
      <trkpt lat="49.76339" lon="5.59844">
        <ele>476.79998779297</ele>
        <time>2020-06-28T08:10:04.000Z</time>
      </trkpt>
      <trkpt lat="49.76341" lon="5.59838">
        <ele>477</ele>
        <time>2020-06-28T08:10:05.000Z</time>
      </trkpt>
      <trkpt lat="49.76342" lon="5.59813">
        <ele>477</ele>
        <time>2020-06-28T08:10:10.000Z</time>
      </trkpt>
      <trkpt lat="49.76342" lon="5.59808">
        <ele>477</ele>
        <time>2020-06-28T08:10:11.000Z</time>
      </trkpt>
      <trkpt lat="49.76339" lon="5.59787">
        <ele>477.20001220703</ele>
        <time>2020-06-28T08:10:15.000Z</time>
      </trkpt>
      <trkpt lat="49.76326" lon="5.59766">
        <ele>477.20001220703</ele>
        <time>2020-06-28T08:10:24.000Z</time>
      </trkpt>
      <trkpt lat="49.76308" lon="5.59758">
        <ele>476.79998779297</ele>
        <time>2020-06-28T08:10:28.000Z</time>
      </trkpt>
      <trkpt lat="49.76299" lon="5.59755">
        <ele>476.60000610352</ele>
        <time>2020-06-28T08:10:32.000Z</time>
      </trkpt>
      <trkpt lat="49.76297" lon="5.59754">
        <ele>476.39999389648</ele>
        <time>2020-06-28T08:10:33.000Z</time>
      </trkpt>
      <trkpt lat="49.76279" lon="5.5974">
        <ele>476.39999389648</ele>
        <time>2020-06-28T08:10:42.000Z</time>
      </trkpt>
      <trkpt lat="49.76261" lon="5.5973">
        <ele>476.39999389648</ele>
        <time>2020-06-28T08:10:45.000Z</time>
      </trkpt>
      <trkpt lat="49.76239" lon="5.59718">
        <ele>476.39999389648</ele>
        <time>2020-06-28T08:10:49.000Z</time>
      </trkpt>
      <trkpt lat="49.76228" lon="5.59711">
        <ele>476.39999389648</ele>
        <time>2020-06-28T08:10:51.000Z</time>
      </trkpt>
      <trkpt lat="49.76223" lon="5.59707">
        <ele>476.60000610352</ele>
        <time>2020-06-28T08:10:52.000Z</time>
      </trkpt>
      <trkpt lat="49.76203" lon="5.59693">
        <ele>476.60000610352</ele>
        <time>2020-06-28T08:10:56.000Z</time>
      </trkpt>
      <trkpt lat="49.76199" lon="5.5969">
        <ele>476.60000610352</ele>
        <time>2020-06-28T08:10:57.000Z</time>
      </trkpt>
      <trkpt lat="49.76179" lon="5.59674">
        <ele>477</ele>
        <time>2020-06-28T08:11:03.000Z</time>
      </trkpt>
      <trkpt lat="49.76175" lon="5.59671">
        <ele>477.20001220703</ele>
        <time>2020-06-28T08:11:04.000Z</time>
      </trkpt>
      <trkpt lat="49.76173" lon="5.59669">
        <ele>477.20001220703</ele>
        <time>2020-06-28T08:11:05.000Z</time>
      </trkpt>
      <trkpt lat="49.76155" lon="5.59655">
        <ele>477.60000610352</ele>
        <time>2020-06-28T08:11:10.000Z</time>
      </trkpt>
      <trkpt lat="49.76151" lon="5.59652">
        <ele>477.60000610352</ele>
        <time>2020-06-28T08:11:11.000Z</time>
      </trkpt>
      <trkpt lat="49.76146" lon="5.59649">
        <ele>477.60000610352</ele>
        <time>2020-06-28T08:11:12.000Z</time>
      </trkpt>
      <trkpt lat="49.76129" lon="5.59637">
        <ele>478</ele>
        <time>2020-06-28T08:11:15.000Z</time>
      </trkpt>
      <trkpt lat="49.7612" lon="5.5963">
        <ele>478</ele>
        <time>2020-06-28T08:11:17.000Z</time>
      </trkpt>
      <trkpt lat="49.76102" lon="5.59616">
        <ele>477</ele>
        <time>2020-06-28T08:11:22.000Z</time>
      </trkpt>
      <trkpt lat="49.761" lon="5.59613">
        <ele>477</ele>
        <time>2020-06-28T08:11:23.000Z</time>
      </trkpt>
      <trkpt lat="49.76083" lon="5.59601">
        <ele>476.20001220703</ele>
        <time>2020-06-28T08:11:27.000Z</time>
      </trkpt>
      <trkpt lat="49.76074" lon="5.59596">
        <ele>475.79998779297</ele>
        <time>2020-06-28T08:11:29.000Z</time>
      </trkpt>
      <trkpt lat="49.7607" lon="5.59593">
        <ele>475.60000610352</ele>
        <time>2020-06-28T08:11:30.000Z</time>
      </trkpt>
      <trkpt lat="49.76061" lon="5.59588">
        <ele>475.20001220703</ele>
        <time>2020-06-28T08:11:32.000Z</time>
      </trkpt>
      <trkpt lat="49.76042" lon="5.59582">
        <ele>474.60000610352</ele>
        <time>2020-06-28T08:11:36.000Z</time>
      </trkpt>
      <trkpt lat="49.76033" lon="5.5958">
        <ele>475</ele>
        <time>2020-06-28T08:11:38.000Z</time>
      </trkpt>
      <trkpt lat="49.76028" lon="5.59579">
        <ele>475.60000610352</ele>
        <time>2020-06-28T08:11:39.000Z</time>
      </trkpt>
      <trkpt lat="49.76015" lon="5.59576">
        <ele>477</ele>
        <time>2020-06-28T08:11:42.000Z</time>
      </trkpt>
      <trkpt lat="49.76007" lon="5.59574">
        <ele>478</ele>
        <time>2020-06-28T08:11:44.000Z</time>
      </trkpt>
      <trkpt lat="49.75986" lon="5.59565">
        <ele>480.39999389648</ele>
        <time>2020-06-28T08:11:48.000Z</time>
      </trkpt>
      <trkpt lat="49.75966" lon="5.59556">
        <ele>482.60000610352</ele>
        <time>2020-06-28T08:11:51.000Z</time>
      </trkpt>
      <trkpt lat="49.75947" lon="5.59544">
        <ele>483.79998779297</ele>
        <time>2020-06-28T08:11:55.000Z</time>
      </trkpt>
      <trkpt lat="49.75939" lon="5.59537">
        <ele>483.60000610352</ele>
        <time>2020-06-28T08:11:57.000Z</time>
      </trkpt>
      <trkpt lat="49.75934" lon="5.59533">
        <ele>483.60000610352</ele>
        <time>2020-06-28T08:11:58.000Z</time>
      </trkpt>
      <trkpt lat="49.75917" lon="5.59517">
        <ele>483.20001220703</ele>
        <time>2020-06-28T08:12:02.000Z</time>
      </trkpt>
      <trkpt lat="49.75903" lon="5.59504">
        <ele>483</ele>
        <time>2020-06-28T08:12:06.000Z</time>
      </trkpt>
      <trkpt lat="49.75885" lon="5.59491">
        <ele>482.60000610352</ele>
        <time>2020-06-28T08:12:09.000Z</time>
      </trkpt>
      <trkpt lat="49.7587" lon="5.59472">
        <ele>482</ele>
        <time>2020-06-28T08:12:13.000Z</time>
      </trkpt>
      <trkpt lat="49.75853" lon="5.59451">
        <ele>480.60000610352</ele>
        <time>2020-06-28T08:12:18.000Z</time>
      </trkpt>
      <trkpt lat="49.7585" lon="5.5943">
        <ele>478.79998779297</ele>
        <time>2020-06-28T08:12:23.000Z</time>
      </trkpt>
      <trkpt lat="49.75851" lon="5.59426">
        <ele>478.39999389648</ele>
        <time>2020-06-28T08:12:24.000Z</time>
      </trkpt>
      <trkpt lat="49.75862" lon="5.59404">
        <ele>476.60000610352</ele>
        <time>2020-06-28T08:12:29.000Z</time>
      </trkpt>
      <trkpt lat="49.75877" lon="5.59383">
        <ele>474.79998779297</ele>
        <time>2020-06-28T08:12:33.000Z</time>
      </trkpt>
      <trkpt lat="49.75889" lon="5.59367">
        <ele>473.79998779297</ele>
        <time>2020-06-28T08:12:36.000Z</time>
      </trkpt>
      <trkpt lat="49.75894" lon="5.59362">
        <ele>473.60000610352</ele>
        <time>2020-06-28T08:12:37.000Z</time>
      </trkpt>
      <trkpt lat="49.75911" lon="5.59339">
        <ele>472.60000610352</ele>
        <time>2020-06-28T08:12:40.000Z</time>
      </trkpt>
      <trkpt lat="49.75929" lon="5.59314">
        <ele>472.20001220703</ele>
        <time>2020-06-28T08:12:43.000Z</time>
      </trkpt>
      <trkpt lat="49.75949" lon="5.59288">
        <ele>471.60000610352</ele>
        <time>2020-06-28T08:12:46.000Z</time>
      </trkpt>
      <trkpt lat="49.75956" lon="5.59279">
        <ele>470.79998779297</ele>
        <time>2020-06-28T08:12:47.000Z</time>
      </trkpt>
      <trkpt lat="49.75975" lon="5.59254">
        <ele>469</ele>
        <time>2020-06-28T08:12:50.000Z</time>
      </trkpt>
      <trkpt lat="49.75993" lon="5.59228">
        <ele>467.39999389648</ele>
        <time>2020-06-28T08:12:53.000Z</time>
      </trkpt>
      <trkpt lat="49.76005" lon="5.59212">
        <ele>466.20001220703</ele>
        <time>2020-06-28T08:12:55.000Z</time>
      </trkpt>
      <trkpt lat="49.76022" lon="5.5919">
        <ele>464.39999389648</ele>
        <time>2020-06-28T08:12:58.000Z</time>
      </trkpt>
      <trkpt lat="49.76035" lon="5.59173">
        <ele>463.79998779297</ele>
        <time>2020-06-28T08:13:01.000Z</time>
      </trkpt>
      <trkpt lat="49.76042" lon="5.59166">
        <ele>463.79998779297</ele>
        <time>2020-06-28T08:13:03.000Z</time>
      </trkpt>
      <trkpt lat="49.76056" lon="5.59147">
        <ele>464</ele>
        <time>2020-06-28T08:13:07.000Z</time>
      </trkpt>
      <trkpt lat="49.76063" lon="5.59138">
        <ele>464</ele>
        <time>2020-06-28T08:13:09.000Z</time>
      </trkpt>
      <trkpt lat="49.76066" lon="5.59133">
        <ele>464</ele>
        <time>2020-06-28T08:13:10.000Z</time>
      </trkpt>
      <trkpt lat="49.76072" lon="5.59124">
        <ele>464.39999389648</ele>
        <time>2020-06-28T08:13:12.000Z</time>
      </trkpt>
      <trkpt lat="49.76086" lon="5.59104">
        <ele>465</ele>
        <time>2020-06-28T08:13:16.000Z</time>
      </trkpt>
      <trkpt lat="49.76092" lon="5.59084">
        <ele>465.39999389648</ele>
        <time>2020-06-28T08:13:20.000Z</time>
      </trkpt>
      <trkpt lat="49.76095" lon="5.5908">
        <ele>465.39999389648</ele>
        <time>2020-06-28T08:13:21.000Z</time>
      </trkpt>
      <trkpt lat="49.76106" lon="5.59064">
        <ele>466</ele>
        <time>2020-06-28T08:13:24.000Z</time>
      </trkpt>
      <trkpt lat="49.76116" lon="5.59046">
        <ele>466.60000610352</ele>
        <time>2020-06-28T08:13:27.000Z</time>
      </trkpt>
      <trkpt lat="49.76131" lon="5.5902">
        <ele>466.60000610352</ele>
        <time>2020-06-28T08:13:31.000Z</time>
      </trkpt>
      <trkpt lat="49.76143" lon="5.58999">
        <ele>466.79998779297</ele>
        <time>2020-06-28T08:13:34.000Z</time>
      </trkpt>
      <trkpt lat="49.76157" lon="5.58981">
        <ele>466.39999389648</ele>
        <time>2020-06-28T08:13:37.000Z</time>
      </trkpt>
      <trkpt lat="49.76167" lon="5.58969">
        <ele>466.20001220703</ele>
        <time>2020-06-28T08:13:39.000Z</time>
      </trkpt>
      <trkpt lat="49.76173" lon="5.58961">
        <ele>466.39999389648</ele>
        <time>2020-06-28T08:13:40.000Z</time>
      </trkpt>
      <trkpt lat="49.76195" lon="5.58937">
        <ele>466</ele>
        <time>2020-06-28T08:13:43.000Z</time>
      </trkpt>
      <trkpt lat="49.76204" lon="5.58928">
        <ele>465.60000610352</ele>
        <time>2020-06-28T08:13:44.000Z</time>
      </trkpt>
      <trkpt lat="49.76213" lon="5.58918">
        <ele>464.79998779297</ele>
        <time>2020-06-28T08:13:45.000Z</time>
      </trkpt>
      <trkpt lat="49.7623" lon="5.58898">
        <ele>463</ele>
        <time>2020-06-28T08:13:47.000Z</time>
      </trkpt>
      <trkpt lat="49.76251" lon="5.58869">
        <ele>460.20001220703</ele>
        <time>2020-06-28T08:13:50.000Z</time>
      </trkpt>
      <trkpt lat="49.76258" lon="5.5886">
        <ele>459.60000610352</ele>
        <time>2020-06-28T08:13:51.000Z</time>
      </trkpt>
      <trkpt lat="49.76273" lon="5.5884">
        <ele>458.39999389648</ele>
        <time>2020-06-28T08:13:53.000Z</time>
      </trkpt>
      <trkpt lat="49.76286" lon="5.5882">
        <ele>457.39999389648</ele>
        <time>2020-06-28T08:13:55.000Z</time>
      </trkpt>
      <trkpt lat="49.76306" lon="5.58792">
        <ele>457.39999389648</ele>
        <time>2020-06-28T08:13:58.000Z</time>
      </trkpt>
      <trkpt lat="49.76319" lon="5.58773">
        <ele>457.39999389648</ele>
        <time>2020-06-28T08:14:00.000Z</time>
      </trkpt>
      <trkpt lat="49.76335" lon="5.58752">
        <ele>458</ele>
        <time>2020-06-28T08:14:03.000Z</time>
      </trkpt>
      <trkpt lat="49.76341" lon="5.58743">
        <ele>458.60000610352</ele>
        <time>2020-06-28T08:14:04.000Z</time>
      </trkpt>
      <trkpt lat="49.76352" lon="5.58727">
        <ele>459.60000610352</ele>
        <time>2020-06-28T08:14:06.000Z</time>
      </trkpt>
      <trkpt lat="49.76366" lon="5.58707">
        <ele>460.79998779297</ele>
        <time>2020-06-28T08:14:09.000Z</time>
      </trkpt>
      <trkpt lat="49.76375" lon="5.58696">
        <ele>461.39999389648</ele>
        <time>2020-06-28T08:14:11.000Z</time>
      </trkpt>
      <trkpt lat="49.7638" lon="5.58687">
        <ele>462</ele>
        <time>2020-06-28T08:14:13.000Z</time>
      </trkpt>
      <trkpt lat="49.76386" lon="5.58679">
        <ele>462.39999389648</ele>
        <time>2020-06-28T08:14:15.000Z</time>
      </trkpt>
      <trkpt lat="49.76391" lon="5.58667">
        <ele>462.79998779297</ele>
        <time>2020-06-28T08:14:18.000Z</time>
      </trkpt>
      <trkpt lat="49.76385" lon="5.58638">
        <ele>462.39999389648</ele>
        <time>2020-06-28T08:14:24.000Z</time>
      </trkpt>
      <trkpt lat="49.76374" lon="5.58613">
        <ele>462</ele>
        <time>2020-06-28T08:14:28.000Z</time>
      </trkpt>
      <trkpt lat="49.76368" lon="5.58601">
        <ele>461.79998779297</ele>
        <time>2020-06-28T08:14:30.000Z</time>
      </trkpt>
      <trkpt lat="49.76364" lon="5.58595">
        <ele>461.60000610352</ele>
        <time>2020-06-28T08:14:31.000Z</time>
      </trkpt>
      <trkpt lat="49.7635" lon="5.58563">
        <ele>460.39999389648</ele>
        <time>2020-06-28T08:14:35.000Z</time>
      </trkpt>
      <trkpt lat="49.76347" lon="5.58553">
        <ele>460.20001220703</ele>
        <time>2020-06-28T08:14:36.000Z</time>
      </trkpt>
      <trkpt lat="49.76339" lon="5.58524">
        <ele>459.39999389648</ele>
        <time>2020-06-28T08:14:39.000Z</time>
      </trkpt>
      <trkpt lat="49.7633" lon="5.58507">
        <ele>458.39999389648</ele>
        <time>2020-06-28T08:14:41.000Z</time>
      </trkpt>
      <trkpt lat="49.76326" lon="5.58498">
        <ele>458</ele>
        <time>2020-06-28T08:14:42.000Z</time>
      </trkpt>
      <trkpt lat="49.76313" lon="5.58472">
        <ele>456.39999389648</ele>
        <time>2020-06-28T08:14:45.000Z</time>
      </trkpt>
      <trkpt lat="49.7629" lon="5.58459">
        <ele>455.39999389648</ele>
        <time>2020-06-28T08:14:48.000Z</time>
      </trkpt>
      <trkpt lat="49.76271" lon="5.58456">
        <ele>454.79998779297</ele>
        <time>2020-06-28T08:14:50.000Z</time>
      </trkpt>
      <trkpt lat="49.76247" lon="5.5845">
        <ele>454.20001220703</ele>
        <time>2020-06-28T08:14:53.000Z</time>
      </trkpt>
      <trkpt lat="49.76242" lon="5.58446">
        <ele>454.20001220703</ele>
        <time>2020-06-28T08:14:54.000Z</time>
      </trkpt>
      <trkpt lat="49.76222" lon="5.58432">
        <ele>454</ele>
        <time>2020-06-28T08:14:57.000Z</time>
      </trkpt>
      <trkpt lat="49.76206" lon="5.58423">
        <ele>453.60000610352</ele>
        <time>2020-06-28T08:14:59.000Z</time>
      </trkpt>
      <trkpt lat="49.76184" lon="5.5841">
        <ele>452</ele>
        <time>2020-06-28T08:15:02.000Z</time>
      </trkpt>
      <trkpt lat="49.76177" lon="5.58405">
        <ele>451.60000610352</ele>
        <time>2020-06-28T08:15:03.000Z</time>
      </trkpt>
      <trkpt lat="49.76153" lon="5.584">
        <ele>449.39999389648</ele>
        <time>2020-06-28T08:15:06.000Z</time>
      </trkpt>
      <trkpt lat="49.76146" lon="5.58399">
        <ele>448.79998779297</ele>
        <time>2020-06-28T08:15:07.000Z</time>
      </trkpt>
      <trkpt lat="49.76128" lon="5.58398">
        <ele>447.39999389648</ele>
        <time>2020-06-28T08:15:09.000Z</time>
      </trkpt>
      <trkpt lat="49.76107" lon="5.58398">
        <ele>446.60000610352</ele>
        <time>2020-06-28T08:15:11.000Z</time>
      </trkpt>
      <trkpt lat="49.76088" lon="5.58396">
        <ele>446</ele>
        <time>2020-06-28T08:15:13.000Z</time>
      </trkpt>
      <trkpt lat="49.76067" lon="5.58384">
        <ele>445</ele>
        <time>2020-06-28T08:15:16.000Z</time>
      </trkpt>
      <trkpt lat="49.7605" lon="5.58367">
        <ele>444</ele>
        <time>2020-06-28T08:15:19.000Z</time>
      </trkpt>
      <trkpt lat="49.76037" lon="5.58346">
        <ele>443</ele>
        <time>2020-06-28T08:15:22.000Z</time>
      </trkpt>
      <trkpt lat="49.76032" lon="5.58339">
        <ele>442.79998779297</ele>
        <time>2020-06-28T08:15:23.000Z</time>
      </trkpt>
      <trkpt lat="49.76026" lon="5.58332">
        <ele>442.60000610352</ele>
        <time>2020-06-28T08:15:24.000Z</time>
      </trkpt>
      <trkpt lat="49.76007" lon="5.58319">
        <ele>442</ele>
        <time>2020-06-28T08:15:26.000Z</time>
      </trkpt>
      <trkpt lat="49.75997" lon="5.58305">
        <ele>441.60000610352</ele>
        <time>2020-06-28T08:15:28.000Z</time>
      </trkpt>
      <trkpt lat="49.75989" lon="5.58292">
        <ele>441</ele>
        <time>2020-06-28T08:15:30.000Z</time>
      </trkpt>
      <trkpt lat="49.75978" lon="5.58265">
        <ele>440</ele>
        <time>2020-06-28T08:15:33.000Z</time>
      </trkpt>
      <trkpt lat="49.75971" lon="5.58247">
        <ele>439.20001220703</ele>
        <time>2020-06-28T08:15:35.000Z</time>
      </trkpt>
      <trkpt lat="49.75969" lon="5.58214">
        <ele>439.39999389648</ele>
        <time>2020-06-28T08:15:39.000Z</time>
      </trkpt>
      <trkpt lat="49.75969" lon="5.58185">
        <ele>438.79998779297</ele>
        <time>2020-06-28T08:15:44.000Z</time>
      </trkpt>
      <trkpt lat="49.75964" lon="5.58159">
        <ele>437.60000610352</ele>
        <time>2020-06-28T08:15:49.000Z</time>
      </trkpt>
      <trkpt lat="49.75963" lon="5.58152">
        <ele>437.39999389648</ele>
        <time>2020-06-28T08:15:50.000Z</time>
      </trkpt>
      <trkpt lat="49.75956" lon="5.58129">
        <ele>436.60000610352</ele>
        <time>2020-06-28T08:15:54.000Z</time>
      </trkpt>
      <trkpt lat="49.75953" lon="5.58098">
        <ele>437.79998779297</ele>
        <time>2020-06-28T08:15:58.000Z</time>
      </trkpt>
      <trkpt lat="49.75946" lon="5.58062">
        <ele>439.60000610352</ele>
        <time>2020-06-28T08:16:02.000Z</time>
      </trkpt>
      <trkpt lat="49.7593" lon="5.58031">
        <ele>439.60000610352</ele>
        <time>2020-06-28T08:16:05.000Z</time>
      </trkpt>
      <trkpt lat="49.7592" lon="5.58003">
        <ele>440.20001220703</ele>
        <time>2020-06-28T08:16:08.000Z</time>
      </trkpt>
      <trkpt lat="49.75909" lon="5.57977">
        <ele>441</ele>
        <time>2020-06-28T08:16:11.000Z</time>
      </trkpt>
      <trkpt lat="49.75907" lon="5.5796">
        <ele>441.39999389648</ele>
        <time>2020-06-28T08:16:13.000Z</time>
      </trkpt>
      <trkpt lat="49.75906" lon="5.57952">
        <ele>441.39999389648</ele>
        <time>2020-06-28T08:16:14.000Z</time>
      </trkpt>
      <trkpt lat="49.75903" lon="5.57936">
        <ele>441</ele>
        <time>2020-06-28T08:16:16.000Z</time>
      </trkpt>
      <trkpt lat="49.75892" lon="5.57906">
        <ele>440</ele>
        <time>2020-06-28T08:16:20.000Z</time>
      </trkpt>
      <trkpt lat="49.75877" lon="5.57881">
        <ele>438.79998779297</ele>
        <time>2020-06-28T08:16:23.000Z</time>
      </trkpt>
      <trkpt lat="49.75865" lon="5.57857">
        <ele>438.20001220703</ele>
        <time>2020-06-28T08:16:26.000Z</time>
      </trkpt>
      <trkpt lat="49.75856" lon="5.57828">
        <ele>438.20001220703</ele>
        <time>2020-06-28T08:16:30.000Z</time>
      </trkpt>
      <trkpt lat="49.75854" lon="5.57819">
        <ele>438.39999389648</ele>
        <time>2020-06-28T08:16:31.000Z</time>
      </trkpt>
      <trkpt lat="49.75851" lon="5.57811">
        <ele>438.39999389648</ele>
        <time>2020-06-28T08:16:32.000Z</time>
      </trkpt>
      <trkpt lat="49.75846" lon="5.57779">
        <ele>437.20001220703</ele>
        <time>2020-06-28T08:16:36.000Z</time>
      </trkpt>
      <trkpt lat="49.75842" lon="5.57749">
        <ele>437</ele>
        <time>2020-06-28T08:16:41.000Z</time>
      </trkpt>
      <trkpt lat="49.75841" lon="5.57745">
        <ele>437</ele>
        <time>2020-06-28T08:16:42.000Z</time>
      </trkpt>
      <trkpt lat="49.7584" lon="5.57741">
        <ele>437</ele>
        <time>2020-06-28T08:16:43.000Z</time>
      </trkpt>
      <trkpt lat="49.75835" lon="5.57711">
        <ele>436.39999389648</ele>
        <time>2020-06-28T08:16:50.000Z</time>
      </trkpt>
      <trkpt lat="49.75828" lon="5.57681">
        <ele>434</ele>
        <time>2020-06-28T08:16:58.000Z</time>
      </trkpt>
      <trkpt lat="49.75826" lon="5.57676">
        <ele>433.60000610352</ele>
        <time>2020-06-28T08:16:59.000Z</time>
      </trkpt>
      <trkpt lat="49.75824" lon="5.57665">
        <ele>433</ele>
        <time>2020-06-28T08:17:01.000Z</time>
      </trkpt>
      <trkpt lat="49.75821" lon="5.57636">
        <ele>432.79998779297</ele>
        <time>2020-06-28T08:17:08.000Z</time>
      </trkpt>
      <trkpt lat="49.75824" lon="5.57623">
        <ele>433</ele>
        <time>2020-06-28T08:17:11.000Z</time>
      </trkpt>
      <trkpt lat="49.75826" lon="5.57615">
        <ele>433.20001220703</ele>
        <time>2020-06-28T08:17:13.000Z</time>
      </trkpt>
      <trkpt lat="49.75836" lon="5.5759">
        <ele>433.79998779297</ele>
        <time>2020-06-28T08:17:20.000Z</time>
      </trkpt>
      <trkpt lat="49.7585" lon="5.57572">
        <ele>434.79998779297</ele>
        <time>2020-06-28T08:17:29.000Z</time>
      </trkpt>
      <trkpt lat="49.75851" lon="5.57569">
        <ele>434.79998779297</ele>
        <time>2020-06-28T08:17:30.000Z</time>
      </trkpt>
      <trkpt lat="49.75852" lon="5.57565">
        <ele>434.79998779297</ele>
        <time>2020-06-28T08:17:31.000Z</time>
      </trkpt>
      <trkpt lat="49.75838" lon="5.57529">
        <ele>432.60000610352</ele>
        <time>2020-06-28T08:17:43.000Z</time>
      </trkpt>
      <trkpt lat="49.75839" lon="5.57526">
        <ele>433</ele>
        <time>2020-06-28T08:17:44.000Z</time>
      </trkpt>
      <trkpt lat="49.75836" lon="5.57515">
        <ele>432.79998779297</ele>
        <time>2020-06-28T08:17:48.000Z</time>
      </trkpt>
      <trkpt lat="49.75835" lon="5.57512">
        <ele>432.60000610352</ele>
        <time>2020-06-28T08:17:49.000Z</time>
      </trkpt>
      <trkpt lat="49.75846" lon="5.57496">
        <ele>432.79998779297</ele>
        <time>2020-06-28T08:17:54.000Z</time>
      </trkpt>
      <trkpt lat="49.75848" lon="5.57494">
        <ele>433</ele>
        <time>2020-06-28T08:17:55.000Z</time>
      </trkpt>
      <trkpt lat="49.75857" lon="5.57485">
        <ele>433.39999389648</ele>
        <time>2020-06-28T08:17:58.000Z</time>
      </trkpt>
      <trkpt lat="49.75871" lon="5.57462">
        <ele>434.39999389648</ele>
        <time>2020-06-28T08:18:05.000Z</time>
      </trkpt>
      <trkpt lat="49.75884" lon="5.57439">
        <ele>435.79998779297</ele>
        <time>2020-06-28T08:18:13.000Z</time>
      </trkpt>
      <trkpt lat="49.75885" lon="5.57437">
        <ele>436</ele>
        <time>2020-06-28T08:18:14.000Z</time>
      </trkpt>
      <trkpt lat="49.75896" lon="5.57411">
        <ele>437.79998779297</ele>
        <time>2020-06-28T08:18:24.000Z</time>
      </trkpt>
      <trkpt lat="49.75896" lon="5.57408">
        <ele>437.79998779297</ele>
        <time>2020-06-28T08:18:25.000Z</time>
      </trkpt>
      <trkpt lat="49.75901" lon="5.574">
        <ele>437.79998779297</ele>
        <time>2020-06-28T08:18:29.000Z</time>
      </trkpt>
      <trkpt lat="49.75902" lon="5.57396">
        <ele>437.79998779297</ele>
        <time>2020-06-28T08:18:30.000Z</time>
      </trkpt>
      <trkpt lat="49.75914" lon="5.57379">
        <ele>437.60000610352</ele>
        <time>2020-06-28T08:18:36.000Z</time>
      </trkpt>
      <trkpt lat="49.75916" lon="5.57375">
        <ele>437.60000610352</ele>
        <time>2020-06-28T08:18:37.000Z</time>
      </trkpt>
      <trkpt lat="49.75924" lon="5.57367">
        <ele>437.79998779297</ele>
        <time>2020-06-28T08:18:41.000Z</time>
      </trkpt>
      <trkpt lat="49.75927" lon="5.57365">
        <ele>437.60000610352</ele>
        <time>2020-06-28T08:18:42.000Z</time>
      </trkpt>
      <trkpt lat="49.75944" lon="5.57348">
        <ele>438</ele>
        <time>2020-06-28T08:18:48.000Z</time>
      </trkpt>
      <trkpt lat="49.75955" lon="5.57342">
        <ele>438.20001220703</ele>
        <time>2020-06-28T08:18:51.000Z</time>
      </trkpt>
      <trkpt lat="49.75959" lon="5.5734">
        <ele>438.60000610352</ele>
        <time>2020-06-28T08:18:52.000Z</time>
      </trkpt>
      <trkpt lat="49.75977" lon="5.57332">
        <ele>441</ele>
        <time>2020-06-28T08:18:57.000Z</time>
      </trkpt>
      <trkpt lat="49.75984" lon="5.5733">
        <ele>441.79998779297</ele>
        <time>2020-06-28T08:18:59.000Z</time>
      </trkpt>
      <trkpt lat="49.75987" lon="5.57329">
        <ele>441.79998779297</ele>
        <time>2020-06-28T08:19:00.000Z</time>
      </trkpt>
      <trkpt lat="49.75999" lon="5.57325">
        <ele>441.60000610352</ele>
        <time>2020-06-28T08:19:04.000Z</time>
      </trkpt>
      <trkpt lat="49.76004" lon="5.57324">
        <ele>441.79998779297</ele>
        <time>2020-06-28T08:19:06.000Z</time>
      </trkpt>
      <trkpt lat="49.76015" lon="5.57327">
        <ele>442</ele>
        <time>2020-06-28T08:19:09.000Z</time>
      </trkpt>
      <trkpt lat="49.76024" lon="5.5733">
        <ele>442.20001220703</ele>
        <time>2020-06-28T08:19:13.000Z</time>
      </trkpt>
      <trkpt lat="49.76029" lon="5.57332">
        <ele>442.39999389648</ele>
        <time>2020-06-28T08:19:14.000Z</time>
      </trkpt>
      <trkpt lat="49.76043" lon="5.57338">
        <ele>443</ele>
        <time>2020-06-28T08:19:18.000Z</time>
      </trkpt>
      <trkpt lat="49.76053" lon="5.57342">
        <ele>443.79998779297</ele>
        <time>2020-06-28T08:19:21.000Z</time>
      </trkpt>
      <trkpt lat="49.76067" lon="5.57349">
        <ele>444.79998779297</ele>
        <time>2020-06-28T08:19:25.000Z</time>
      </trkpt>
      <trkpt lat="49.76075" lon="5.57352">
        <ele>445.20001220703</ele>
        <time>2020-06-28T08:19:27.000Z</time>
      </trkpt>
      <trkpt lat="49.76093" lon="5.5736">
        <ele>446.39999389648</ele>
        <time>2020-06-28T08:19:32.000Z</time>
      </trkpt>
      <trkpt lat="49.76097" lon="5.57362">
        <ele>446.79998779297</ele>
        <time>2020-06-28T08:19:33.000Z</time>
      </trkpt>
      <trkpt lat="49.76116" lon="5.57373">
        <ele>448</ele>
        <time>2020-06-28T08:19:40.000Z</time>
      </trkpt>
      <trkpt lat="49.76133" lon="5.57382">
        <ele>448.60000610352</ele>
        <time>2020-06-28T08:19:46.000Z</time>
      </trkpt>
      <trkpt lat="49.76153" lon="5.57392">
        <ele>448.60000610352</ele>
        <time>2020-06-28T08:19:52.000Z</time>
      </trkpt>
      <trkpt lat="49.76157" lon="5.57394">
        <ele>448.60000610352</ele>
        <time>2020-06-28T08:19:53.000Z</time>
      </trkpt>
      <trkpt lat="49.76173" lon="5.57407">
        <ele>449</ele>
        <time>2020-06-28T08:19:59.000Z</time>
      </trkpt>
      <trkpt lat="49.76175" lon="5.57408">
        <ele>449.20001220703</ele>
        <time>2020-06-28T08:20:00.000Z</time>
      </trkpt>
      <trkpt lat="49.76177" lon="5.5741">
        <ele>449.20001220703</ele>
        <time>2020-06-28T08:20:01.000Z</time>
      </trkpt>
      <trkpt lat="49.76184" lon="5.57416">
        <ele>449.39999389648</ele>
        <time>2020-06-28T08:20:04.000Z</time>
      </trkpt>
      <trkpt lat="49.76193" lon="5.57421">
        <ele>449.39999389648</ele>
        <time>2020-06-28T08:20:08.000Z</time>
      </trkpt>
      <trkpt lat="49.76207" lon="5.57427">
        <ele>449.60000610352</ele>
        <time>2020-06-28T08:20:14.000Z</time>
      </trkpt>
      <trkpt lat="49.76209" lon="5.57429">
        <ele>449.60000610352</ele>
        <time>2020-06-28T08:20:15.000Z</time>
      </trkpt>
      <trkpt lat="49.76228" lon="5.57434">
        <ele>450</ele>
        <time>2020-06-28T08:20:22.000Z</time>
      </trkpt>
      <trkpt lat="49.76247" lon="5.57434">
        <ele>450</ele>
        <time>2020-06-28T08:20:30.000Z</time>
      </trkpt>
      <trkpt lat="49.76256" lon="5.57429">
        <ele>449.60000610352</ele>
        <time>2020-06-28T08:20:34.000Z</time>
      </trkpt>
      <trkpt lat="49.7626" lon="5.57428">
        <ele>449.20001220703</ele>
        <time>2020-06-28T08:20:35.000Z</time>
      </trkpt>
      <trkpt lat="49.76278" lon="5.57411">
        <ele>447.39999389648</ele>
        <time>2020-06-28T08:20:41.000Z</time>
      </trkpt>
      <trkpt lat="49.7629" lon="5.57395">
        <ele>445.79998779297</ele>
        <time>2020-06-28T08:20:46.000Z</time>
      </trkpt>
      <trkpt lat="49.76293" lon="5.57391">
        <ele>445.39999389648</ele>
        <time>2020-06-28T08:20:47.000Z</time>
      </trkpt>
      <trkpt lat="49.76312" lon="5.57387">
        <ele>444.79998779297</ele>
        <time>2020-06-28T08:20:52.000Z</time>
      </trkpt>
      <trkpt lat="49.76332" lon="5.57388">
        <ele>444.79998779297</ele>
        <time>2020-06-28T08:20:56.000Z</time>
      </trkpt>
      <trkpt lat="49.76336" lon="5.57388">
        <ele>444.60000610352</ele>
        <time>2020-06-28T08:20:57.000Z</time>
      </trkpt>
      <trkpt lat="49.76342" lon="5.57388">
        <ele>444.60000610352</ele>
        <time>2020-06-28T08:20:58.000Z</time>
      </trkpt>
      <trkpt lat="49.76362" lon="5.57388">
        <ele>444.39999389648</ele>
        <time>2020-06-28T08:21:02.000Z</time>
      </trkpt>
      <trkpt lat="49.76378" lon="5.57384">
        <ele>443.39999389648</ele>
        <time>2020-06-28T08:21:06.000Z</time>
      </trkpt>
      <trkpt lat="49.76382" lon="5.57383">
        <ele>443</ele>
        <time>2020-06-28T08:21:07.000Z</time>
      </trkpt>
      <trkpt lat="49.76401" lon="5.57379">
        <ele>441.39999389648</ele>
        <time>2020-06-28T08:21:12.000Z</time>
      </trkpt>
      <trkpt lat="49.76408" lon="5.57378">
        <ele>440.79998779297</ele>
        <time>2020-06-28T08:21:14.000Z</time>
      </trkpt>
      <trkpt lat="49.76415" lon="5.57378">
        <ele>440.20001220703</ele>
        <time>2020-06-28T08:21:16.000Z</time>
      </trkpt>
      <trkpt lat="49.76428" lon="5.57378">
        <ele>439</ele>
        <time>2020-06-28T08:21:20.000Z</time>
      </trkpt>
      <trkpt lat="49.76431" lon="5.57379">
        <ele>438.79998779297</ele>
        <time>2020-06-28T08:21:21.000Z</time>
      </trkpt>
      <trkpt lat="49.76443" lon="5.5738">
        <ele>437.79998779297</ele>
        <time>2020-06-28T08:21:25.000Z</time>
      </trkpt>
      <trkpt lat="49.76446" lon="5.5738">
        <ele>437.60000610352</ele>
        <time>2020-06-28T08:21:26.000Z</time>
      </trkpt>
      <trkpt lat="49.7645" lon="5.5738">
        <ele>437.20001220703</ele>
        <time>2020-06-28T08:21:28.000Z</time>
      </trkpt>
      <trkpt lat="49.76462" lon="5.57379">
        <ele>437.39999389648</ele>
        <time>2020-06-28T08:21:32.000Z</time>
      </trkpt>
      <trkpt lat="49.76468" lon="5.57379">
        <ele>437.60000610352</ele>
        <time>2020-06-28T08:21:34.000Z</time>
      </trkpt>
      <trkpt lat="49.76478" lon="5.57378">
        <ele>437.79998779297</ele>
        <time>2020-06-28T08:21:37.000Z</time>
      </trkpt>
      <trkpt lat="49.76498" lon="5.57385">
        <ele>438.20001220703</ele>
        <time>2020-06-28T08:21:43.000Z</time>
      </trkpt>
      <trkpt lat="49.76501" lon="5.57387">
        <ele>438.39999389648</ele>
        <time>2020-06-28T08:21:44.000Z</time>
      </trkpt>
      <trkpt lat="49.76515" lon="5.57395">
        <ele>439.60000610352</ele>
        <time>2020-06-28T08:21:48.000Z</time>
      </trkpt>
      <trkpt lat="49.76523" lon="5.574">
        <ele>440.39999389648</ele>
        <time>2020-06-28T08:21:50.000Z</time>
      </trkpt>
      <trkpt lat="49.76548" lon="5.57412">
        <ele>441.20001220703</ele>
        <time>2020-06-28T08:21:55.000Z</time>
      </trkpt>
      <trkpt lat="49.76563" lon="5.57417">
        <ele>440.60000610352</ele>
        <time>2020-06-28T08:21:57.000Z</time>
      </trkpt>
      <trkpt lat="49.76568" lon="5.5742">
        <ele>440.60000610352</ele>
        <time>2020-06-28T08:21:58.000Z</time>
      </trkpt>
      <trkpt lat="49.76584" lon="5.57433">
        <ele>440.79998779297</ele>
        <time>2020-06-28T08:22:02.000Z</time>
      </trkpt>
      <trkpt lat="49.76598" lon="5.57446">
        <ele>441.39999389648</ele>
        <time>2020-06-28T08:22:05.000Z</time>
      </trkpt>
      <trkpt lat="49.76604" lon="5.57452">
        <ele>441.60000610352</ele>
        <time>2020-06-28T08:22:06.000Z</time>
      </trkpt>
      <trkpt lat="49.76621" lon="5.57472">
        <ele>442.39999389648</ele>
        <time>2020-06-28T08:22:11.000Z</time>
      </trkpt>
      <trkpt lat="49.76628" lon="5.57479">
        <ele>442.39999389648</ele>
        <time>2020-06-28T08:22:13.000Z</time>
      </trkpt>
      <trkpt lat="49.76631" lon="5.57483">
        <ele>442.20001220703</ele>
        <time>2020-06-28T08:22:14.000Z</time>
      </trkpt>
      <trkpt lat="49.76645" lon="5.57498">
        <ele>441.79998779297</ele>
        <time>2020-06-28T08:22:18.000Z</time>
      </trkpt>
      <trkpt lat="49.76654" lon="5.57508">
        <ele>441.60000610352</ele>
        <time>2020-06-28T08:22:21.000Z</time>
      </trkpt>
      <trkpt lat="49.76663" lon="5.57517">
        <ele>441.20001220703</ele>
        <time>2020-06-28T08:22:24.000Z</time>
      </trkpt>
      <trkpt lat="49.76681" lon="5.57532">
        <ele>440.39999389648</ele>
        <time>2020-06-28T08:22:29.000Z</time>
      </trkpt>
      <trkpt lat="49.76697" lon="5.57549">
        <ele>439.79998779297</ele>
        <time>2020-06-28T08:22:34.000Z</time>
      </trkpt>
      <trkpt lat="49.76711" lon="5.57563">
        <ele>439.39999389648</ele>
        <time>2020-06-28T08:22:38.000Z</time>
      </trkpt>
      <trkpt lat="49.76714" lon="5.57567">
        <ele>439.60000610352</ele>
        <time>2020-06-28T08:22:39.000Z</time>
      </trkpt>
      <trkpt lat="49.76728" lon="5.57582">
        <ele>440.20001220703</ele>
        <time>2020-06-28T08:22:43.000Z</time>
      </trkpt>
      <trkpt lat="49.76732" lon="5.57586">
        <ele>440.20001220703</ele>
        <time>2020-06-28T08:22:44.000Z</time>
      </trkpt>
      <trkpt lat="49.76735" lon="5.57591">
        <ele>440.39999389648</ele>
        <time>2020-06-28T08:22:45.000Z</time>
      </trkpt>
      <trkpt lat="49.76751" lon="5.57612">
        <ele>441.20001220703</ele>
        <time>2020-06-28T08:22:50.000Z</time>
      </trkpt>
      <trkpt lat="49.76764" lon="5.5763">
        <ele>441.79998779297</ele>
        <time>2020-06-28T08:22:54.000Z</time>
      </trkpt>
      <trkpt lat="49.76774" lon="5.57644">
        <ele>442</ele>
        <time>2020-06-28T08:22:57.000Z</time>
      </trkpt>
      <trkpt lat="49.76781" lon="5.57653">
        <ele>442</ele>
        <time>2020-06-28T08:22:59.000Z</time>
      </trkpt>
      <trkpt lat="49.76797" lon="5.57677">
        <ele>442.39999389648</ele>
        <time>2020-06-28T08:23:04.000Z</time>
      </trkpt>
      <trkpt lat="49.76812" lon="5.57701">
        <ele>443.20001220703</ele>
        <time>2020-06-28T08:23:09.000Z</time>
      </trkpt>
      <trkpt lat="49.76824" lon="5.57719">
        <ele>443.79998779297</ele>
        <time>2020-06-28T08:23:13.000Z</time>
      </trkpt>
      <trkpt lat="49.7683" lon="5.57729">
        <ele>444</ele>
        <time>2020-06-28T08:23:15.000Z</time>
      </trkpt>
      <trkpt lat="49.76839" lon="5.57745">
        <ele>444.39999389648</ele>
        <time>2020-06-28T08:23:18.000Z</time>
      </trkpt>
      <trkpt lat="49.76845" lon="5.57762">
        <ele>444.79998779297</ele>
        <time>2020-06-28T08:23:21.000Z</time>
      </trkpt>
      <trkpt lat="49.76849" lon="5.57791">
        <ele>445.79998779297</ele>
        <time>2020-06-28T08:23:26.000Z</time>
      </trkpt>
      <trkpt lat="49.76849" lon="5.57796">
        <ele>446.39999389648</ele>
        <time>2020-06-28T08:23:27.000Z</time>
      </trkpt>
      <trkpt lat="49.7685" lon="5.57802">
        <ele>446.79998779297</ele>
        <time>2020-06-28T08:23:28.000Z</time>
      </trkpt>
      <trkpt lat="49.76851" lon="5.57822">
        <ele>447.39999389648</ele>
        <time>2020-06-28T08:23:32.000Z</time>
      </trkpt>
      <trkpt lat="49.76851" lon="5.57826">
        <ele>447.60000610352</ele>
        <time>2020-06-28T08:23:33.000Z</time>
      </trkpt>
      <trkpt lat="49.7685" lon="5.57845">
        <ele>448.39999389648</ele>
        <time>2020-06-28T08:23:37.000Z</time>
      </trkpt>
      <trkpt lat="49.76849" lon="5.57855">
        <ele>448.79998779297</ele>
        <time>2020-06-28T08:23:39.000Z</time>
      </trkpt>
      <trkpt lat="49.76848" lon="5.57884">
        <ele>450.79998779297</ele>
        <time>2020-06-28T08:23:45.000Z</time>
      </trkpt>
      <trkpt lat="49.76847" lon="5.57889">
        <ele>451.20001220703</ele>
        <time>2020-06-28T08:23:46.000Z</time>
      </trkpt>
      <trkpt lat="49.76847" lon="5.57893">
        <ele>451.39999389648</ele>
        <time>2020-06-28T08:23:47.000Z</time>
      </trkpt>
      <trkpt lat="49.76844" lon="5.57923">
        <ele>453.20001220703</ele>
        <time>2020-06-28T08:23:54.000Z</time>
      </trkpt>
      <trkpt lat="49.76841" lon="5.57952">
        <ele>455.20001220703</ele>
        <time>2020-06-28T08:24:00.000Z</time>
      </trkpt>
      <trkpt lat="49.7684" lon="5.57983">
        <ele>457</ele>
        <time>2020-06-28T08:24:07.000Z</time>
      </trkpt>
      <trkpt lat="49.76846" lon="5.58008">
        <ele>457.60000610352</ele>
        <time>2020-06-28T08:24:15.000Z</time>
      </trkpt>
      <trkpt lat="49.76848" lon="5.58011">
        <ele>457.60000610352</ele>
        <time>2020-06-28T08:24:16.000Z</time>
      </trkpt>
      <trkpt lat="49.76856" lon="5.58023">
        <ele>457.20001220703</ele>
        <time>2020-06-28T08:24:24.000Z</time>
      </trkpt>
      <trkpt lat="49.76857" lon="5.58024">
        <ele>457.20001220703</ele>
        <time>2020-06-28T08:24:25.000Z</time>
      </trkpt>
      <trkpt lat="49.76859" lon="5.58029">
        <ele>457.20001220703</ele>
        <time>2020-06-28T08:24:35.000Z</time>
      </trkpt>
      <trkpt lat="49.76867" lon="5.58059">
        <ele>458</ele>
        <time>2020-06-28T08:24:43.000Z</time>
      </trkpt>
      <trkpt lat="49.76868" lon="5.58068">
        <ele>458.20001220703</ele>
        <time>2020-06-28T08:24:45.000Z</time>
      </trkpt>
      <trkpt lat="49.7687" lon="5.58072">
        <ele>458.39999389648</ele>
        <time>2020-06-28T08:24:46.000Z</time>
      </trkpt>
      <trkpt lat="49.76873" lon="5.58091">
        <ele>459.39999389648</ele>
        <time>2020-06-28T08:24:51.000Z</time>
      </trkpt>
      <trkpt lat="49.76874" lon="5.58095">
        <ele>459.60000610352</ele>
        <time>2020-06-28T08:24:52.000Z</time>
      </trkpt>
      <trkpt lat="49.76876" lon="5.58106">
        <ele>460.20001220703</ele>
        <time>2020-06-28T08:24:56.000Z</time>
      </trkpt>
      <trkpt lat="49.76877" lon="5.58109">
        <ele>460.39999389648</ele>
        <time>2020-06-28T08:24:57.000Z</time>
      </trkpt>
      <trkpt lat="49.76878" lon="5.58115">
        <ele>460.79998779297</ele>
        <time>2020-06-28T08:24:59.000Z</time>
      </trkpt>
      <trkpt lat="49.76883" lon="5.58144">
        <ele>462</ele>
        <time>2020-06-28T08:25:07.000Z</time>
      </trkpt>
      <trkpt lat="49.76891" lon="5.58171">
        <ele>463.39999389648</ele>
        <time>2020-06-28T08:25:13.000Z</time>
      </trkpt>
      <trkpt lat="49.76898" lon="5.58197">
        <ele>464.79998779297</ele>
        <time>2020-06-28T08:25:18.000Z</time>
      </trkpt>
      <trkpt lat="49.76907" lon="5.58225">
        <ele>466</ele>
        <time>2020-06-28T08:25:24.000Z</time>
      </trkpt>
      <trkpt lat="49.76915" lon="5.58247">
        <ele>465.60000610352</ele>
        <time>2020-06-28T08:25:28.000Z</time>
      </trkpt>
      <trkpt lat="49.76917" lon="5.58252">
        <ele>465.60000610352</ele>
        <time>2020-06-28T08:25:29.000Z</time>
      </trkpt>
      <trkpt lat="49.76922" lon="5.58268">
        <ele>465.60000610352</ele>
        <time>2020-06-28T08:25:32.000Z</time>
      </trkpt>
      <trkpt lat="49.76931" lon="5.58294">
        <ele>465.20001220703</ele>
        <time>2020-06-28T08:25:37.000Z</time>
      </trkpt>
      <trkpt lat="49.76933" lon="5.58299">
        <ele>465</ele>
        <time>2020-06-28T08:25:38.000Z</time>
      </trkpt>
      <trkpt lat="49.76935" lon="5.58304">
        <ele>465</ele>
        <time>2020-06-28T08:25:39.000Z</time>
      </trkpt>
      <trkpt lat="49.76943" lon="5.58333">
        <ele>465.39999389648</ele>
        <time>2020-06-28T08:25:45.000Z</time>
      </trkpt>
      <trkpt lat="49.76952" lon="5.58359">
        <ele>465.60000610352</ele>
        <time>2020-06-28T08:25:51.000Z</time>
      </trkpt>
      <trkpt lat="49.76963" lon="5.58384">
        <ele>466</ele>
        <time>2020-06-28T08:25:58.000Z</time>
      </trkpt>
      <trkpt lat="49.76971" lon="5.58402">
        <ele>466.39999389648</ele>
        <time>2020-06-28T08:26:03.000Z</time>
      </trkpt>
      <trkpt lat="49.76973" lon="5.58406">
        <ele>466.39999389648</ele>
        <time>2020-06-28T08:26:04.000Z</time>
      </trkpt>
      <trkpt lat="49.76975" lon="5.58413">
        <ele>466.60000610352</ele>
        <time>2020-06-28T08:26:06.000Z</time>
      </trkpt>
      <trkpt lat="49.76986" lon="5.58431">
        <ele>467.20001220703</ele>
        <time>2020-06-28T08:26:11.000Z</time>
      </trkpt>
      <trkpt lat="49.76988" lon="5.58435">
        <ele>467.20001220703</ele>
        <time>2020-06-28T08:26:12.000Z</time>
      </trkpt>
      <trkpt lat="49.77004" lon="5.58453">
        <ele>467.60000610352</ele>
        <time>2020-06-28T08:26:17.000Z</time>
      </trkpt>
      <trkpt lat="49.77008" lon="5.58457">
        <ele>467.79998779297</ele>
        <time>2020-06-28T08:26:18.000Z</time>
      </trkpt>
      <trkpt lat="49.77011" lon="5.58461">
        <ele>467.79998779297</ele>
        <time>2020-06-28T08:26:19.000Z</time>
      </trkpt>
      <trkpt lat="49.77025" lon="5.58475">
        <ele>468</ele>
        <time>2020-06-28T08:26:23.000Z</time>
      </trkpt>
      <trkpt lat="49.77028" lon="5.58478">
        <ele>468.20001220703</ele>
        <time>2020-06-28T08:26:24.000Z</time>
      </trkpt>
      <trkpt lat="49.77042" lon="5.58499">
        <ele>468.60000610352</ele>
        <time>2020-06-28T08:26:29.000Z</time>
      </trkpt>
      <trkpt lat="49.77052" lon="5.58515">
        <ele>469.39999389648</ele>
        <time>2020-06-28T08:26:33.000Z</time>
      </trkpt>
      <trkpt lat="49.77054" lon="5.58519">
        <ele>469.60000610352</ele>
        <time>2020-06-28T08:26:34.000Z</time>
      </trkpt>
      <trkpt lat="49.77063" lon="5.58535">
        <ele>470.39999389648</ele>
        <time>2020-06-28T08:26:38.000Z</time>
      </trkpt>
      <trkpt lat="49.77065" lon="5.58539">
        <ele>470.39999389648</ele>
        <time>2020-06-28T08:26:39.000Z</time>
      </trkpt>
      <trkpt lat="49.77076" lon="5.58551">
        <ele>471.20001220703</ele>
        <time>2020-06-28T08:26:43.000Z</time>
      </trkpt>
      <trkpt lat="49.77078" lon="5.58553">
        <ele>471.39999389648</ele>
        <time>2020-06-28T08:26:44.000Z</time>
      </trkpt>
      <trkpt lat="49.77084" lon="5.58559">
        <ele>471.60000610352</ele>
        <time>2020-06-28T08:26:46.000Z</time>
      </trkpt>
      <trkpt lat="49.77091" lon="5.58566">
        <ele>471.79998779297</ele>
        <time>2020-06-28T08:26:49.000Z</time>
      </trkpt>
      <trkpt lat="49.77096" lon="5.58573">
        <ele>472</ele>
        <time>2020-06-28T08:26:52.000Z</time>
      </trkpt>
      <trkpt lat="49.77104" lon="5.58583">
        <ele>472.20001220703</ele>
        <time>2020-06-28T08:26:56.000Z</time>
      </trkpt>
      <trkpt lat="49.7711" lon="5.58606">
        <ele>472</ele>
        <time>2020-06-28T08:27:01.000Z</time>
      </trkpt>
      <trkpt lat="49.77111" lon="5.5861">
        <ele>472</ele>
        <time>2020-06-28T08:27:02.000Z</time>
      </trkpt>
      <trkpt lat="49.77114" lon="5.58623">
        <ele>471.79998779297</ele>
        <time>2020-06-28T08:27:05.000Z</time>
      </trkpt>
      <trkpt lat="49.77123" lon="5.5865">
        <ele>471.60000610352</ele>
        <time>2020-06-28T08:27:12.000Z</time>
      </trkpt>
      <trkpt lat="49.77127" lon="5.58658">
        <ele>471.39999389648</ele>
        <time>2020-06-28T08:27:14.000Z</time>
      </trkpt>
      <trkpt lat="49.77145" lon="5.58677">
        <ele>471.60000610352</ele>
        <time>2020-06-28T08:27:19.000Z</time>
      </trkpt>
      <trkpt lat="49.77153" lon="5.58687">
        <ele>471.60000610352</ele>
        <time>2020-06-28T08:27:22.000Z</time>
      </trkpt>
      <trkpt lat="49.77155" lon="5.5869">
        <ele>471.60000610352</ele>
        <time>2020-06-28T08:27:23.000Z</time>
      </trkpt>
      <trkpt lat="49.7716" lon="5.58695">
        <ele>471.60000610352</ele>
        <time>2020-06-28T08:27:25.000Z</time>
      </trkpt>
      <trkpt lat="49.77168" lon="5.58703">
        <ele>471.79998779297</ele>
        <time>2020-06-28T08:27:28.000Z</time>
      </trkpt>
      <trkpt lat="49.77179" lon="5.58726">
        <ele>471.60000610352</ele>
        <time>2020-06-28T08:27:35.000Z</time>
      </trkpt>
      <trkpt lat="49.77183" lon="5.58737">
        <ele>471.79998779297</ele>
        <time>2020-06-28T08:27:39.000Z</time>
      </trkpt>
      <trkpt lat="49.77185" lon="5.5874">
        <ele>471.79998779297</ele>
        <time>2020-06-28T08:27:40.000Z</time>
      </trkpt>
      <trkpt lat="49.77193" lon="5.58765">
        <ele>471.79998779297</ele>
        <time>2020-06-28T08:27:45.000Z</time>
      </trkpt>
      <trkpt lat="49.77204" lon="5.58789">
        <ele>472.20001220703</ele>
        <time>2020-06-28T08:27:50.000Z</time>
      </trkpt>
      <trkpt lat="49.77212" lon="5.58809">
        <ele>472.39999389648</ele>
        <time>2020-06-28T08:27:55.000Z</time>
      </trkpt>
      <trkpt lat="49.77213" lon="5.58813">
        <ele>472.39999389648</ele>
        <time>2020-06-28T08:27:56.000Z</time>
      </trkpt>
      <trkpt lat="49.77224" lon="5.5884">
        <ele>473.39999389648</ele>
        <time>2020-06-28T08:28:02.000Z</time>
      </trkpt>
      <trkpt lat="49.7724" lon="5.58862">
        <ele>474.20001220703</ele>
        <time>2020-06-28T08:28:07.000Z</time>
      </trkpt>
      <trkpt lat="49.77252" lon="5.58876">
        <ele>475</ele>
        <time>2020-06-28T08:28:10.000Z</time>
      </trkpt>
      <trkpt lat="49.77256" lon="5.5888">
        <ele>475.20001220703</ele>
        <time>2020-06-28T08:28:11.000Z</time>
      </trkpt>
      <trkpt lat="49.77266" lon="5.58893">
        <ele>475</ele>
        <time>2020-06-28T08:28:14.000Z</time>
      </trkpt>
      <trkpt lat="49.77275" lon="5.58906">
        <ele>474.39999389648</ele>
        <time>2020-06-28T08:28:17.000Z</time>
      </trkpt>
      <trkpt lat="49.7728" lon="5.58913">
        <ele>474.20001220703</ele>
        <time>2020-06-28T08:28:19.000Z</time>
      </trkpt>
      <trkpt lat="49.77295" lon="5.58931">
        <ele>473</ele>
        <time>2020-06-28T08:28:24.000Z</time>
      </trkpt>
      <trkpt lat="49.77302" lon="5.58938">
        <ele>472.39999389648</ele>
        <time>2020-06-28T08:28:26.000Z</time>
      </trkpt>
      <trkpt lat="49.77306" lon="5.58941">
        <ele>472.20001220703</ele>
        <time>2020-06-28T08:28:27.000Z</time>
      </trkpt>
      <trkpt lat="49.77323" lon="5.58956">
        <ele>470.79998779297</ele>
        <time>2020-06-28T08:28:31.000Z</time>
      </trkpt>
      <trkpt lat="49.77342" lon="5.58968">
        <ele>469.79998779297</ele>
        <time>2020-06-28T08:28:35.000Z</time>
      </trkpt>
      <trkpt lat="49.77356" lon="5.58979">
        <ele>469.20001220703</ele>
        <time>2020-06-28T08:28:38.000Z</time>
      </trkpt>
      <trkpt lat="49.77361" lon="5.58982">
        <ele>469</ele>
        <time>2020-06-28T08:28:39.000Z</time>
      </trkpt>
      <trkpt lat="49.7737" lon="5.58989">
        <ele>468.60000610352</ele>
        <time>2020-06-28T08:28:41.000Z</time>
      </trkpt>
      <trkpt lat="49.7739" lon="5.5901">
        <ele>466.79998779297</ele>
        <time>2020-06-28T08:28:45.000Z</time>
      </trkpt>
      <trkpt lat="49.77407" lon="5.59024">
        <ele>465.39999389648</ele>
        <time>2020-06-28T08:28:48.000Z</time>
      </trkpt>
      <trkpt lat="49.77418" lon="5.59033">
        <ele>464.60000610352</ele>
        <time>2020-06-28T08:28:50.000Z</time>
      </trkpt>
      <trkpt lat="49.77426" lon="5.5904">
        <ele>464</ele>
        <time>2020-06-28T08:28:52.000Z</time>
      </trkpt>
      <trkpt lat="49.77435" lon="5.59047">
        <ele>463.20001220703</ele>
        <time>2020-06-28T08:28:57.000Z</time>
      </trkpt>
      <trkpt lat="49.77436" lon="5.59047">
        <ele>463.20001220703</ele>
        <time>2020-06-28T08:28:58.000Z</time>
      </trkpt>
      <trkpt lat="49.77456" lon="5.59054">
        <ele>462</ele>
        <time>2020-06-28T08:29:05.000Z</time>
      </trkpt>
      <trkpt lat="49.77463" lon="5.5906">
        <ele>462</ele>
        <time>2020-06-28T08:29:14.000Z</time>
      </trkpt>
      <trkpt lat="49.77464" lon="5.5906">
        <ele>462</ele>
        <time>2020-06-28T08:29:17.000Z</time>
      </trkpt>
      <trkpt lat="49.7748" lon="5.59054">
        <ele>462.60000610352</ele>
        <time>2020-06-28T08:29:45.000Z</time>
      </trkpt>
      <trkpt lat="49.77491" lon="5.59038">
        <ele>462.60000610352</ele>
        <time>2020-06-28T08:29:50.000Z</time>
      </trkpt>
      <trkpt lat="49.77492" lon="5.59034">
        <ele>462.39999389648</ele>
        <time>2020-06-28T08:29:51.000Z</time>
      </trkpt>
      <trkpt lat="49.77505" lon="5.59009">
        <ele>461.79998779297</ele>
        <time>2020-06-28T08:29:56.000Z</time>
      </trkpt>
      <trkpt lat="49.77509" lon="5.59001">
        <ele>461</ele>
        <time>2020-06-28T08:29:57.000Z</time>
      </trkpt>
      <trkpt lat="49.77521" lon="5.58976">
        <ele>459</ele>
        <time>2020-06-28T08:30:00.000Z</time>
      </trkpt>
      <trkpt lat="49.77534" lon="5.58941">
        <ele>456.79998779297</ele>
        <time>2020-06-28T08:30:03.000Z</time>
      </trkpt>
      <trkpt lat="49.77538" lon="5.58928">
        <ele>455.60000610352</ele>
        <time>2020-06-28T08:30:04.000Z</time>
      </trkpt>
      <trkpt lat="49.7755" lon="5.58891">
        <ele>453.39999389648</ele>
        <time>2020-06-28T08:30:07.000Z</time>
      </trkpt>
      <trkpt lat="49.77562" lon="5.58863">
        <ele>452.39999389648</ele>
        <time>2020-06-28T08:30:10.000Z</time>
      </trkpt>
      <trkpt lat="49.77565" lon="5.58855">
        <ele>452.20001220703</ele>
        <time>2020-06-28T08:30:11.000Z</time>
      </trkpt>
      <trkpt lat="49.77567" lon="5.58849">
        <ele>452.20001220703</ele>
        <time>2020-06-28T08:30:12.000Z</time>
      </trkpt>
      <trkpt lat="49.77577" lon="5.5882">
        <ele>450</ele>
        <time>2020-06-28T08:30:17.000Z</time>
      </trkpt>
      <trkpt lat="49.77589" lon="5.588">
        <ele>447.39999389648</ele>
        <time>2020-06-28T08:30:22.000Z</time>
      </trkpt>
      <trkpt lat="49.77591" lon="5.58793">
        <ele>447.60000610352</ele>
        <time>2020-06-28T08:30:23.000Z</time>
      </trkpt>
      <trkpt lat="49.776" lon="5.58761">
        <ele>447.60000610352</ele>
        <time>2020-06-28T08:30:27.000Z</time>
      </trkpt>
      <trkpt lat="49.7761" lon="5.58734">
        <ele>446.39999389648</ele>
        <time>2020-06-28T08:30:31.000Z</time>
      </trkpt>
      <trkpt lat="49.77616" lon="5.58717">
        <ele>445.60000610352</ele>
        <time>2020-06-28T08:30:34.000Z</time>
      </trkpt>
      <trkpt lat="49.77617" lon="5.58712">
        <ele>445.79998779297</ele>
        <time>2020-06-28T08:30:35.000Z</time>
      </trkpt>
      <trkpt lat="49.77628" lon="5.58689">
        <ele>444.79998779297</ele>
        <time>2020-06-28T08:30:39.000Z</time>
      </trkpt>
      <trkpt lat="49.77631" lon="5.58682">
        <ele>444.60000610352</ele>
        <time>2020-06-28T08:30:40.000Z</time>
      </trkpt>
      <trkpt lat="49.7764" lon="5.58659">
        <ele>444.20001220703</ele>
        <time>2020-06-28T08:30:43.000Z</time>
      </trkpt>
      <trkpt lat="49.7765" lon="5.58627">
        <ele>443.60000610352</ele>
        <time>2020-06-28T08:30:47.000Z</time>
      </trkpt>
      <trkpt lat="49.77655" lon="5.58612">
        <ele>443.79998779297</ele>
        <time>2020-06-28T08:30:49.000Z</time>
      </trkpt>
      <trkpt lat="49.77661" lon="5.58597">
        <ele>444</ele>
        <time>2020-06-28T08:30:51.000Z</time>
      </trkpt>
      <trkpt lat="49.77674" lon="5.58571">
        <ele>443.60000610352</ele>
        <time>2020-06-28T08:30:55.000Z</time>
      </trkpt>
      <trkpt lat="49.77685" lon="5.58545">
        <ele>443.39999389648</ele>
        <time>2020-06-28T08:30:59.000Z</time>
      </trkpt>
      <trkpt lat="49.77695" lon="5.58521">
        <ele>443.79998779297</ele>
        <time>2020-06-28T08:31:03.000Z</time>
      </trkpt>
      <trkpt lat="49.77699" lon="5.58512">
        <ele>444.20001220703</ele>
        <time>2020-06-28T08:31:05.000Z</time>
      </trkpt>
      <trkpt lat="49.77705" lon="5.58492">
        <ele>445.20001220703</ele>
        <time>2020-06-28T08:31:09.000Z</time>
      </trkpt>
      <trkpt lat="49.77707" lon="5.58486">
        <ele>445.60000610352</ele>
        <time>2020-06-28T08:31:10.000Z</time>
      </trkpt>
      <trkpt lat="49.77718" lon="5.58465">
        <ele>446</ele>
        <time>2020-06-28T08:31:16.000Z</time>
      </trkpt>
      <trkpt lat="49.77736" lon="5.5848">
        <ele>443</ele>
        <time>2020-06-28T08:31:21.000Z</time>
      </trkpt>
      <trkpt lat="49.77755" lon="5.58497">
        <ele>440.39999389648</ele>
        <time>2020-06-28T08:31:25.000Z</time>
      </trkpt>
      <trkpt lat="49.77772" lon="5.5851">
        <ele>438</ele>
        <time>2020-06-28T08:31:28.000Z</time>
      </trkpt>
      <trkpt lat="49.77778" lon="5.58514">
        <ele>437</ele>
        <time>2020-06-28T08:31:29.000Z</time>
      </trkpt>
      <trkpt lat="49.77791" lon="5.58523">
        <ele>435.39999389648</ele>
        <time>2020-06-28T08:31:31.000Z</time>
      </trkpt>
      <trkpt lat="49.77807" lon="5.58533">
        <ele>434</ele>
        <time>2020-06-28T08:31:34.000Z</time>
      </trkpt>
      <trkpt lat="49.77819" lon="5.58517">
        <ele>433.60000610352</ele>
        <time>2020-06-28T08:31:40.000Z</time>
      </trkpt>
      <trkpt lat="49.7782" lon="5.585">
        <ele>434</ele>
        <time>2020-06-28T08:31:44.000Z</time>
      </trkpt>
      <trkpt lat="49.7782" lon="5.58495">
        <ele>433.79998779297</ele>
        <time>2020-06-28T08:31:45.000Z</time>
      </trkpt>
      <trkpt lat="49.77825" lon="5.58464">
        <ele>434</ele>
        <time>2020-06-28T08:31:50.000Z</time>
      </trkpt>
      <trkpt lat="49.77827" lon="5.58434">
        <ele>437</ele>
        <time>2020-06-28T08:31:55.000Z</time>
      </trkpt>
      <trkpt lat="49.77827" lon="5.58411">
        <ele>438.39999389648</ele>
        <time>2020-06-28T08:32:00.000Z</time>
      </trkpt>
      <trkpt lat="49.77828" lon="5.58407">
        <ele>438.39999389648</ele>
        <time>2020-06-28T08:32:01.000Z</time>
      </trkpt>
      <trkpt lat="49.77828" lon="5.58397">
        <ele>438.39999389648</ele>
        <time>2020-06-28T08:32:03.000Z</time>
      </trkpt>
      <trkpt lat="49.77829" lon="5.58371">
        <ele>439.60000610352</ele>
        <time>2020-06-28T08:32:08.000Z</time>
      </trkpt>
      <trkpt lat="49.7783" lon="5.58365">
        <ele>440</ele>
        <time>2020-06-28T08:32:09.000Z</time>
      </trkpt>
      <trkpt lat="49.77831" lon="5.58334">
        <ele>441.60000610352</ele>
        <time>2020-06-28T08:32:15.000Z</time>
      </trkpt>
      <trkpt lat="49.7783" lon="5.58306">
        <ele>442.60000610352</ele>
        <time>2020-06-28T08:32:20.000Z</time>
      </trkpt>
      <trkpt lat="49.7783" lon="5.583">
        <ele>443</ele>
        <time>2020-06-28T08:32:21.000Z</time>
      </trkpt>
      <trkpt lat="49.77829" lon="5.58288">
        <ele>444</ele>
        <time>2020-06-28T08:32:23.000Z</time>
      </trkpt>
      <trkpt lat="49.77826" lon="5.58257">
        <ele>447</ele>
        <time>2020-06-28T08:32:28.000Z</time>
      </trkpt>
      <trkpt lat="49.77824" lon="5.58243">
        <ele>448</ele>
        <time>2020-06-28T08:32:30.000Z</time>
      </trkpt>
      <trkpt lat="49.77824" lon="5.58236">
        <ele>448.60000610352</ele>
        <time>2020-06-28T08:32:31.000Z</time>
      </trkpt>
      <trkpt lat="49.77822" lon="5.58213">
        <ele>450</ele>
        <time>2020-06-28T08:32:34.000Z</time>
      </trkpt>
      <trkpt lat="49.77819" lon="5.5819">
        <ele>451.20001220703</ele>
        <time>2020-06-28T08:32:37.000Z</time>
      </trkpt>
      <trkpt lat="49.77816" lon="5.58155">
        <ele>452.60000610352</ele>
        <time>2020-06-28T08:32:41.000Z</time>
      </trkpt>
      <trkpt lat="49.77815" lon="5.58145">
        <ele>452.79998779297</ele>
        <time>2020-06-28T08:32:42.000Z</time>
      </trkpt>
      <trkpt lat="49.77811" lon="5.58117">
        <ele>453.39999389648</ele>
        <time>2020-06-28T08:32:45.000Z</time>
      </trkpt>
      <trkpt lat="49.77807" lon="5.58092">
        <ele>454.20001220703</ele>
        <time>2020-06-28T08:32:48.000Z</time>
      </trkpt>
      <trkpt lat="49.77805" lon="5.58084">
        <ele>454.60000610352</ele>
        <time>2020-06-28T08:32:49.000Z</time>
      </trkpt>
      <trkpt lat="49.778" lon="5.58053">
        <ele>455.39999389648</ele>
        <time>2020-06-28T08:32:53.000Z</time>
      </trkpt>
      <trkpt lat="49.77793" lon="5.58022">
        <ele>456.20001220703</ele>
        <time>2020-06-28T08:32:57.000Z</time>
      </trkpt>
      <trkpt lat="49.77789" lon="5.58006">
        <ele>456.60000610352</ele>
        <time>2020-06-28T08:32:59.000Z</time>
      </trkpt>
      <trkpt lat="49.77782" lon="5.57974">
        <ele>456.20001220703</ele>
        <time>2020-06-28T08:33:03.000Z</time>
      </trkpt>
      <trkpt lat="49.77778" lon="5.57958">
        <ele>456.20001220703</ele>
        <time>2020-06-28T08:33:05.000Z</time>
      </trkpt>
      <trkpt lat="49.7777" lon="5.57926">
        <ele>456</ele>
        <time>2020-06-28T08:33:09.000Z</time>
      </trkpt>
      <trkpt lat="49.77762" lon="5.57894">
        <ele>455.79998779297</ele>
        <time>2020-06-28T08:33:13.000Z</time>
      </trkpt>
      <trkpt lat="49.77757" lon="5.57868">
        <ele>455.79998779297</ele>
        <time>2020-06-28T08:33:16.000Z</time>
      </trkpt>
      <trkpt lat="49.77756" lon="5.57859">
        <ele>455.79998779297</ele>
        <time>2020-06-28T08:33:17.000Z</time>
      </trkpt>
      <trkpt lat="49.77748" lon="5.57826">
        <ele>455.79998779297</ele>
        <time>2020-06-28T08:33:21.000Z</time>
      </trkpt>
      <trkpt lat="49.77744" lon="5.57807">
        <ele>455.79998779297</ele>
        <time>2020-06-28T08:33:24.000Z</time>
      </trkpt>
      <trkpt lat="49.77742" lon="5.57776">
        <ele>454.20001220703</ele>
        <time>2020-06-28T08:33:29.000Z</time>
      </trkpt>
      <trkpt lat="49.7774" lon="5.57743">
        <ele>453.60000610352</ele>
        <time>2020-06-28T08:33:34.000Z</time>
      </trkpt>
      <trkpt lat="49.77738" lon="5.57722">
        <ele>454.39999389648</ele>
        <time>2020-06-28T08:33:37.000Z</time>
      </trkpt>
      <trkpt lat="49.77737" lon="5.57715">
        <ele>454.39999389648</ele>
        <time>2020-06-28T08:33:38.000Z</time>
      </trkpt>
      <trkpt lat="49.77736" lon="5.57693">
        <ele>454</ele>
        <time>2020-06-28T08:33:41.000Z</time>
      </trkpt>
      <trkpt lat="49.77735" lon="5.57678">
        <ele>453.79998779297</ele>
        <time>2020-06-28T08:33:43.000Z</time>
      </trkpt>
      <trkpt lat="49.77733" lon="5.57647">
        <ele>453.60000610352</ele>
        <time>2020-06-28T08:33:47.000Z</time>
      </trkpt>
      <trkpt lat="49.77733" lon="5.57613">
        <ele>454.20001220703</ele>
        <time>2020-06-28T08:33:52.000Z</time>
      </trkpt>
      <trkpt lat="49.77733" lon="5.57607">
        <ele>454.20001220703</ele>
        <time>2020-06-28T08:33:53.000Z</time>
      </trkpt>
      <trkpt lat="49.77732" lon="5.57599">
        <ele>454.60000610352</ele>
        <time>2020-06-28T08:33:54.000Z</time>
      </trkpt>
      <trkpt lat="49.77731" lon="5.57566">
        <ele>455</ele>
        <time>2020-06-28T08:33:58.000Z</time>
      </trkpt>
      <trkpt lat="49.77731" lon="5.57541">
        <ele>454.60000610352</ele>
        <time>2020-06-28T08:34:01.000Z</time>
      </trkpt>
      <trkpt lat="49.77732" lon="5.57526">
        <ele>454.39999389648</ele>
        <time>2020-06-28T08:34:03.000Z</time>
      </trkpt>
      <trkpt lat="49.77733" lon="5.57502">
        <ele>454</ele>
        <time>2020-06-28T08:34:06.000Z</time>
      </trkpt>
      <trkpt lat="49.77734" lon="5.57478">
        <ele>453.60000610352</ele>
        <time>2020-06-28T08:34:09.000Z</time>
      </trkpt>
      <trkpt lat="49.77736" lon="5.57455">
        <ele>453.39999389648</ele>
        <time>2020-06-28T08:34:12.000Z</time>
      </trkpt>
      <trkpt lat="49.7774" lon="5.57423">
        <ele>453.39999389648</ele>
        <time>2020-06-28T08:34:16.000Z</time>
      </trkpt>
      <trkpt lat="49.7774" lon="5.57415">
        <ele>453.20001220703</ele>
        <time>2020-06-28T08:34:17.000Z</time>
      </trkpt>
      <trkpt lat="49.77741" lon="5.57408">
        <ele>453</ele>
        <time>2020-06-28T08:34:18.000Z</time>
      </trkpt>
      <trkpt lat="49.77746" lon="5.5738">
        <ele>452</ele>
        <time>2020-06-28T08:34:22.000Z</time>
      </trkpt>
      <trkpt lat="49.7775" lon="5.57349">
        <ele>450.60000610352</ele>
        <time>2020-06-28T08:34:27.000Z</time>
      </trkpt>
      <trkpt lat="49.77752" lon="5.57336">
        <ele>450.39999389648</ele>
        <time>2020-06-28T08:34:29.000Z</time>
      </trkpt>
      <trkpt lat="49.77752" lon="5.5733">
        <ele>450.20001220703</ele>
        <time>2020-06-28T08:34:30.000Z</time>
      </trkpt>
      <trkpt lat="49.77755" lon="5.57311">
        <ele>450</ele>
        <time>2020-06-28T08:34:33.000Z</time>
      </trkpt>
      <trkpt lat="49.77759" lon="5.57282">
        <ele>448.20001220703</ele>
        <time>2020-06-28T08:34:37.000Z</time>
      </trkpt>
      <trkpt lat="49.77761" lon="5.57276">
        <ele>447.39999389648</ele>
        <time>2020-06-28T08:34:38.000Z</time>
      </trkpt>
      <trkpt lat="49.77762" lon="5.57269">
        <ele>447.20001220703</ele>
        <time>2020-06-28T08:34:39.000Z</time>
      </trkpt>
      <trkpt lat="49.77766" lon="5.57246">
        <ele>446.20001220703</ele>
        <time>2020-06-28T08:34:43.000Z</time>
      </trkpt>
      <trkpt lat="49.77773" lon="5.57217">
        <ele>445</ele>
        <time>2020-06-28T08:34:48.000Z</time>
      </trkpt>
      <trkpt lat="49.77776" lon="5.57198">
        <ele>444.79998779297</ele>
        <time>2020-06-28T08:34:51.000Z</time>
      </trkpt>
      <trkpt lat="49.77777" lon="5.57192">
        <ele>444.60000610352</ele>
        <time>2020-06-28T08:34:52.000Z</time>
      </trkpt>
      <trkpt lat="49.77781" lon="5.57175">
        <ele>444.39999389648</ele>
        <time>2020-06-28T08:34:55.000Z</time>
      </trkpt>
      <trkpt lat="49.77783" lon="5.57163">
        <ele>444.20001220703</ele>
        <time>2020-06-28T08:34:57.000Z</time>
      </trkpt>
      <trkpt lat="49.77789" lon="5.57132">
        <ele>444</ele>
        <time>2020-06-28T08:35:02.000Z</time>
      </trkpt>
      <trkpt lat="49.77794" lon="5.57108">
        <ele>444.79998779297</ele>
        <time>2020-06-28T08:35:06.000Z</time>
      </trkpt>
      <trkpt lat="49.77795" lon="5.57102">
        <ele>445</ele>
        <time>2020-06-28T08:35:07.000Z</time>
      </trkpt>
      <trkpt lat="49.778" lon="5.57079">
        <ele>445.79998779297</ele>
        <time>2020-06-28T08:35:11.000Z</time>
      </trkpt>
      <trkpt lat="49.77809" lon="5.57056">
        <ele>446</ele>
        <time>2020-06-28T08:35:15.000Z</time>
      </trkpt>
      <trkpt lat="49.77827" lon="5.5705">
        <ele>445.20001220703</ele>
        <time>2020-06-28T08:35:19.000Z</time>
      </trkpt>
      <trkpt lat="49.77837" lon="5.5705">
        <ele>444.60000610352</ele>
        <time>2020-06-28T08:35:21.000Z</time>
      </trkpt>
      <trkpt lat="49.77846" lon="5.5705">
        <ele>444.20001220703</ele>
        <time>2020-06-28T08:35:23.000Z</time>
      </trkpt>
      <trkpt lat="49.77865" lon="5.57049">
        <ele>443.39999389648</ele>
        <time>2020-06-28T08:35:27.000Z</time>
      </trkpt>
      <trkpt lat="49.7787" lon="5.57049">
        <ele>443</ele>
        <time>2020-06-28T08:35:28.000Z</time>
      </trkpt>
      <trkpt lat="49.77885" lon="5.57049">
        <ele>443</ele>
        <time>2020-06-28T08:35:31.000Z</time>
      </trkpt>
      <trkpt lat="49.77906" lon="5.57049">
        <ele>443</ele>
        <time>2020-06-28T08:35:35.000Z</time>
      </trkpt>
      <trkpt lat="49.77917" lon="5.5705">
        <ele>443</ele>
        <time>2020-06-28T08:35:37.000Z</time>
      </trkpt>
      <trkpt lat="49.77922" lon="5.5705">
        <ele>443</ele>
        <time>2020-06-28T08:35:38.000Z</time>
      </trkpt>
      <trkpt lat="49.77937" lon="5.57052">
        <ele>443</ele>
        <time>2020-06-28T08:35:41.000Z</time>
      </trkpt>
      <trkpt lat="49.77955" lon="5.57063">
        <ele>442.79998779297</ele>
        <time>2020-06-28T08:35:45.000Z</time>
      </trkpt>
      <trkpt lat="49.77973" lon="5.57085">
        <ele>443.79998779297</ele>
        <time>2020-06-28T08:35:49.000Z</time>
      </trkpt>
      <trkpt lat="49.77991" lon="5.57109">
        <ele>445</ele>
        <time>2020-06-28T08:35:53.000Z</time>
      </trkpt>
      <trkpt lat="49.78" lon="5.57121">
        <ele>445.39999389648</ele>
        <time>2020-06-28T08:35:55.000Z</time>
      </trkpt>
      <trkpt lat="49.78004" lon="5.57127">
        <ele>445.60000610352</ele>
        <time>2020-06-28T08:35:56.000Z</time>
      </trkpt>
      <trkpt lat="49.78012" lon="5.5714">
        <ele>445.79998779297</ele>
        <time>2020-06-28T08:35:58.000Z</time>
      </trkpt>
      <trkpt lat="49.78024" lon="5.57159">
        <ele>445.60000610352</ele>
        <time>2020-06-28T08:36:01.000Z</time>
      </trkpt>
      <trkpt lat="49.78038" lon="5.57187">
        <ele>444.79998779297</ele>
        <time>2020-06-28T08:36:05.000Z</time>
      </trkpt>
      <trkpt lat="49.78047" lon="5.57211">
        <ele>444.20001220703</ele>
        <time>2020-06-28T08:36:08.000Z</time>
      </trkpt>
      <trkpt lat="49.78052" lon="5.57227">
        <ele>443.79998779297</ele>
        <time>2020-06-28T08:36:10.000Z</time>
      </trkpt>
      <trkpt lat="49.78059" lon="5.5725">
        <ele>443.39999389648</ele>
        <time>2020-06-28T08:36:13.000Z</time>
      </trkpt>
      <trkpt lat="49.78067" lon="5.57281">
        <ele>442.79998779297</ele>
        <time>2020-06-28T08:36:17.000Z</time>
      </trkpt>
      <trkpt lat="49.78069" lon="5.57288">
        <ele>442.60000610352</ele>
        <time>2020-06-28T08:36:18.000Z</time>
      </trkpt>
      <trkpt lat="49.78074" lon="5.57303">
        <ele>442.39999389648</ele>
        <time>2020-06-28T08:36:20.000Z</time>
      </trkpt>
      <trkpt lat="49.78082" lon="5.57325">
        <ele>443</ele>
        <time>2020-06-28T08:36:23.000Z</time>
      </trkpt>
      <trkpt lat="49.78094" lon="5.57355">
        <ele>443.60000610352</ele>
        <time>2020-06-28T08:36:27.000Z</time>
      </trkpt>
      <trkpt lat="49.78102" lon="5.57378">
        <ele>444.60000610352</ele>
        <time>2020-06-28T08:36:30.000Z</time>
      </trkpt>
      <trkpt lat="49.78113" lon="5.5741">
        <ele>446</ele>
        <time>2020-06-28T08:36:34.000Z</time>
      </trkpt>
      <trkpt lat="49.7812" lon="5.57443">
        <ele>447.39999389648</ele>
        <time>2020-06-28T08:36:38.000Z</time>
      </trkpt>
      <trkpt lat="49.78125" lon="5.57465">
        <ele>447.60000610352</ele>
        <time>2020-06-28T08:36:41.000Z</time>
      </trkpt>
      <trkpt lat="49.78131" lon="5.57486">
        <ele>446.39999389648</ele>
        <time>2020-06-28T08:36:44.000Z</time>
      </trkpt>
      <trkpt lat="49.78141" lon="5.57515">
        <ele>444.20001220703</ele>
        <time>2020-06-28T08:36:48.000Z</time>
      </trkpt>
      <trkpt lat="49.7815" lon="5.57534">
        <ele>442.60000610352</ele>
        <time>2020-06-28T08:36:51.000Z</time>
      </trkpt>
      <trkpt lat="49.78153" lon="5.57539">
        <ele>442.20001220703</ele>
        <time>2020-06-28T08:36:52.000Z</time>
      </trkpt>
      <trkpt lat="49.78165" lon="5.57559">
        <ele>441</ele>
        <time>2020-06-28T08:36:56.000Z</time>
      </trkpt>
      <trkpt lat="49.78181" lon="5.57581">
        <ele>440.60000610352</ele>
        <time>2020-06-28T08:37:00.000Z</time>
      </trkpt>
      <trkpt lat="49.78193" lon="5.57604">
        <ele>440.20001220703</ele>
        <time>2020-06-28T08:37:04.000Z</time>
      </trkpt>
      <trkpt lat="49.78209" lon="5.57631">
        <ele>440.39999389648</ele>
        <time>2020-06-28T08:37:08.000Z</time>
      </trkpt>
      <trkpt lat="49.78218" lon="5.57656">
        <ele>439.20001220703</ele>
        <time>2020-06-28T08:37:11.000Z</time>
      </trkpt>
      <trkpt lat="49.78228" lon="5.57688">
        <ele>437.60000610352</ele>
        <time>2020-06-28T08:37:15.000Z</time>
      </trkpt>
      <trkpt lat="49.78232" lon="5.57705">
        <ele>436.60000610352</ele>
        <time>2020-06-28T08:37:17.000Z</time>
      </trkpt>
      <trkpt lat="49.78237" lon="5.57734">
        <ele>435.39999389648</ele>
        <time>2020-06-28T08:37:20.000Z</time>
      </trkpt>
      <trkpt lat="49.78241" lon="5.57766">
        <ele>434.39999389648</ele>
        <time>2020-06-28T08:37:24.000Z</time>
      </trkpt>
      <trkpt lat="49.78246" lon="5.57796">
        <ele>433.60000610352</ele>
        <time>2020-06-28T08:37:28.000Z</time>
      </trkpt>
      <trkpt lat="49.78252" lon="5.57823">
        <ele>434.39999389648</ele>
        <time>2020-06-28T08:37:32.000Z</time>
      </trkpt>
      <trkpt lat="49.78262" lon="5.57847">
        <ele>435.60000610352</ele>
        <time>2020-06-28T08:37:36.000Z</time>
      </trkpt>
      <trkpt lat="49.7827" lon="5.57865">
        <ele>436.39999389648</ele>
        <time>2020-06-28T08:37:40.000Z</time>
      </trkpt>
      <trkpt lat="49.7828" lon="5.57889">
        <ele>437.20001220703</ele>
        <time>2020-06-28T08:37:46.000Z</time>
      </trkpt>
      <trkpt lat="49.78286" lon="5.579">
        <ele>438</ele>
        <time>2020-06-28T08:37:49.000Z</time>
      </trkpt>
      <trkpt lat="49.78288" lon="5.57905">
        <ele>438.20001220703</ele>
        <time>2020-06-28T08:37:50.000Z</time>
      </trkpt>
      <trkpt lat="49.78299" lon="5.57928">
        <ele>439.60000610352</ele>
        <time>2020-06-28T08:37:56.000Z</time>
      </trkpt>
      <trkpt lat="49.78309" lon="5.57956">
        <ele>441</ele>
        <time>2020-06-28T08:38:02.000Z</time>
      </trkpt>
      <trkpt lat="49.78311" lon="5.57961">
        <ele>441</ele>
        <time>2020-06-28T08:38:03.000Z</time>
      </trkpt>
      <trkpt lat="49.78312" lon="5.57966">
        <ele>441.20001220703</ele>
        <time>2020-06-28T08:38:04.000Z</time>
      </trkpt>
      <trkpt lat="49.78315" lon="5.57999">
        <ele>442</ele>
        <time>2020-06-28T08:38:10.000Z</time>
      </trkpt>
      <trkpt lat="49.78314" lon="5.58033">
        <ele>442.20001220703</ele>
        <time>2020-06-28T08:38:15.000Z</time>
      </trkpt>
      <trkpt lat="49.78313" lon="5.5804">
        <ele>442.20001220703</ele>
        <time>2020-06-28T08:38:16.000Z</time>
      </trkpt>
      <trkpt lat="49.78311" lon="5.5806">
        <ele>443</ele>
        <time>2020-06-28T08:38:19.000Z</time>
      </trkpt>
      <trkpt lat="49.78308" lon="5.58086">
        <ele>444</ele>
        <time>2020-06-28T08:38:24.000Z</time>
      </trkpt>
      <trkpt lat="49.78307" lon="5.5809">
        <ele>444</ele>
        <time>2020-06-28T08:38:25.000Z</time>
      </trkpt>
      <trkpt lat="49.78303" lon="5.58117">
        <ele>443.39999389648</ele>
        <time>2020-06-28T08:38:33.000Z</time>
      </trkpt>
      <trkpt lat="49.78302" lon="5.58121">
        <ele>443.39999389648</ele>
        <time>2020-06-28T08:38:34.000Z</time>
      </trkpt>
      <trkpt lat="49.783" lon="5.5813">
        <ele>443.20001220703</ele>
        <time>2020-06-28T08:38:37.000Z</time>
      </trkpt>
      <trkpt lat="49.78299" lon="5.58135">
        <ele>443</ele>
        <time>2020-06-28T08:38:44.000Z</time>
      </trkpt>
      <trkpt lat="49.78306" lon="5.58138">
        <ele>444.39999389648</ele>
        <time>2020-06-28T08:39:34.000Z</time>
      </trkpt>
      <trkpt lat="49.78307" lon="5.58132">
        <ele>444.39999389648</ele>
        <time>2020-06-28T08:39:36.000Z</time>
      </trkpt>
      <trkpt lat="49.78309" lon="5.58118">
        <ele>444.60000610352</ele>
        <time>2020-06-28T08:39:39.000Z</time>
      </trkpt>
      <trkpt lat="49.78311" lon="5.58107">
        <ele>444.79998779297</ele>
        <time>2020-06-28T08:39:41.000Z</time>
      </trkpt>
      <trkpt lat="49.78316" lon="5.58081">
        <ele>445.39999389648</ele>
        <time>2020-06-28T08:39:46.000Z</time>
      </trkpt>
      <trkpt lat="49.78318" lon="5.58076">
        <ele>445.20001220703</ele>
        <time>2020-06-28T08:39:47.000Z</time>
      </trkpt>
      <trkpt lat="49.78328" lon="5.58052">
        <ele>443.79998779297</ele>
        <time>2020-06-28T08:39:54.000Z</time>
      </trkpt>
      <trkpt lat="49.78345" lon="5.58044">
        <ele>445.39999389648</ele>
        <time>2020-06-28T08:40:00.000Z</time>
      </trkpt>
      <trkpt lat="49.78351" lon="5.58042">
        <ele>446</ele>
        <time>2020-06-28T08:40:02.000Z</time>
      </trkpt>
      <trkpt lat="49.78369" lon="5.58037">
        <ele>447.60000610352</ele>
        <time>2020-06-28T08:40:09.000Z</time>
      </trkpt>
      <trkpt lat="49.78371" lon="5.58036">
        <ele>447.79998779297</ele>
        <time>2020-06-28T08:40:10.000Z</time>
      </trkpt>
      <trkpt lat="49.78391" lon="5.58033">
        <ele>450.39999389648</ele>
        <time>2020-06-28T08:40:19.000Z</time>
      </trkpt>
      <trkpt lat="49.78399" lon="5.58033">
        <ele>451.39999389648</ele>
        <time>2020-06-28T08:40:22.000Z</time>
      </trkpt>
      <trkpt lat="49.78401" lon="5.58032">
        <ele>451.60000610352</ele>
        <time>2020-06-28T08:40:23.000Z</time>
      </trkpt>
      <trkpt lat="49.78419" lon="5.58028">
        <ele>454</ele>
        <time>2020-06-28T08:40:31.000Z</time>
      </trkpt>
      <trkpt lat="49.78421" lon="5.58028">
        <ele>454.20001220703</ele>
        <time>2020-06-28T08:40:32.000Z</time>
      </trkpt>
      <trkpt lat="49.7844" lon="5.58024">
        <ele>455.79998779297</ele>
        <time>2020-06-28T08:40:40.000Z</time>
      </trkpt>
      <trkpt lat="49.78442" lon="5.58023">
        <ele>455.79998779297</ele>
        <time>2020-06-28T08:40:41.000Z</time>
      </trkpt>
      <trkpt lat="49.78461" lon="5.58019">
        <ele>457.20001220703</ele>
        <time>2020-06-28T08:40:49.000Z</time>
      </trkpt>
      <trkpt lat="49.78481" lon="5.58014">
        <ele>459.39999389648</ele>
        <time>2020-06-28T08:40:57.000Z</time>
      </trkpt>
      <trkpt lat="49.78501" lon="5.58007">
        <ele>461.20001220703</ele>
        <time>2020-06-28T08:41:05.000Z</time>
      </trkpt>
      <trkpt lat="49.78503" lon="5.58005">
        <ele>461.39999389648</ele>
        <time>2020-06-28T08:41:06.000Z</time>
      </trkpt>
      <trkpt lat="49.78508" lon="5.58002">
        <ele>461.60000610352</ele>
        <time>2020-06-28T08:41:08.000Z</time>
      </trkpt>
      <trkpt lat="49.78517" lon="5.57997">
        <ele>462.20001220703</ele>
        <time>2020-06-28T08:41:12.000Z</time>
      </trkpt>
      <trkpt lat="49.78519" lon="5.57996">
        <ele>462.39999389648</ele>
        <time>2020-06-28T08:41:13.000Z</time>
      </trkpt>
      <trkpt lat="49.78537" lon="5.57985">
        <ele>463.60000610352</ele>
        <time>2020-06-28T08:41:19.000Z</time>
      </trkpt>
      <trkpt lat="49.78558" lon="5.57978">
        <ele>464.60000610352</ele>
        <time>2020-06-28T08:41:25.000Z</time>
      </trkpt>
      <trkpt lat="49.78575" lon="5.57977">
        <ele>466.20001220703</ele>
        <time>2020-06-28T08:41:29.000Z</time>
      </trkpt>
      <trkpt lat="49.78578" lon="5.57977">
        <ele>466.60000610352</ele>
        <time>2020-06-28T08:41:30.000Z</time>
      </trkpt>
      <trkpt lat="49.78588" lon="5.57975">
        <ele>467.39999389648</ele>
        <time>2020-06-28T08:41:33.000Z</time>
      </trkpt>
      <trkpt lat="49.78597" lon="5.57975">
        <ele>468.20001220703</ele>
        <time>2020-06-28T08:41:36.000Z</time>
      </trkpt>
      <trkpt lat="49.78618" lon="5.57973">
        <ele>470</ele>
        <time>2020-06-28T08:41:44.000Z</time>
      </trkpt>
      <trkpt lat="49.78622" lon="5.57973">
        <ele>470.39999389648</ele>
        <time>2020-06-28T08:41:45.000Z</time>
      </trkpt>
      <trkpt lat="49.78636" lon="5.57971">
        <ele>470.39999389648</ele>
        <time>2020-06-28T08:41:50.000Z</time>
      </trkpt>
      <trkpt lat="49.78638" lon="5.5797">
        <ele>470.39999389648</ele>
        <time>2020-06-28T08:41:51.000Z</time>
      </trkpt>
      <trkpt lat="49.7865" lon="5.57967">
        <ele>470.60000610352</ele>
        <time>2020-06-28T08:41:57.000Z</time>
      </trkpt>
      <trkpt lat="49.78651" lon="5.57967">
        <ele>470.60000610352</ele>
        <time>2020-06-28T08:41:58.000Z</time>
      </trkpt>
      <trkpt lat="49.78669" lon="5.5797">
        <ele>471.20001220703</ele>
        <time>2020-06-28T08:42:06.000Z</time>
      </trkpt>
      <trkpt lat="49.78688" lon="5.5798">
        <ele>471.79998779297</ele>
        <time>2020-06-28T08:42:13.000Z</time>
      </trkpt>
      <trkpt lat="49.787" lon="5.57994">
        <ele>472.60000610352</ele>
        <time>2020-06-28T08:42:19.000Z</time>
      </trkpt>
      <trkpt lat="49.78702" lon="5.57997">
        <ele>472.60000610352</ele>
        <time>2020-06-28T08:42:20.000Z</time>
      </trkpt>
      <trkpt lat="49.78709" lon="5.58004">
        <ele>472.79998779297</ele>
        <time>2020-06-28T08:42:23.000Z</time>
      </trkpt>
      <trkpt lat="49.78717" lon="5.58015">
        <ele>472.60000610352</ele>
        <time>2020-06-28T08:42:27.000Z</time>
      </trkpt>
      <trkpt lat="49.78731" lon="5.58036">
        <ele>472.60000610352</ele>
        <time>2020-06-28T08:42:35.000Z</time>
      </trkpt>
      <trkpt lat="49.78745" lon="5.58057">
        <ele>472.60000610352</ele>
        <time>2020-06-28T08:42:45.000Z</time>
      </trkpt>
      <trkpt lat="49.78754" lon="5.58072">
        <ele>472.79998779297</ele>
        <time>2020-06-28T08:42:52.000Z</time>
      </trkpt>
      <trkpt lat="49.78755" lon="5.58075">
        <ele>472.79998779297</ele>
        <time>2020-06-28T08:42:53.000Z</time>
      </trkpt>
      <trkpt lat="49.78758" lon="5.5808">
        <ele>472.79998779297</ele>
        <time>2020-06-28T08:42:55.000Z</time>
      </trkpt>
      <trkpt lat="49.78764" lon="5.58106">
        <ele>473.20001220703</ele>
        <time>2020-06-28T08:43:02.000Z</time>
      </trkpt>
      <trkpt lat="49.78767" lon="5.58118">
        <ele>473.60000610352</ele>
        <time>2020-06-28T08:43:05.000Z</time>
      </trkpt>
      <trkpt lat="49.78768" lon="5.58122">
        <ele>473.60000610352</ele>
        <time>2020-06-28T08:43:06.000Z</time>
      </trkpt>
      <trkpt lat="49.78776" lon="5.58144">
        <ele>475.39999389648</ele>
        <time>2020-06-28T08:43:13.000Z</time>
      </trkpt>
      <trkpt lat="49.78777" lon="5.58147">
        <ele>475.79998779297</ele>
        <time>2020-06-28T08:43:14.000Z</time>
      </trkpt>
      <trkpt lat="49.78782" lon="5.58159">
        <ele>477.39999389648</ele>
        <time>2020-06-28T08:43:18.000Z</time>
      </trkpt>
      <trkpt lat="49.78792" lon="5.58184">
        <ele>480.39999389648</ele>
        <time>2020-06-28T08:43:24.000Z</time>
      </trkpt>
      <trkpt lat="49.78801" lon="5.58209">
        <ele>483.39999389648</ele>
        <time>2020-06-28T08:43:30.000Z</time>
      </trkpt>
      <trkpt lat="49.78802" lon="5.5822">
        <ele>484.79998779297</ele>
        <time>2020-06-28T08:43:32.000Z</time>
      </trkpt>
      <trkpt lat="49.78802" lon="5.58229">
        <ele>486</ele>
        <time>2020-06-28T08:43:34.000Z</time>
      </trkpt>
      <trkpt lat="49.78812" lon="5.58253">
        <ele>487.39999389648</ele>
        <time>2020-06-28T08:43:39.000Z</time>
      </trkpt>
      <trkpt lat="49.78822" lon="5.58278">
        <ele>488.60000610352</ele>
        <time>2020-06-28T08:43:44.000Z</time>
      </trkpt>
      <trkpt lat="49.78824" lon="5.58284">
        <ele>489</ele>
        <time>2020-06-28T08:43:45.000Z</time>
      </trkpt>
      <trkpt lat="49.78826" lon="5.58289">
        <ele>489.39999389648</ele>
        <time>2020-06-28T08:43:46.000Z</time>
      </trkpt>
      <trkpt lat="49.78837" lon="5.58317">
        <ele>489.79998779297</ele>
        <time>2020-06-28T08:43:51.000Z</time>
      </trkpt>
      <trkpt lat="49.78843" lon="5.58329">
        <ele>489.60000610352</ele>
        <time>2020-06-28T08:43:53.000Z</time>
      </trkpt>
      <trkpt lat="49.78847" lon="5.58335">
        <ele>489.60000610352</ele>
        <time>2020-06-28T08:43:54.000Z</time>
      </trkpt>
      <trkpt lat="49.7886" lon="5.58362">
        <ele>489.20001220703</ele>
        <time>2020-06-28T08:43:58.000Z</time>
      </trkpt>
      <trkpt lat="49.78871" lon="5.58388">
        <ele>488.79998779297</ele>
        <time>2020-06-28T08:44:01.000Z</time>
      </trkpt>
      <trkpt lat="49.78884" lon="5.58413">
        <ele>486.79998779297</ele>
        <time>2020-06-28T08:44:04.000Z</time>
      </trkpt>
      <trkpt lat="49.78896" lon="5.58439">
        <ele>484.79998779297</ele>
        <time>2020-06-28T08:44:07.000Z</time>
      </trkpt>
      <trkpt lat="49.78905" lon="5.58468">
        <ele>482.79998779297</ele>
        <time>2020-06-28T08:44:10.000Z</time>
      </trkpt>
      <trkpt lat="49.7891" lon="5.58484">
        <ele>482.39999389648</ele>
        <time>2020-06-28T08:44:12.000Z</time>
      </trkpt>
      <trkpt lat="49.78912" lon="5.58492">
        <ele>482.20001220703</ele>
        <time>2020-06-28T08:44:13.000Z</time>
      </trkpt>
      <trkpt lat="49.78915" lon="5.5852">
        <ele>481.39999389648</ele>
        <time>2020-06-28T08:44:16.000Z</time>
      </trkpt>
      <trkpt lat="49.78913" lon="5.58539">
        <ele>480.20001220703</ele>
        <time>2020-06-28T08:44:18.000Z</time>
      </trkpt>
      <trkpt lat="49.78912" lon="5.58548">
        <ele>479.79998779297</ele>
        <time>2020-06-28T08:44:19.000Z</time>
      </trkpt>
      <trkpt lat="49.78907" lon="5.58582">
        <ele>480.39999389648</ele>
        <time>2020-06-28T08:44:23.000Z</time>
      </trkpt>
      <trkpt lat="49.78906" lon="5.5859">
        <ele>480.39999389648</ele>
        <time>2020-06-28T08:44:24.000Z</time>
      </trkpt>
      <trkpt lat="49.78903" lon="5.58615">
        <ele>479.39999389648</ele>
        <time>2020-06-28T08:44:27.000Z</time>
      </trkpt>
      <trkpt lat="49.78896" lon="5.58648">
        <ele>477.39999389648</ele>
        <time>2020-06-28T08:44:31.000Z</time>
      </trkpt>
      <trkpt lat="49.78894" lon="5.58657">
        <ele>476.79998779297</ele>
        <time>2020-06-28T08:44:32.000Z</time>
      </trkpt>
      <trkpt lat="49.78891" lon="5.58673">
        <ele>475.39999389648</ele>
        <time>2020-06-28T08:44:34.000Z</time>
      </trkpt>
      <trkpt lat="49.78882" lon="5.58705">
        <ele>473</ele>
        <time>2020-06-28T08:44:38.000Z</time>
      </trkpt>
      <trkpt lat="49.7888" lon="5.58714">
        <ele>472.39999389648</ele>
        <time>2020-06-28T08:44:39.000Z</time>
      </trkpt>
      <trkpt lat="49.78877" lon="5.58723">
        <ele>471.60000610352</ele>
        <time>2020-06-28T08:44:40.000Z</time>
      </trkpt>
      <trkpt lat="49.7887" lon="5.58752">
        <ele>470.60000610352</ele>
        <time>2020-06-28T08:44:43.000Z</time>
      </trkpt>
      <trkpt lat="49.78865" lon="5.5877">
        <ele>469.39999389648</ele>
        <time>2020-06-28T08:44:45.000Z</time>
      </trkpt>
      <trkpt lat="49.78862" lon="5.58779">
        <ele>468.79998779297</ele>
        <time>2020-06-28T08:44:46.000Z</time>
      </trkpt>
      <trkpt lat="49.78854" lon="5.58814">
        <ele>467.39999389648</ele>
        <time>2020-06-28T08:44:50.000Z</time>
      </trkpt>
      <trkpt lat="49.78852" lon="5.58822">
        <ele>467.20001220703</ele>
        <time>2020-06-28T08:44:51.000Z</time>
      </trkpt>
      <trkpt lat="49.78845" lon="5.58852">
        <ele>466.39999389648</ele>
        <time>2020-06-28T08:44:55.000Z</time>
      </trkpt>
      <trkpt lat="49.78838" lon="5.58882">
        <ele>466.60000610352</ele>
        <time>2020-06-28T08:44:59.000Z</time>
      </trkpt>
      <trkpt lat="49.7883" lon="5.58907">
        <ele>465.39999389648</ele>
        <time>2020-06-28T08:45:03.000Z</time>
      </trkpt>
      <trkpt lat="49.78828" lon="5.58913">
        <ele>465.20001220703</ele>
        <time>2020-06-28T08:45:04.000Z</time>
      </trkpt>
      <trkpt lat="49.78826" lon="5.58919">
        <ele>464.79998779297</ele>
        <time>2020-06-28T08:45:05.000Z</time>
      </trkpt>
      <trkpt lat="49.78815" lon="5.58943">
        <ele>465.79998779297</ele>
        <time>2020-06-28T08:45:09.000Z</time>
      </trkpt>
      <trkpt lat="49.7881" lon="5.58956">
        <ele>466.39999389648</ele>
        <time>2020-06-28T08:45:11.000Z</time>
      </trkpt>
      <trkpt lat="49.78808" lon="5.58962">
        <ele>466.79998779297</ele>
        <time>2020-06-28T08:45:12.000Z</time>
      </trkpt>
      <trkpt lat="49.78798" lon="5.58987">
        <ele>465.20001220703</ele>
        <time>2020-06-28T08:45:16.000Z</time>
      </trkpt>
      <trkpt lat="49.78791" lon="5.59006">
        <ele>463.79998779297</ele>
        <time>2020-06-28T08:45:19.000Z</time>
      </trkpt>
      <trkpt lat="49.78783" lon="5.5903">
        <ele>461.60000610352</ele>
        <time>2020-06-28T08:45:23.000Z</time>
      </trkpt>
      <trkpt lat="49.78774" lon="5.59053">
        <ele>459.20001220703</ele>
        <time>2020-06-28T08:45:27.000Z</time>
      </trkpt>
      <trkpt lat="49.78764" lon="5.59075">
        <ele>457.39999389648</ele>
        <time>2020-06-28T08:45:31.000Z</time>
      </trkpt>
      <trkpt lat="49.78762" lon="5.5908">
        <ele>457</ele>
        <time>2020-06-28T08:45:32.000Z</time>
      </trkpt>
      <trkpt lat="49.78752" lon="5.59105">
        <ele>455.79998779297</ele>
        <time>2020-06-28T08:45:36.000Z</time>
      </trkpt>
      <trkpt lat="49.78745" lon="5.59123">
        <ele>456.20001220703</ele>
        <time>2020-06-28T08:45:39.000Z</time>
      </trkpt>
      <trkpt lat="49.78742" lon="5.59129">
        <ele>456.39999389648</ele>
        <time>2020-06-28T08:45:40.000Z</time>
      </trkpt>
      <trkpt lat="49.78735" lon="5.59156">
        <ele>456.60000610352</ele>
        <time>2020-06-28T08:45:44.000Z</time>
      </trkpt>
      <trkpt lat="49.7873" lon="5.59179">
        <ele>456.79998779297</ele>
        <time>2020-06-28T08:45:47.000Z</time>
      </trkpt>
      <trkpt lat="49.78728" lon="5.59187">
        <ele>456.79998779297</ele>
        <time>2020-06-28T08:45:48.000Z</time>
      </trkpt>
      <trkpt lat="49.78725" lon="5.59217">
        <ele>456.79998779297</ele>
        <time>2020-06-28T08:45:52.000Z</time>
      </trkpt>
      <trkpt lat="49.78723" lon="5.59247">
        <ele>456.20001220703</ele>
        <time>2020-06-28T08:45:56.000Z</time>
      </trkpt>
      <trkpt lat="49.78718" lon="5.59274">
        <ele>456</ele>
        <time>2020-06-28T08:46:00.000Z</time>
      </trkpt>
      <trkpt lat="49.78717" lon="5.59282">
        <ele>456</ele>
        <time>2020-06-28T08:46:01.000Z</time>
      </trkpt>
      <trkpt lat="49.78714" lon="5.59298">
        <ele>455.79998779297</ele>
        <time>2020-06-28T08:46:03.000Z</time>
      </trkpt>
      <trkpt lat="49.78707" lon="5.5933">
        <ele>456</ele>
        <time>2020-06-28T08:46:07.000Z</time>
      </trkpt>
      <trkpt lat="49.78705" lon="5.59337">
        <ele>456</ele>
        <time>2020-06-28T08:46:08.000Z</time>
      </trkpt>
      <trkpt lat="49.78702" lon="5.59352">
        <ele>456.20001220703</ele>
        <time>2020-06-28T08:46:10.000Z</time>
      </trkpt>
      <trkpt lat="49.78698" lon="5.59366">
        <ele>456.20001220703</ele>
        <time>2020-06-28T08:46:12.000Z</time>
      </trkpt>
      <trkpt lat="49.78692" lon="5.59386">
        <ele>456.60000610352</ele>
        <time>2020-06-28T08:46:15.000Z</time>
      </trkpt>
      <trkpt lat="49.78683" lon="5.59412">
        <ele>456</ele>
        <time>2020-06-28T08:46:19.000Z</time>
      </trkpt>
      <trkpt lat="49.78674" lon="5.59437">
        <ele>455.60000610352</ele>
        <time>2020-06-28T08:46:23.000Z</time>
      </trkpt>
      <trkpt lat="49.7867" lon="5.59448">
        <ele>454</ele>
        <time>2020-06-28T08:46:25.000Z</time>
      </trkpt>
      <trkpt lat="49.78666" lon="5.59456">
        <ele>452.60000610352</ele>
        <time>2020-06-28T08:46:27.000Z</time>
      </trkpt>
      <trkpt lat="49.78662" lon="5.59464">
        <ele>451.39999389648</ele>
        <time>2020-06-28T08:46:29.000Z</time>
      </trkpt>
      <trkpt lat="49.78658" lon="5.59477">
        <ele>450.60000610352</ele>
        <time>2020-06-28T08:46:32.000Z</time>
      </trkpt>
      <trkpt lat="49.78655" lon="5.59508">
        <ele>449.39999389648</ele>
        <time>2020-06-28T08:46:37.000Z</time>
      </trkpt>
      <trkpt lat="49.78654" lon="5.59515">
        <ele>449</ele>
        <time>2020-06-28T08:46:38.000Z</time>
      </trkpt>
      <trkpt lat="49.78653" lon="5.59529">
        <ele>448</ele>
        <time>2020-06-28T08:46:40.000Z</time>
      </trkpt>
      <trkpt lat="49.78652" lon="5.5956">
        <ele>446.39999389648</ele>
        <time>2020-06-28T08:46:44.000Z</time>
      </trkpt>
      <trkpt lat="49.7865" lon="5.59592">
        <ele>445.79998779297</ele>
        <time>2020-06-28T08:46:48.000Z</time>
      </trkpt>
      <trkpt lat="49.7865" lon="5.59609">
        <ele>445.39999389648</ele>
        <time>2020-06-28T08:46:50.000Z</time>
      </trkpt>
      <trkpt lat="49.78649" lon="5.59626">
        <ele>444.79998779297</ele>
        <time>2020-06-28T08:46:52.000Z</time>
      </trkpt>
      <trkpt lat="49.78649" lon="5.59661">
        <ele>444</ele>
        <time>2020-06-28T08:46:56.000Z</time>
      </trkpt>
      <trkpt lat="49.78655" lon="5.59693">
        <ele>444</ele>
        <time>2020-06-28T08:47:00.000Z</time>
      </trkpt>
      <trkpt lat="49.78662" lon="5.59714">
        <ele>444.39999389648</ele>
        <time>2020-06-28T08:47:03.000Z</time>
      </trkpt>
      <trkpt lat="49.78665" lon="5.5972">
        <ele>444.60000610352</ele>
        <time>2020-06-28T08:47:04.000Z</time>
      </trkpt>
      <trkpt lat="49.78676" lon="5.59745">
        <ele>444.60000610352</ele>
        <time>2020-06-28T08:47:08.000Z</time>
      </trkpt>
      <trkpt lat="49.78686" lon="5.59774">
        <ele>444.39999389648</ele>
        <time>2020-06-28T08:47:12.000Z</time>
      </trkpt>
      <trkpt lat="49.7869" lon="5.5979">
        <ele>444.20001220703</ele>
        <time>2020-06-28T08:47:14.000Z</time>
      </trkpt>
      <trkpt lat="49.78692" lon="5.59798">
        <ele>444.39999389648</ele>
        <time>2020-06-28T08:47:15.000Z</time>
      </trkpt>
      <trkpt lat="49.78698" lon="5.59831">
        <ele>444.39999389648</ele>
        <time>2020-06-28T08:47:19.000Z</time>
      </trkpt>
      <trkpt lat="49.78699" lon="5.59838">
        <ele>444.20001220703</ele>
        <time>2020-06-28T08:47:20.000Z</time>
      </trkpt>
      <trkpt lat="49.78703" lon="5.59866">
        <ele>444.20001220703</ele>
        <time>2020-06-28T08:47:26.000Z</time>
      </trkpt>
      <trkpt lat="49.78691" lon="5.59887">
        <ele>443.39999389648</ele>
        <time>2020-06-28T08:47:33.000Z</time>
      </trkpt>
      <trkpt lat="49.78687" lon="5.59895">
        <ele>443.20001220703</ele>
        <time>2020-06-28T08:47:35.000Z</time>
      </trkpt>
      <trkpt lat="49.78684" lon="5.59899">
        <ele>443</ele>
        <time>2020-06-28T08:47:36.000Z</time>
      </trkpt>
      <trkpt lat="49.78671" lon="5.59924">
        <ele>442.39999389648</ele>
        <time>2020-06-28T08:47:42.000Z</time>
      </trkpt>
      <trkpt lat="49.78666" lon="5.59931">
        <ele>442</ele>
        <time>2020-06-28T08:47:44.000Z</time>
      </trkpt>
      <trkpt lat="49.78664" lon="5.59935">
        <ele>442</ele>
        <time>2020-06-28T08:47:45.000Z</time>
      </trkpt>
      <trkpt lat="49.78667" lon="5.59937">
        <ele>442.20001220703</ele>
        <time>2020-06-28T08:47:54.000Z</time>
      </trkpt>
      <trkpt lat="49.78675" lon="5.59924">
        <ele>442.39999389648</ele>
        <time>2020-06-28T08:47:57.000Z</time>
      </trkpt>
      <trkpt lat="49.78678" lon="5.59919">
        <ele>442.60000610352</ele>
        <time>2020-06-28T08:47:58.000Z</time>
      </trkpt>
      <trkpt lat="49.7869" lon="5.59895">
        <ele>443.39999389648</ele>
        <time>2020-06-28T08:48:02.000Z</time>
      </trkpt>
      <trkpt lat="49.78703" lon="5.59871">
        <ele>444</ele>
        <time>2020-06-28T08:48:06.000Z</time>
      </trkpt>
      <trkpt lat="49.78712" lon="5.59853">
        <ele>444.39999389648</ele>
        <time>2020-06-28T08:48:09.000Z</time>
      </trkpt>
      <trkpt lat="49.78726" lon="5.59828">
        <ele>444.60000610352</ele>
        <time>2020-06-28T08:48:14.000Z</time>
      </trkpt>
      <trkpt lat="49.78729" lon="5.59823">
        <ele>444.79998779297</ele>
        <time>2020-06-28T08:48:15.000Z</time>
      </trkpt>
      <trkpt lat="49.78743" lon="5.59796">
        <ele>445.60000610352</ele>
        <time>2020-06-28T08:48:20.000Z</time>
      </trkpt>
      <trkpt lat="49.78746" lon="5.5979">
        <ele>446</ele>
        <time>2020-06-28T08:48:21.000Z</time>
      </trkpt>
      <trkpt lat="49.78757" lon="5.59766">
        <ele>447</ele>
        <time>2020-06-28T08:48:25.000Z</time>
      </trkpt>
      <trkpt lat="49.7876" lon="5.5976">
        <ele>447.20001220703</ele>
        <time>2020-06-28T08:48:26.000Z</time>
      </trkpt>
      <trkpt lat="49.78772" lon="5.59734">
        <ele>448.20001220703</ele>
        <time>2020-06-28T08:48:31.000Z</time>
      </trkpt>
      <trkpt lat="49.78776" lon="5.59724">
        <ele>448.60000610352</ele>
        <time>2020-06-28T08:48:33.000Z</time>
      </trkpt>
      <trkpt lat="49.7878" lon="5.59713">
        <ele>449</ele>
        <time>2020-06-28T08:48:35.000Z</time>
      </trkpt>
      <trkpt lat="49.78784" lon="5.59703">
        <ele>449.60000610352</ele>
        <time>2020-06-28T08:48:37.000Z</time>
      </trkpt>
      <trkpt lat="49.78789" lon="5.59692">
        <ele>450.20001220703</ele>
        <time>2020-06-28T08:48:39.000Z</time>
      </trkpt>
      <trkpt lat="49.78799" lon="5.59667">
        <ele>451</ele>
        <time>2020-06-28T08:48:43.000Z</time>
      </trkpt>
      <trkpt lat="49.78809" lon="5.59643">
        <ele>451.39999389648</ele>
        <time>2020-06-28T08:48:47.000Z</time>
      </trkpt>
      <trkpt lat="49.7882" lon="5.59616">
        <ele>451.60000610352</ele>
        <time>2020-06-28T08:48:51.000Z</time>
      </trkpt>
      <trkpt lat="49.78822" lon="5.59609">
        <ele>451.60000610352</ele>
        <time>2020-06-28T08:48:52.000Z</time>
      </trkpt>
      <trkpt lat="49.78833" lon="5.59579">
        <ele>451.60000610352</ele>
        <time>2020-06-28T08:48:56.000Z</time>
      </trkpt>
      <trkpt lat="49.78836" lon="5.59572">
        <ele>451.60000610352</ele>
        <time>2020-06-28T08:48:57.000Z</time>
      </trkpt>
      <trkpt lat="49.78844" lon="5.59546">
        <ele>451.60000610352</ele>
        <time>2020-06-28T08:49:00.000Z</time>
      </trkpt>
      <trkpt lat="49.78852" lon="5.59519">
        <ele>451.39999389648</ele>
        <time>2020-06-28T08:49:03.000Z</time>
      </trkpt>
      <trkpt lat="49.78859" lon="5.59492">
        <ele>452.20001220703</ele>
        <time>2020-06-28T08:49:06.000Z</time>
      </trkpt>
      <trkpt lat="49.78861" lon="5.59484">
        <ele>452.60000610352</ele>
        <time>2020-06-28T08:49:07.000Z</time>
      </trkpt>
      <trkpt lat="49.78866" lon="5.59458">
        <ele>453</ele>
        <time>2020-06-28T08:49:10.000Z</time>
      </trkpt>
      <trkpt lat="49.7887" lon="5.5944">
        <ele>452.39999389648</ele>
        <time>2020-06-28T08:49:12.000Z</time>
      </trkpt>
      <trkpt lat="49.78875" lon="5.59412">
        <ele>451.39999389648</ele>
        <time>2020-06-28T08:49:15.000Z</time>
      </trkpt>
      <trkpt lat="49.78879" lon="5.59384">
        <ele>450.79998779297</ele>
        <time>2020-06-28T08:49:18.000Z</time>
      </trkpt>
      <trkpt lat="49.78885" lon="5.59349">
        <ele>450.60000610352</ele>
        <time>2020-06-28T08:49:22.000Z</time>
      </trkpt>
      <trkpt lat="49.78891" lon="5.59315">
        <ele>450.60000610352</ele>
        <time>2020-06-28T08:49:26.000Z</time>
      </trkpt>
      <trkpt lat="49.78896" lon="5.59289">
        <ele>451.79998779297</ele>
        <time>2020-06-28T08:49:29.000Z</time>
      </trkpt>
      <trkpt lat="49.78902" lon="5.59253">
        <ele>452.79998779297</ele>
        <time>2020-06-28T08:49:33.000Z</time>
      </trkpt>
      <trkpt lat="49.78903" lon="5.59244">
        <ele>453.20001220703</ele>
        <time>2020-06-28T08:49:34.000Z</time>
      </trkpt>
      <trkpt lat="49.78908" lon="5.59217">
        <ele>454.79998779297</ele>
        <time>2020-06-28T08:49:37.000Z</time>
      </trkpt>
      <trkpt lat="49.78914" lon="5.59188">
        <ele>455</ele>
        <time>2020-06-28T08:49:40.000Z</time>
      </trkpt>
      <trkpt lat="49.78915" lon="5.59179">
        <ele>455.20001220703</ele>
        <time>2020-06-28T08:49:41.000Z</time>
      </trkpt>
      <trkpt lat="49.7892" lon="5.59154">
        <ele>455.39999389648</ele>
        <time>2020-06-28T08:49:44.000Z</time>
      </trkpt>
      <trkpt lat="49.78926" lon="5.5913">
        <ele>456</ele>
        <time>2020-06-28T08:49:47.000Z</time>
      </trkpt>
      <trkpt lat="49.78933" lon="5.59097">
        <ele>458</ele>
        <time>2020-06-28T08:49:51.000Z</time>
      </trkpt>
      <trkpt lat="49.78937" lon="5.5908">
        <ele>458.39999389648</ele>
        <time>2020-06-28T08:49:53.000Z</time>
      </trkpt>
      <trkpt lat="49.78941" lon="5.59063">
        <ele>458.79998779297</ele>
        <time>2020-06-28T08:49:55.000Z</time>
      </trkpt>
      <trkpt lat="49.78948" lon="5.59028">
        <ele>460.39999389648</ele>
        <time>2020-06-28T08:49:59.000Z</time>
      </trkpt>
      <trkpt lat="49.78956" lon="5.58996">
        <ele>461.39999389648</ele>
        <time>2020-06-28T08:50:03.000Z</time>
      </trkpt>
      <trkpt lat="49.78962" lon="5.58976">
        <ele>462</ele>
        <time>2020-06-28T08:50:06.000Z</time>
      </trkpt>
      <trkpt lat="49.78976" lon="5.58956">
        <ele>459.20001220703</ele>
        <time>2020-06-28T08:50:10.000Z</time>
      </trkpt>
      <trkpt lat="49.78996" lon="5.58946">
        <ele>455.39999389648</ele>
        <time>2020-06-28T08:50:14.000Z</time>
      </trkpt>
      <trkpt lat="49.79019" lon="5.58938">
        <ele>451.60000610352</ele>
        <time>2020-06-28T08:50:18.000Z</time>
      </trkpt>
      <trkpt lat="49.79041" lon="5.58938">
        <ele>449.20001220703</ele>
        <time>2020-06-28T08:50:21.000Z</time>
      </trkpt>
      <trkpt lat="49.79061" lon="5.58939">
        <ele>450</ele>
        <time>2020-06-28T08:50:24.000Z</time>
      </trkpt>
      <trkpt lat="49.7908" lon="5.58938">
        <ele>450.60000610352</ele>
        <time>2020-06-28T08:50:27.000Z</time>
      </trkpt>
      <trkpt lat="49.791" lon="5.58936">
        <ele>451</ele>
        <time>2020-06-28T08:50:30.000Z</time>
      </trkpt>
      <trkpt lat="49.79121" lon="5.58931">
        <ele>450.39999389648</ele>
        <time>2020-06-28T08:50:33.000Z</time>
      </trkpt>
      <trkpt lat="49.79128" lon="5.58929">
        <ele>450.79998779297</ele>
        <time>2020-06-28T08:50:34.000Z</time>
      </trkpt>
      <trkpt lat="49.79142" lon="5.58923">
        <ele>451.39999389648</ele>
        <time>2020-06-28T08:50:36.000Z</time>
      </trkpt>
      <trkpt lat="49.79161" lon="5.58913">
        <ele>451.79998779297</ele>
        <time>2020-06-28T08:50:39.000Z</time>
      </trkpt>
      <trkpt lat="49.79178" lon="5.589">
        <ele>451</ele>
        <time>2020-06-28T08:50:42.000Z</time>
      </trkpt>
      <trkpt lat="49.79181" lon="5.58896">
        <ele>450.79998779297</ele>
        <time>2020-06-28T08:50:43.000Z</time>
      </trkpt>
      <trkpt lat="49.79198" lon="5.58884">
        <ele>450.20001220703</ele>
        <time>2020-06-28T08:50:48.000Z</time>
      </trkpt>
      <trkpt lat="49.79208" lon="5.58875">
        <ele>449.79998779297</ele>
        <time>2020-06-28T08:50:51.000Z</time>
      </trkpt>
      <trkpt lat="49.79211" lon="5.58871">
        <ele>449.79998779297</ele>
        <time>2020-06-28T08:50:52.000Z</time>
      </trkpt>
      <trkpt lat="49.79228" lon="5.58862">
        <ele>449.20001220703</ele>
        <time>2020-06-28T08:50:56.000Z</time>
      </trkpt>
      <trkpt lat="49.79236" lon="5.58859">
        <ele>448.79998779297</ele>
        <time>2020-06-28T08:50:58.000Z</time>
      </trkpt>
      <trkpt lat="49.79255" lon="5.5886">
        <ele>448.20001220703</ele>
        <time>2020-06-28T08:51:02.000Z</time>
      </trkpt>
      <trkpt lat="49.79264" lon="5.58862">
        <ele>447.79998779297</ele>
        <time>2020-06-28T08:51:04.000Z</time>
      </trkpt>
      <trkpt lat="49.79268" lon="5.58863">
        <ele>447.79998779297</ele>
        <time>2020-06-28T08:51:05.000Z</time>
      </trkpt>
      <trkpt lat="49.79287" lon="5.58868">
        <ele>447</ele>
        <time>2020-06-28T08:51:09.000Z</time>
      </trkpt>
      <trkpt lat="49.79291" lon="5.58868">
        <ele>447</ele>
        <time>2020-06-28T08:51:10.000Z</time>
      </trkpt>
      <trkpt lat="49.79312" lon="5.58875">
        <ele>447.79998779297</ele>
        <time>2020-06-28T08:51:16.000Z</time>
      </trkpt>
      <trkpt lat="49.7933" lon="5.58885">
        <ele>448.39999389648</ele>
        <time>2020-06-28T08:51:22.000Z</time>
      </trkpt>
      <trkpt lat="49.79332" lon="5.58888">
        <ele>448.60000610352</ele>
        <time>2020-06-28T08:51:23.000Z</time>
      </trkpt>
      <trkpt lat="49.79335" lon="5.58892">
        <ele>448.60000610352</ele>
        <time>2020-06-28T08:51:24.000Z</time>
      </trkpt>
      <trkpt lat="49.79344" lon="5.58904">
        <ele>448.79998779297</ele>
        <time>2020-06-28T08:51:27.000Z</time>
      </trkpt>
      <trkpt lat="49.79362" lon="5.58925">
        <ele>449.20001220703</ele>
        <time>2020-06-28T08:51:32.000Z</time>
      </trkpt>
      <trkpt lat="49.79368" lon="5.58933">
        <ele>449.39999389648</ele>
        <time>2020-06-28T08:51:34.000Z</time>
      </trkpt>
      <trkpt lat="49.79383" lon="5.58951">
        <ele>449.39999389648</ele>
        <time>2020-06-28T08:51:38.000Z</time>
      </trkpt>
      <trkpt lat="49.79389" lon="5.58961">
        <ele>449.60000610352</ele>
        <time>2020-06-28T08:51:40.000Z</time>
      </trkpt>
      <trkpt lat="49.79392" lon="5.58967">
        <ele>449.39999389648</ele>
        <time>2020-06-28T08:51:41.000Z</time>
      </trkpt>
      <trkpt lat="49.79404" lon="5.58992">
        <ele>449.39999389648</ele>
        <time>2020-06-28T08:51:45.000Z</time>
      </trkpt>
      <trkpt lat="49.79412" lon="5.5902">
        <ele>449</ele>
        <time>2020-06-28T08:51:49.000Z</time>
      </trkpt>
      <trkpt lat="49.79415" lon="5.59033">
        <ele>448.60000610352</ele>
        <time>2020-06-28T08:51:51.000Z</time>
      </trkpt>
      <trkpt lat="49.79417" lon="5.5904">
        <ele>448.20001220703</ele>
        <time>2020-06-28T08:51:52.000Z</time>
      </trkpt>
      <trkpt lat="49.79426" lon="5.59072">
        <ele>447.79998779297</ele>
        <time>2020-06-28T08:51:56.000Z</time>
      </trkpt>
      <trkpt lat="49.79429" lon="5.59079">
        <ele>447.79998779297</ele>
        <time>2020-06-28T08:51:57.000Z</time>
      </trkpt>
      <trkpt lat="49.79431" lon="5.59086">
        <ele>447.79998779297</ele>
        <time>2020-06-28T08:51:58.000Z</time>
      </trkpt>
      <trkpt lat="49.79443" lon="5.59115">
        <ele>447.79998779297</ele>
        <time>2020-06-28T08:52:02.000Z</time>
      </trkpt>
      <trkpt lat="49.79454" lon="5.59136">
        <ele>448</ele>
        <time>2020-06-28T08:52:05.000Z</time>
      </trkpt>
      <trkpt lat="49.79458" lon="5.59142">
        <ele>448</ele>
        <time>2020-06-28T08:52:06.000Z</time>
      </trkpt>
      <trkpt lat="49.79469" lon="5.5916">
        <ele>448.20001220703</ele>
        <time>2020-06-28T08:52:09.000Z</time>
      </trkpt>
      <trkpt lat="49.79483" lon="5.59181">
        <ele>448.39999389648</ele>
        <time>2020-06-28T08:52:13.000Z</time>
      </trkpt>
      <trkpt lat="49.79498" lon="5.592">
        <ele>448.79998779297</ele>
        <time>2020-06-28T08:52:18.000Z</time>
      </trkpt>
      <trkpt lat="49.79502" lon="5.59211">
        <ele>448.79998779297</ele>
        <time>2020-06-28T08:52:21.000Z</time>
      </trkpt>
      <trkpt lat="49.79503" lon="5.59215">
        <ele>448.79998779297</ele>
        <time>2020-06-28T08:52:22.000Z</time>
      </trkpt>
      <trkpt lat="49.79512" lon="5.5923">
        <ele>448.60000610352</ele>
        <time>2020-06-28T08:52:27.000Z</time>
      </trkpt>
      <trkpt lat="49.79527" lon="5.5925">
        <ele>448.39999389648</ele>
        <time>2020-06-28T08:52:33.000Z</time>
      </trkpt>
      <trkpt lat="49.79544" lon="5.59271">
        <ele>448.60000610352</ele>
        <time>2020-06-28T08:52:38.000Z</time>
      </trkpt>
      <trkpt lat="49.79558" lon="5.59292">
        <ele>448.79998779297</ele>
        <time>2020-06-28T08:52:42.000Z</time>
      </trkpt>
      <trkpt lat="49.79568" lon="5.59319">
        <ele>448.39999389648</ele>
        <time>2020-06-28T08:52:46.000Z</time>
      </trkpt>
      <trkpt lat="49.79575" lon="5.59341">
        <ele>448.39999389648</ele>
        <time>2020-06-28T08:52:49.000Z</time>
      </trkpt>
      <trkpt lat="49.79578" lon="5.59347">
        <ele>448.39999389648</ele>
        <time>2020-06-28T08:52:50.000Z</time>
      </trkpt>
      <trkpt lat="49.79591" lon="5.59374">
        <ele>448.60000610352</ele>
        <time>2020-06-28T08:52:55.000Z</time>
      </trkpt>
      <trkpt lat="49.79606" lon="5.59397">
        <ele>449.20001220703</ele>
        <time>2020-06-28T08:53:00.000Z</time>
      </trkpt>
      <trkpt lat="49.79608" lon="5.59401">
        <ele>449.39999389648</ele>
        <time>2020-06-28T08:53:01.000Z</time>
      </trkpt>
      <trkpt lat="49.79617" lon="5.59413">
        <ele>449.79998779297</ele>
        <time>2020-06-28T08:53:04.000Z</time>
      </trkpt>
      <trkpt lat="49.79633" lon="5.59433">
        <ele>451</ele>
        <time>2020-06-28T08:53:10.000Z</time>
      </trkpt>
      <trkpt lat="49.7965" lon="5.59451">
        <ele>452.39999389648</ele>
        <time>2020-06-28T08:53:16.000Z</time>
      </trkpt>
      <trkpt lat="49.79656" lon="5.59457">
        <ele>452.79998779297</ele>
        <time>2020-06-28T08:53:18.000Z</time>
      </trkpt>
      <trkpt lat="49.79659" lon="5.5946">
        <ele>453.20001220703</ele>
        <time>2020-06-28T08:53:19.000Z</time>
      </trkpt>
      <trkpt lat="49.79676" lon="5.59478">
        <ele>454.20001220703</ele>
        <time>2020-06-28T08:53:25.000Z</time>
      </trkpt>
      <trkpt lat="49.79692" lon="5.59495">
        <ele>455</ele>
        <time>2020-06-28T08:53:30.000Z</time>
      </trkpt>
      <trkpt lat="49.79696" lon="5.59498">
        <ele>455.20001220703</ele>
        <time>2020-06-28T08:53:31.000Z</time>
      </trkpt>
      <trkpt lat="49.79699" lon="5.59502">
        <ele>455.39999389648</ele>
        <time>2020-06-28T08:53:32.000Z</time>
      </trkpt>
      <trkpt lat="49.7971" lon="5.59511">
        <ele>455.79998779297</ele>
        <time>2020-06-28T08:53:35.000Z</time>
      </trkpt>
      <trkpt lat="49.79716" lon="5.59518">
        <ele>456</ele>
        <time>2020-06-28T08:53:37.000Z</time>
      </trkpt>
      <trkpt lat="49.7973" lon="5.5953">
        <ele>456.60000610352</ele>
        <time>2020-06-28T08:53:41.000Z</time>
      </trkpt>
      <trkpt lat="49.79733" lon="5.59533">
        <ele>456.60000610352</ele>
        <time>2020-06-28T08:53:42.000Z</time>
      </trkpt>
      <trkpt lat="49.79744" lon="5.59546">
        <ele>457</ele>
        <time>2020-06-28T08:53:46.000Z</time>
      </trkpt>
      <trkpt lat="49.79758" lon="5.59561">
        <ele>458</ele>
        <time>2020-06-28T08:53:51.000Z</time>
      </trkpt>
      <trkpt lat="49.79764" lon="5.59567">
        <ele>458.60000610352</ele>
        <time>2020-06-28T08:53:53.000Z</time>
      </trkpt>
      <trkpt lat="49.79774" lon="5.59582">
        <ele>459.60000610352</ele>
        <time>2020-06-28T08:53:57.000Z</time>
      </trkpt>
      <trkpt lat="49.79783" lon="5.59593">
        <ele>460.60000610352</ele>
        <time>2020-06-28T08:54:00.000Z</time>
      </trkpt>
      <trkpt lat="49.79779" lon="5.59623">
        <ele>461</ele>
        <time>2020-06-28T08:54:08.000Z</time>
      </trkpt>
      <trkpt lat="49.79769" lon="5.59651">
        <ele>461</ele>
        <time>2020-06-28T08:54:16.000Z</time>
      </trkpt>
      <trkpt lat="49.79767" lon="5.59655">
        <ele>461</ele>
        <time>2020-06-28T08:54:17.000Z</time>
      </trkpt>
      <trkpt lat="49.79759" lon="5.59681">
        <ele>461.20001220703</ele>
        <time>2020-06-28T08:54:22.000Z</time>
      </trkpt>
      <trkpt lat="49.79757" lon="5.59686">
        <ele>461.20001220703</ele>
        <time>2020-06-28T08:54:23.000Z</time>
      </trkpt>
      <trkpt lat="49.79755" lon="5.59691">
        <ele>460.79998779297</ele>
        <time>2020-06-28T08:54:24.000Z</time>
      </trkpt>
      <trkpt lat="49.79748" lon="5.5971">
        <ele>459.79998779297</ele>
        <time>2020-06-28T08:54:27.000Z</time>
      </trkpt>
      <trkpt lat="49.7974" lon="5.59742">
        <ele>458</ele>
        <time>2020-06-28T08:54:32.000Z</time>
      </trkpt>
      <trkpt lat="49.7973" lon="5.5977">
        <ele>456.39999389648</ele>
        <time>2020-06-28T08:54:37.000Z</time>
      </trkpt>
      <trkpt lat="49.79729" lon="5.59799">
        <ele>455.79998779297</ele>
        <time>2020-06-28T08:54:43.000Z</time>
      </trkpt>
      <trkpt lat="49.79741" lon="5.59825">
        <ele>456.20001220703</ele>
        <time>2020-06-28T08:54:49.000Z</time>
      </trkpt>
      <trkpt lat="49.79756" lon="5.59848">
        <ele>456.79998779297</ele>
        <time>2020-06-28T08:54:55.000Z</time>
      </trkpt>
      <trkpt lat="49.79758" lon="5.59853">
        <ele>457</ele>
        <time>2020-06-28T08:54:56.000Z</time>
      </trkpt>
      <trkpt lat="49.79761" lon="5.59857">
        <ele>457</ele>
        <time>2020-06-28T08:54:57.000Z</time>
      </trkpt>
      <trkpt lat="49.79772" lon="5.59886">
        <ele>458.39999389648</ele>
        <time>2020-06-28T08:55:02.000Z</time>
      </trkpt>
      <trkpt lat="49.79766" lon="5.5991">
        <ele>457.60000610352</ele>
        <time>2020-06-28T08:55:07.000Z</time>
      </trkpt>
      <trkpt lat="49.79763" lon="5.59915">
        <ele>457.39999389648</ele>
        <time>2020-06-28T08:55:08.000Z</time>
      </trkpt>
      <trkpt lat="49.79753" lon="5.59939">
        <ele>456.79998779297</ele>
        <time>2020-06-28T08:55:14.000Z</time>
      </trkpt>
      <trkpt lat="49.79747" lon="5.59962">
        <ele>458.20001220703</ele>
        <time>2020-06-28T08:55:20.000Z</time>
      </trkpt>
      <trkpt lat="49.7974" lon="5.59978">
        <ele>458.60000610352</ele>
        <time>2020-06-28T08:55:24.000Z</time>
      </trkpt>
      <trkpt lat="49.79739" lon="5.59995">
        <ele>458.39999389648</ele>
        <time>2020-06-28T08:55:28.000Z</time>
      </trkpt>
      <trkpt lat="49.79738" lon="5.6">
        <ele>458.39999389648</ele>
        <time>2020-06-28T08:55:29.000Z</time>
      </trkpt>
      <trkpt lat="49.79736" lon="5.60034">
        <ele>460.20001220703</ele>
        <time>2020-06-28T08:55:35.000Z</time>
      </trkpt>
      <trkpt lat="49.79736" lon="5.60039">
        <ele>460.39999389648</ele>
        <time>2020-06-28T08:55:36.000Z</time>
      </trkpt>
      <trkpt lat="49.79736" lon="5.60044">
        <ele>460.60000610352</ele>
        <time>2020-06-28T08:55:37.000Z</time>
      </trkpt>
      <trkpt lat="49.79734" lon="5.60073">
        <ele>462</ele>
        <time>2020-06-28T08:55:43.000Z</time>
      </trkpt>
      <trkpt lat="49.79734" lon="5.60078">
        <ele>462.20001220703</ele>
        <time>2020-06-28T08:55:44.000Z</time>
      </trkpt>
      <trkpt lat="49.79733" lon="5.60085">
        <ele>462.60000610352</ele>
        <time>2020-06-28T08:55:45.000Z</time>
      </trkpt>
      <trkpt lat="49.79731" lon="5.60114">
        <ele>463.79998779297</ele>
        <time>2020-06-28T08:55:49.000Z</time>
      </trkpt>
      <trkpt lat="49.79723" lon="5.60146">
        <ele>465.39999389648</ele>
        <time>2020-06-28T08:55:53.000Z</time>
      </trkpt>
      <trkpt lat="49.79716" lon="5.60167">
        <ele>465.39999389648</ele>
        <time>2020-06-28T08:55:56.000Z</time>
      </trkpt>
      <trkpt lat="49.79709" lon="5.60183">
        <ele>465</ele>
        <time>2020-06-28T08:55:59.000Z</time>
      </trkpt>
      <trkpt lat="49.79702" lon="5.602">
        <ele>464.60000610352</ele>
        <time>2020-06-28T08:56:02.000Z</time>
      </trkpt>
      <trkpt lat="49.79695" lon="5.60227">
        <ele>463</ele>
        <time>2020-06-28T08:56:07.000Z</time>
      </trkpt>
      <trkpt lat="49.79684" lon="5.60244">
        <ele>461.20001220703</ele>
        <time>2020-06-28T08:56:14.000Z</time>
      </trkpt>
      <trkpt lat="49.79683" lon="5.60245">
        <ele>461</ele>
        <time>2020-06-28T08:56:15.000Z</time>
      </trkpt>
      <trkpt lat="49.79682" lon="5.60246">
        <ele>461</ele>
        <time>2020-06-28T08:56:20.000Z</time>
      </trkpt>
      <trkpt lat="49.79689" lon="5.60244">
        <ele>461</ele>
        <time>2020-06-28T08:57:24.000Z</time>
      </trkpt>
      <trkpt lat="49.797" lon="5.60224">
        <ele>463.39999389648</ele>
        <time>2020-06-28T08:57:34.000Z</time>
      </trkpt>
      <trkpt lat="49.79709" lon="5.60197">
        <ele>464.60000610352</ele>
        <time>2020-06-28T08:57:42.000Z</time>
      </trkpt>
      <trkpt lat="49.7971" lon="5.60193">
        <ele>464.60000610352</ele>
        <time>2020-06-28T08:57:43.000Z</time>
      </trkpt>
      <trkpt lat="49.79712" lon="5.60189">
        <ele>464.79998779297</ele>
        <time>2020-06-28T08:57:44.000Z</time>
      </trkpt>
      <trkpt lat="49.7972" lon="5.60174">
        <ele>464.79998779297</ele>
        <time>2020-06-28T08:57:48.000Z</time>
      </trkpt>
      <trkpt lat="49.7973" lon="5.60149">
        <ele>464.79998779297</ele>
        <time>2020-06-28T08:57:54.000Z</time>
      </trkpt>
      <trkpt lat="49.79733" lon="5.6014">
        <ele>464.39999389648</ele>
        <time>2020-06-28T08:57:56.000Z</time>
      </trkpt>
      <trkpt lat="49.79734" lon="5.60135">
        <ele>464.20001220703</ele>
        <time>2020-06-28T08:57:57.000Z</time>
      </trkpt>
      <trkpt lat="49.79736" lon="5.60114">
        <ele>463.20001220703</ele>
        <time>2020-06-28T08:58:01.000Z</time>
      </trkpt>
      <trkpt lat="49.79737" lon="5.60105">
        <ele>462.79998779297</ele>
        <time>2020-06-28T08:58:03.000Z</time>
      </trkpt>
      <trkpt lat="49.79739" lon="5.60084">
        <ele>462</ele>
        <time>2020-06-28T08:58:08.000Z</time>
      </trkpt>
      <trkpt lat="49.79739" lon="5.60078">
        <ele>461.60000610352</ele>
        <time>2020-06-28T08:58:09.000Z</time>
      </trkpt>
      <trkpt lat="49.79741" lon="5.6005">
        <ele>460.39999389648</ele>
        <time>2020-06-28T08:58:15.000Z</time>
      </trkpt>
      <trkpt lat="49.79742" lon="5.60021">
        <ele>459</ele>
        <time>2020-06-28T08:58:21.000Z</time>
      </trkpt>
      <trkpt lat="49.79748" lon="5.59994">
        <ele>458.20001220703</ele>
        <time>2020-06-28T08:58:27.000Z</time>
      </trkpt>
      <trkpt lat="49.79756" lon="5.59966">
        <ele>458</ele>
        <time>2020-06-28T08:58:34.000Z</time>
      </trkpt>
      <trkpt lat="49.79762" lon="5.59938">
        <ele>456.79998779297</ele>
        <time>2020-06-28T08:58:40.000Z</time>
      </trkpt>
      <trkpt lat="49.79763" lon="5.59933">
        <ele>457</ele>
        <time>2020-06-28T08:58:41.000Z</time>
      </trkpt>
      <trkpt lat="49.79768" lon="5.59922">
        <ele>457.39999389648</ele>
        <time>2020-06-28T08:58:43.000Z</time>
      </trkpt>
      <trkpt lat="49.79768" lon="5.59914">
        <ele>457.60000610352</ele>
        <time>2020-06-28T08:58:44.000Z</time>
      </trkpt>
      <trkpt lat="49.79767" lon="5.59884">
        <ele>458.20001220703</ele>
        <time>2020-06-28T08:58:49.000Z</time>
      </trkpt>
      <trkpt lat="49.79755" lon="5.5986">
        <ele>456.79998779297</ele>
        <time>2020-06-28T08:58:55.000Z</time>
      </trkpt>
      <trkpt lat="49.79743" lon="5.59833">
        <ele>456</ele>
        <time>2020-06-28T08:59:02.000Z</time>
      </trkpt>
      <trkpt lat="49.79734" lon="5.59807">
        <ele>456.20001220703</ele>
        <time>2020-06-28T08:59:09.000Z</time>
      </trkpt>
      <trkpt lat="49.7972" lon="5.598">
        <ele>454.79998779297</ele>
        <time>2020-06-28T08:59:19.000Z</time>
      </trkpt>
      <trkpt lat="49.79701" lon="5.59805">
        <ele>453</ele>
        <time>2020-06-28T08:59:33.000Z</time>
      </trkpt>
      <trkpt lat="49.79693" lon="5.59805">
        <ele>452.60000610352</ele>
        <time>2020-06-28T08:59:37.000Z</time>
      </trkpt>
      <trkpt lat="49.79689" lon="5.59805">
        <ele>452.60000610352</ele>
        <time>2020-06-28T08:59:38.000Z</time>
      </trkpt>
      <trkpt lat="49.79667" lon="5.59807">
        <ele>451.79998779297</ele>
        <time>2020-06-28T08:59:44.000Z</time>
      </trkpt>
      <trkpt lat="49.79647" lon="5.59814">
        <ele>451.39999389648</ele>
        <time>2020-06-28T08:59:49.000Z</time>
      </trkpt>
      <trkpt lat="49.79625" lon="5.59818">
        <ele>450.79998779297</ele>
        <time>2020-06-28T08:59:54.000Z</time>
      </trkpt>
      <trkpt lat="49.79606" lon="5.59822">
        <ele>450</ele>
        <time>2020-06-28T08:59:57.000Z</time>
      </trkpt>
      <trkpt lat="49.79583" lon="5.5983">
        <ele>449</ele>
        <time>2020-06-28T09:00:01.000Z</time>
      </trkpt>
      <trkpt lat="49.79575" lon="5.59834">
        <ele>448.79998779297</ele>
        <time>2020-06-28T09:00:03.000Z</time>
      </trkpt>
      <trkpt lat="49.79564" lon="5.59839">
        <ele>448.60000610352</ele>
        <time>2020-06-28T09:00:05.000Z</time>
      </trkpt>
      <trkpt lat="49.79543" lon="5.59849">
        <ele>448.60000610352</ele>
        <time>2020-06-28T09:00:09.000Z</time>
      </trkpt>
      <trkpt lat="49.79523" lon="5.59854">
        <ele>448</ele>
        <time>2020-06-28T09:00:12.000Z</time>
      </trkpt>
      <trkpt lat="49.79505" lon="5.59862">
        <ele>447.60000610352</ele>
        <time>2020-06-28T09:00:15.000Z</time>
      </trkpt>
      <trkpt lat="49.79494" lon="5.59865">
        <ele>447.20001220703</ele>
        <time>2020-06-28T09:00:17.000Z</time>
      </trkpt>
      <trkpt lat="49.79482" lon="5.5987">
        <ele>446.79998779297</ele>
        <time>2020-06-28T09:00:19.000Z</time>
      </trkpt>
      <trkpt lat="49.79462" lon="5.59883">
        <ele>446.20001220703</ele>
        <time>2020-06-28T09:00:23.000Z</time>
      </trkpt>
      <trkpt lat="49.79457" lon="5.59886">
        <ele>446.20001220703</ele>
        <time>2020-06-28T09:00:24.000Z</time>
      </trkpt>
      <trkpt lat="49.7944" lon="5.59896">
        <ele>444.79998779297</ele>
        <time>2020-06-28T09:00:27.000Z</time>
      </trkpt>
      <trkpt lat="49.79428" lon="5.59901">
        <ele>444</ele>
        <time>2020-06-28T09:00:29.000Z</time>
      </trkpt>
      <trkpt lat="49.79423" lon="5.59902">
        <ele>443.39999389648</ele>
        <time>2020-06-28T09:00:30.000Z</time>
      </trkpt>
      <trkpt lat="49.79414" lon="5.59906">
        <ele>442.79998779297</ele>
        <time>2020-06-28T09:00:32.000Z</time>
      </trkpt>
      <trkpt lat="49.79395" lon="5.59917">
        <ele>441.60000610352</ele>
        <time>2020-06-28T09:00:42.000Z</time>
      </trkpt>
      <trkpt lat="49.79378" lon="5.5993">
        <ele>441.39999389648</ele>
        <time>2020-06-28T09:00:48.000Z</time>
      </trkpt>
      <trkpt lat="49.79375" lon="5.59933">
        <ele>441.39999389648</ele>
        <time>2020-06-28T09:00:49.000Z</time>
      </trkpt>
      <trkpt lat="49.79372" lon="5.59936">
        <ele>441.39999389648</ele>
        <time>2020-06-28T09:00:50.000Z</time>
      </trkpt>
      <trkpt lat="49.79357" lon="5.59954">
        <ele>444</ele>
        <time>2020-06-28T09:00:54.000Z</time>
      </trkpt>
      <trkpt lat="49.79339" lon="5.59978">
        <ele>446.60000610352</ele>
        <time>2020-06-28T09:00:58.000Z</time>
      </trkpt>
      <trkpt lat="49.79318" lon="5.59989">
        <ele>449</ele>
        <time>2020-06-28T09:01:02.000Z</time>
      </trkpt>
      <trkpt lat="49.79299" lon="5.59983">
        <ele>450.79998779297</ele>
        <time>2020-06-28T09:01:06.000Z</time>
      </trkpt>
      <trkpt lat="49.79279" lon="5.59972">
        <ele>452</ele>
        <time>2020-06-28T09:01:11.000Z</time>
      </trkpt>
      <trkpt lat="49.7926" lon="5.59964">
        <ele>452.60000610352</ele>
        <time>2020-06-28T09:01:16.000Z</time>
      </trkpt>
      <trkpt lat="49.79241" lon="5.59952">
        <ele>452.60000610352</ele>
        <time>2020-06-28T09:01:22.000Z</time>
      </trkpt>
      <trkpt lat="49.79238" lon="5.5995">
        <ele>452.60000610352</ele>
        <time>2020-06-28T09:01:23.000Z</time>
      </trkpt>
      <trkpt lat="49.79223" lon="5.59931">
        <ele>452.20001220703</ele>
        <time>2020-06-28T09:01:29.000Z</time>
      </trkpt>
      <trkpt lat="49.79221" lon="5.59928">
        <ele>452.20001220703</ele>
        <time>2020-06-28T09:01:30.000Z</time>
      </trkpt>
      <trkpt lat="49.79219" lon="5.59924">
        <ele>452</ele>
        <time>2020-06-28T09:01:31.000Z</time>
      </trkpt>
      <trkpt lat="49.79203" lon="5.59904">
        <ele>451.60000610352</ele>
        <time>2020-06-28T09:01:38.000Z</time>
      </trkpt>
      <trkpt lat="49.79192" lon="5.59891">
        <ele>451.20001220703</ele>
        <time>2020-06-28T09:01:43.000Z</time>
      </trkpt>
      <trkpt lat="49.79189" lon="5.59889">
        <ele>451.20001220703</ele>
        <time>2020-06-28T09:01:44.000Z</time>
      </trkpt>
      <trkpt lat="49.79185" lon="5.59884">
        <ele>451</ele>
        <time>2020-06-28T09:01:46.000Z</time>
      </trkpt>
      <trkpt lat="49.79168" lon="5.59871">
        <ele>450.60000610352</ele>
        <time>2020-06-28T09:01:54.000Z</time>
      </trkpt>
      <trkpt lat="49.7916" lon="5.59871">
        <ele>450.60000610352</ele>
        <time>2020-06-28T09:01:57.000Z</time>
      </trkpt>
      <trkpt lat="49.79158" lon="5.59872">
        <ele>450.60000610352</ele>
        <time>2020-06-28T09:01:58.000Z</time>
      </trkpt>
      <trkpt lat="49.7914" lon="5.59883">
        <ele>451</ele>
        <time>2020-06-28T09:02:06.000Z</time>
      </trkpt>
      <trkpt lat="49.79131" lon="5.59896">
        <ele>451.39999389648</ele>
        <time>2020-06-28T09:02:13.000Z</time>
      </trkpt>
      <trkpt lat="49.7913" lon="5.59897">
        <ele>451.20001220703</ele>
        <time>2020-06-28T09:02:14.000Z</time>
      </trkpt>
      <trkpt lat="49.79124" lon="5.59899">
        <ele>451</ele>
        <time>2020-06-28T09:02:18.000Z</time>
      </trkpt>
      <trkpt lat="49.79106" lon="5.59903">
        <ele>449.79998779297</ele>
        <time>2020-06-28T09:02:31.000Z</time>
      </trkpt>
      <trkpt lat="49.79103" lon="5.59905">
        <ele>449.60000610352</ele>
        <time>2020-06-28T09:02:33.000Z</time>
      </trkpt>
      <trkpt lat="49.79098" lon="5.59905">
        <ele>449.39999389648</ele>
        <time>2020-06-28T09:02:36.000Z</time>
      </trkpt>
      <trkpt lat="49.7908" lon="5.59913">
        <ele>448</ele>
        <time>2020-06-28T09:02:46.000Z</time>
      </trkpt>
      <trkpt lat="49.79066" lon="5.59921">
        <ele>447</ele>
        <time>2020-06-28T09:02:59.000Z</time>
      </trkpt>
      <trkpt lat="49.79058" lon="5.59925">
        <ele>446.39999389648</ele>
        <time>2020-06-28T09:03:08.000Z</time>
      </trkpt>
      <trkpt lat="49.79057" lon="5.59927">
        <ele>446.39999389648</ele>
        <time>2020-06-28T09:03:09.000Z</time>
      </trkpt>
      <trkpt lat="49.79035" lon="5.59937">
        <ele>444.79998779297</ele>
        <time>2020-06-28T09:03:16.000Z</time>
      </trkpt>
      <trkpt lat="49.79013" lon="5.59947">
        <ele>442.79998779297</ele>
        <time>2020-06-28T09:03:20.000Z</time>
      </trkpt>
      <trkpt lat="49.78999" lon="5.59954">
        <ele>441.39999389648</ele>
        <time>2020-06-28T09:03:22.000Z</time>
      </trkpt>
      <trkpt lat="49.78992" lon="5.59957">
        <ele>440.60000610352</ele>
        <time>2020-06-28T09:03:23.000Z</time>
      </trkpt>
      <trkpt lat="49.78984" lon="5.59961">
        <ele>440</ele>
        <time>2020-06-28T09:03:24.000Z</time>
      </trkpt>
      <trkpt lat="49.78964" lon="5.59976">
        <ele>438.20001220703</ele>
        <time>2020-06-28T09:03:27.000Z</time>
      </trkpt>
      <trkpt lat="49.78944" lon="5.59994">
        <ele>436.60000610352</ele>
        <time>2020-06-28T09:03:30.000Z</time>
      </trkpt>
      <trkpt lat="49.7892" lon="5.60007">
        <ele>436.20001220703</ele>
        <time>2020-06-28T09:03:33.000Z</time>
      </trkpt>
      <trkpt lat="49.78897" lon="5.60016">
        <ele>436</ele>
        <time>2020-06-28T09:03:36.000Z</time>
      </trkpt>
      <trkpt lat="49.7889" lon="5.6002">
        <ele>436</ele>
        <time>2020-06-28T09:03:37.000Z</time>
      </trkpt>
      <trkpt lat="49.78883" lon="5.60024">
        <ele>436</ele>
        <time>2020-06-28T09:03:38.000Z</time>
      </trkpt>
      <trkpt lat="49.78864" lon="5.60037">
        <ele>436.39999389648</ele>
        <time>2020-06-28T09:03:41.000Z</time>
      </trkpt>
      <trkpt lat="49.78859" lon="5.60041">
        <ele>436.79998779297</ele>
        <time>2020-06-28T09:03:42.000Z</time>
      </trkpt>
      <trkpt lat="49.78842" lon="5.60054">
        <ele>438.39999389648</ele>
        <time>2020-06-28T09:03:45.000Z</time>
      </trkpt>
      <trkpt lat="49.78837" lon="5.60058">
        <ele>438.79998779297</ele>
        <time>2020-06-28T09:03:46.000Z</time>
      </trkpt>
      <trkpt lat="49.78818" lon="5.60074">
        <ele>440</ele>
        <time>2020-06-28T09:03:50.000Z</time>
      </trkpt>
      <trkpt lat="49.78805" lon="5.60086">
        <ele>442.20001220703</ele>
        <time>2020-06-28T09:03:53.000Z</time>
      </trkpt>
      <trkpt lat="49.7879" lon="5.601">
        <ele>445.60000610352</ele>
        <time>2020-06-28T09:03:57.000Z</time>
      </trkpt>
      <trkpt lat="49.78777" lon="5.6011">
        <ele>446.79998779297</ele>
        <time>2020-06-28T09:04:01.000Z</time>
      </trkpt>
      <trkpt lat="49.78758" lon="5.60121">
        <ele>447</ele>
        <time>2020-06-28T09:04:05.000Z</time>
      </trkpt>
      <trkpt lat="49.78753" lon="5.60123">
        <ele>446.79998779297</ele>
        <time>2020-06-28T09:04:06.000Z</time>
      </trkpt>
      <trkpt lat="49.78748" lon="5.60125">
        <ele>446.60000610352</ele>
        <time>2020-06-28T09:04:07.000Z</time>
      </trkpt>
      <trkpt lat="49.78728" lon="5.60134">
        <ele>445.79998779297</ele>
        <time>2020-06-28T09:04:11.000Z</time>
      </trkpt>
      <trkpt lat="49.78711" lon="5.60139">
        <ele>445.20001220703</ele>
        <time>2020-06-28T09:04:15.000Z</time>
      </trkpt>
      <trkpt lat="49.78708" lon="5.6014">
        <ele>445</ele>
        <time>2020-06-28T09:04:16.000Z</time>
      </trkpt>
      <trkpt lat="49.78689" lon="5.60145">
        <ele>443.79998779297</ele>
        <time>2020-06-28T09:04:23.000Z</time>
      </trkpt>
      <trkpt lat="49.78687" lon="5.60145">
        <ele>443.79998779297</ele>
        <time>2020-06-28T09:04:24.000Z</time>
      </trkpt>
      <trkpt lat="49.78668" lon="5.60156">
        <ele>442.39999389648</ele>
        <time>2020-06-28T09:04:31.000Z</time>
      </trkpt>
      <trkpt lat="49.78663" lon="5.60163">
        <ele>442</ele>
        <time>2020-06-28T09:04:33.000Z</time>
      </trkpt>
      <trkpt lat="49.7865" lon="5.60186">
        <ele>441.60000610352</ele>
        <time>2020-06-28T09:04:38.000Z</time>
      </trkpt>
      <trkpt lat="49.78634" lon="5.60204">
        <ele>441.79998779297</ele>
        <time>2020-06-28T09:04:42.000Z</time>
      </trkpt>
      <trkpt lat="49.78616" lon="5.60216">
        <ele>441.60000610352</ele>
        <time>2020-06-28T09:04:45.000Z</time>
      </trkpt>
      <trkpt lat="49.78595" lon="5.60224">
        <ele>439.60000610352</ele>
        <time>2020-06-28T09:04:48.000Z</time>
      </trkpt>
      <trkpt lat="49.78583" lon="5.60229">
        <ele>438.39999389648</ele>
        <time>2020-06-28T09:04:50.000Z</time>
      </trkpt>
      <trkpt lat="49.78566" lon="5.60244">
        <ele>436.79998779297</ele>
        <time>2020-06-28T09:04:53.000Z</time>
      </trkpt>
      <trkpt lat="49.78561" lon="5.6025">
        <ele>436.20001220703</ele>
        <time>2020-06-28T09:04:54.000Z</time>
      </trkpt>
      <trkpt lat="49.7855" lon="5.60263">
        <ele>435.39999389648</ele>
        <time>2020-06-28T09:04:56.000Z</time>
      </trkpt>
      <trkpt lat="49.78532" lon="5.60282">
        <ele>434</ele>
        <time>2020-06-28T09:04:59.000Z</time>
      </trkpt>
      <trkpt lat="49.78525" lon="5.6029">
        <ele>433.60000610352</ele>
        <time>2020-06-28T09:05:00.000Z</time>
      </trkpt>
      <trkpt lat="49.78518" lon="5.60296">
        <ele>432.79998779297</ele>
        <time>2020-06-28T09:05:01.000Z</time>
      </trkpt>
      <trkpt lat="49.78505" lon="5.60307">
        <ele>431.39999389648</ele>
        <time>2020-06-28T09:05:03.000Z</time>
      </trkpt>
      <trkpt lat="49.78486" lon="5.60312">
        <ele>429.79998779297</ele>
        <time>2020-06-28T09:05:07.000Z</time>
      </trkpt>
      <trkpt lat="49.78482" lon="5.60313">
        <ele>429.60000610352</ele>
        <time>2020-06-28T09:05:15.000Z</time>
      </trkpt>
      <trkpt lat="49.78467" lon="5.60329">
        <ele>428</ele>
        <time>2020-06-28T09:05:24.000Z</time>
      </trkpt>
      <trkpt lat="49.78457" lon="5.60334">
        <ele>427</ele>
        <time>2020-06-28T09:05:28.000Z</time>
      </trkpt>
      <trkpt lat="49.78453" lon="5.60333">
        <ele>426.79998779297</ele>
        <time>2020-06-28T09:05:29.000Z</time>
      </trkpt>
      <trkpt lat="49.78441" lon="5.60329">
        <ele>426.60000610352</ele>
        <time>2020-06-28T09:05:32.000Z</time>
      </trkpt>
      <trkpt lat="49.78421" lon="5.60313">
        <ele>426.79998779297</ele>
        <time>2020-06-28T09:05:37.000Z</time>
      </trkpt>
      <trkpt lat="49.78417" lon="5.60309">
        <ele>426.79998779297</ele>
        <time>2020-06-28T09:05:38.000Z</time>
      </trkpt>
      <trkpt lat="49.78412" lon="5.60305">
        <ele>426.79998779297</ele>
        <time>2020-06-28T09:05:39.000Z</time>
      </trkpt>
      <trkpt lat="49.78399" lon="5.60285">
        <ele>427.20001220703</ele>
        <time>2020-06-28T09:05:43.000Z</time>
      </trkpt>
      <trkpt lat="49.78387" lon="5.60264">
        <ele>427.79998779297</ele>
        <time>2020-06-28T09:05:48.000Z</time>
      </trkpt>
      <trkpt lat="49.78382" lon="5.60256">
        <ele>427.79998779297</ele>
        <time>2020-06-28T09:05:50.000Z</time>
      </trkpt>
      <trkpt lat="49.7838" lon="5.60252">
        <ele>428</ele>
        <time>2020-06-28T09:05:51.000Z</time>
      </trkpt>
      <trkpt lat="49.78369" lon="5.60227">
        <ele>428.60000610352</ele>
        <time>2020-06-28T09:05:57.000Z</time>
      </trkpt>
      <trkpt lat="49.78349" lon="5.60226">
        <ele>428.20001220703</ele>
        <time>2020-06-28T09:06:02.000Z</time>
      </trkpt>
      <trkpt lat="49.7834" lon="5.60229">
        <ele>427.79998779297</ele>
        <time>2020-06-28T09:06:04.000Z</time>
      </trkpt>
      <trkpt lat="49.78336" lon="5.6023">
        <ele>427.79998779297</ele>
        <time>2020-06-28T09:06:05.000Z</time>
      </trkpt>
      <trkpt lat="49.78323" lon="5.60211">
        <ele>427.60000610352</ele>
        <time>2020-06-28T09:06:10.000Z</time>
      </trkpt>
      <trkpt lat="49.78323" lon="5.60206">
        <ele>427.39999389648</ele>
        <time>2020-06-28T09:06:11.000Z</time>
      </trkpt>
      <trkpt lat="49.78322" lon="5.602">
        <ele>427.20001220703</ele>
        <time>2020-06-28T09:06:12.000Z</time>
      </trkpt>
      <trkpt lat="49.78318" lon="5.60174">
        <ele>426.20001220703</ele>
        <time>2020-06-28T09:06:16.000Z</time>
      </trkpt>
      <trkpt lat="49.78317" lon="5.60167">
        <ele>425.79998779297</ele>
        <time>2020-06-28T09:06:17.000Z</time>
      </trkpt>
      <trkpt lat="49.78314" lon="5.60143">
        <ele>425.60000610352</ele>
        <time>2020-06-28T09:06:20.000Z</time>
      </trkpt>
      <trkpt lat="49.78309" lon="5.60109">
        <ele>424.39999389648</ele>
        <time>2020-06-28T09:06:24.000Z</time>
      </trkpt>
      <trkpt lat="49.78304" lon="5.60082">
        <ele>423</ele>
        <time>2020-06-28T09:06:27.000Z</time>
      </trkpt>
      <trkpt lat="49.78303" lon="5.60053">
        <ele>422</ele>
        <time>2020-06-28T09:06:31.000Z</time>
      </trkpt>
      <trkpt lat="49.78303" lon="5.6005">
        <ele>422</ele>
        <time>2020-06-28T09:06:38.000Z</time>
      </trkpt>
    </trkseg>
  </trk>
</gpx>